<?xml version="1.0" encoding="UTF-8" standalone="no" ?>
<gpx xmlns="http://www.topografix.com/GPX/1/1" xmlns:xsi="http://www.w3.org/2001/XMLSchema-instance" xsi:schemaLocation="http://www.topografix.com/GPX/1/1 http://www.topografix.com/GPX/1/1/gpx.xsd" version="1.1" creator="VisuGPX - https://www.visugpx.com">
  <metadata>
    <name>rando roller du 2015 11 09</name>
    <desc><![CDATA[quelques ponts de paris]]></desc>
  </metadata>
  <trk>
    <name><![CDATA[Paris 04 Course à pied]]></name>
    <trkseg>
      <trkpt lat="48.85724" lon="2.34721">
        <ele>40.599998474121</ele>
        <time>2015-11-09T19:21:18.000Z</time>
      </trkpt>
      <trkpt lat="48.85743" lon="2.34711">
        <ele>40.200000762939</ele>
        <time>2015-11-09T19:21:44.000Z</time>
      </trkpt>
      <trkpt lat="48.85763" lon="2.34716">
        <ele>39.400001525879</ele>
        <time>2015-11-09T19:21:51.000Z</time>
      </trkpt>
      <trkpt lat="48.85783" lon="2.34717">
        <ele>39.799999237061</ele>
        <time>2015-11-09T19:21:57.000Z</time>
      </trkpt>
      <trkpt lat="48.85801" lon="2.34719">
        <ele>41.400001525879</ele>
        <time>2015-11-09T19:22:03.000Z</time>
      </trkpt>
      <trkpt lat="48.85819" lon="2.34723">
        <ele>43</ele>
        <time>2015-11-09T19:22:08.000Z</time>
      </trkpt>
      <trkpt lat="48.85838" lon="2.34726">
        <ele>45</ele>
        <time>2015-11-09T19:22:14.000Z</time>
      </trkpt>
      <trkpt lat="48.85858" lon="2.3473">
        <ele>47.400001525879</ele>
        <time>2015-11-09T19:22:18.000Z</time>
      </trkpt>
      <trkpt lat="48.85877" lon="2.34719">
        <ele>47</ele>
        <time>2015-11-09T19:22:24.000Z</time>
      </trkpt>
      <trkpt lat="48.85893" lon="2.34705">
        <ele>46.599998474121</ele>
        <time>2015-11-09T19:22:29.000Z</time>
      </trkpt>
      <trkpt lat="48.85912" lon="2.34692">
        <ele>46.599998474121</ele>
        <time>2015-11-09T19:22:34.000Z</time>
      </trkpt>
      <trkpt lat="48.8593" lon="2.34676">
        <ele>46.799999237061</ele>
        <time>2015-11-09T19:22:40.000Z</time>
      </trkpt>
      <trkpt lat="48.85947" lon="2.34664">
        <ele>47</ele>
        <time>2015-11-09T19:22:47.000Z</time>
      </trkpt>
      <trkpt lat="48.85967" lon="2.34652">
        <ele>47.200000762939</ele>
        <time>2015-11-09T19:22:53.000Z</time>
      </trkpt>
      <trkpt lat="48.85983" lon="2.3464">
        <ele>47.599998474121</ele>
        <time>2015-11-09T19:22:58.000Z</time>
      </trkpt>
      <trkpt lat="48.86" lon="2.3463">
        <ele>47.799999237061</ele>
        <time>2015-11-09T19:23:03.000Z</time>
      </trkpt>
      <trkpt lat="48.86021" lon="2.3462">
        <ele>47.599998474121</ele>
        <time>2015-11-09T19:23:07.000Z</time>
      </trkpt>
      <trkpt lat="48.8604" lon="2.34608">
        <ele>47.400001525879</ele>
        <time>2015-11-09T19:23:11.000Z</time>
      </trkpt>
      <trkpt lat="48.8606" lon="2.34601">
        <ele>47.799999237061</ele>
        <time>2015-11-09T19:23:16.000Z</time>
      </trkpt>
      <trkpt lat="48.86079" lon="2.34595">
        <ele>48.400001525879</ele>
        <time>2015-11-09T19:23:20.000Z</time>
      </trkpt>
      <trkpt lat="48.86324" lon="2.34812">
        <ele>44.799999237061</ele>
        <time>2015-11-09T19:25:13.000Z</time>
      </trkpt>
      <trkpt lat="48.86338" lon="2.34819">
        <ele>45.200000762939</ele>
        <time>2015-11-09T19:25:18.000Z</time>
      </trkpt>
      <trkpt lat="48.86358" lon="2.34839">
        <ele>46.200000762939</ele>
        <time>2015-11-09T19:25:23.000Z</time>
      </trkpt>
      <trkpt lat="48.86379" lon="2.34859">
        <ele>46.799999237061</ele>
        <time>2015-11-09T19:25:28.000Z</time>
      </trkpt>
      <trkpt lat="48.86384" lon="2.34874">
        <ele>47.200000762939</ele>
        <time>2015-11-09T19:25:35.000Z</time>
      </trkpt>
      <trkpt lat="48.86389" lon="2.34878">
        <ele>47.200000762939</ele>
        <time>2015-11-09T19:25:39.000Z</time>
      </trkpt>
      <trkpt lat="48.86394" lon="2.3488">
        <ele>47.400001525879</ele>
        <time>2015-11-09T19:25:46.000Z</time>
      </trkpt>
      <trkpt lat="48.86397" lon="2.34907">
        <ele>48.200000762939</ele>
        <time>2015-11-09T19:25:57.000Z</time>
      </trkpt>
      <trkpt lat="48.86396" lon="2.34936">
        <ele>48.599998474121</ele>
        <time>2015-11-09T19:26:04.000Z</time>
      </trkpt>
      <trkpt lat="48.86391" lon="2.34967">
        <ele>48.799999237061</ele>
        <time>2015-11-09T19:26:10.000Z</time>
      </trkpt>
      <trkpt lat="48.86385" lon="2.34997">
        <ele>49.400001525879</ele>
        <time>2015-11-09T19:26:15.000Z</time>
      </trkpt>
      <trkpt lat="48.86381" lon="2.35024">
        <ele>48.799999237061</ele>
        <time>2015-11-09T19:26:20.000Z</time>
      </trkpt>
      <trkpt lat="48.86372" lon="2.35055">
        <ele>48.200000762939</ele>
        <time>2015-11-09T19:26:25.000Z</time>
      </trkpt>
      <trkpt lat="48.86366" lon="2.35081">
        <ele>47.799999237061</ele>
        <time>2015-11-09T19:26:29.000Z</time>
      </trkpt>
      <trkpt lat="48.86356" lon="2.35106">
        <ele>47.599998474121</ele>
        <time>2015-11-09T19:26:33.000Z</time>
      </trkpt>
      <trkpt lat="48.86347" lon="2.35133">
        <ele>47.400001525879</ele>
        <time>2015-11-09T19:26:37.000Z</time>
      </trkpt>
      <trkpt lat="48.86339" lon="2.35154">
        <ele>47.400001525879</ele>
        <time>2015-11-09T19:26:40.000Z</time>
      </trkpt>
      <trkpt lat="48.86331" lon="2.35184">
        <ele>47.599998474121</ele>
        <time>2015-11-09T19:26:44.000Z</time>
      </trkpt>
      <trkpt lat="48.86323" lon="2.35216">
        <ele>47.599998474121</ele>
        <time>2015-11-09T19:26:48.000Z</time>
      </trkpt>
      <trkpt lat="48.86316" lon="2.35246">
        <ele>47</ele>
        <time>2015-11-09T19:26:52.000Z</time>
      </trkpt>
      <trkpt lat="48.86314" lon="2.35275">
        <ele>46.400001525879</ele>
        <time>2015-11-09T19:26:56.000Z</time>
      </trkpt>
      <trkpt lat="48.86313" lon="2.35281">
        <ele>46.200000762939</ele>
        <time>2015-11-09T19:26:57.000Z</time>
      </trkpt>
      <trkpt lat="48.86307" lon="2.35307">
        <ele>46</ele>
        <time>2015-11-09T19:27:01.000Z</time>
      </trkpt>
      <trkpt lat="48.86307" lon="2.35314">
        <ele>46</ele>
        <time>2015-11-09T19:27:02.000Z</time>
      </trkpt>
      <trkpt lat="48.86303" lon="2.35333">
        <ele>46</ele>
        <time>2015-11-09T19:27:05.000Z</time>
      </trkpt>
      <trkpt lat="48.86295" lon="2.35356">
        <ele>46.400001525879</ele>
        <time>2015-11-09T19:27:08.000Z</time>
      </trkpt>
      <trkpt lat="48.86287" lon="2.35385">
        <ele>46.200000762939</ele>
        <time>2015-11-09T19:27:13.000Z</time>
      </trkpt>
      <trkpt lat="48.86282" lon="2.35408">
        <ele>46</ele>
        <time>2015-11-09T19:27:18.000Z</time>
      </trkpt>
      <trkpt lat="48.86269" lon="2.3541">
        <ele>46.200000762939</ele>
        <time>2015-11-09T19:27:25.000Z</time>
      </trkpt>
      <trkpt lat="48.86249" lon="2.354">
        <ele>46.599998474121</ele>
        <time>2015-11-09T19:27:30.000Z</time>
      </trkpt>
      <trkpt lat="48.86228" lon="2.35391">
        <ele>47</ele>
        <time>2015-11-09T19:27:35.000Z</time>
      </trkpt>
      <trkpt lat="48.8621" lon="2.3538">
        <ele>47.599998474121</ele>
        <time>2015-11-09T19:27:40.000Z</time>
      </trkpt>
      <trkpt lat="48.8619" lon="2.35369">
        <ele>48</ele>
        <time>2015-11-09T19:27:44.000Z</time>
      </trkpt>
      <trkpt lat="48.86172" lon="2.35362">
        <ele>49.799999237061</ele>
        <time>2015-11-09T19:27:47.000Z</time>
      </trkpt>
      <trkpt lat="48.86152" lon="2.35352">
        <ele>51.599998474121</ele>
        <time>2015-11-09T19:27:51.000Z</time>
      </trkpt>
      <trkpt lat="48.86149" lon="2.3535">
        <ele>52</ele>
        <time>2015-11-09T19:27:52.000Z</time>
      </trkpt>
      <trkpt lat="48.86139" lon="2.35365">
        <ele>52.400001525879</ele>
        <time>2015-11-09T19:27:59.000Z</time>
      </trkpt>
      <trkpt lat="48.86137" lon="2.35377">
        <ele>51.400001525879</ele>
        <time>2015-11-09T19:28:01.000Z</time>
      </trkpt>
      <trkpt lat="48.86126" lon="2.35404">
        <ele>49.400001525879</ele>
        <time>2015-11-09T19:28:05.000Z</time>
      </trkpt>
      <trkpt lat="48.86114" lon="2.35435">
        <ele>47.599998474121</ele>
        <time>2015-11-09T19:28:09.000Z</time>
      </trkpt>
      <trkpt lat="48.86104" lon="2.35458">
        <ele>46.400001525879</ele>
        <time>2015-11-09T19:28:12.000Z</time>
      </trkpt>
      <trkpt lat="48.86091" lon="2.35485">
        <ele>44.599998474121</ele>
        <time>2015-11-09T19:28:16.000Z</time>
      </trkpt>
      <trkpt lat="48.86089" lon="2.35491">
        <ele>44.400001525879</ele>
        <time>2015-11-09T19:28:17.000Z</time>
      </trkpt>
      <trkpt lat="48.86083" lon="2.35504">
        <ele>44.400001525879</ele>
        <time>2015-11-09T19:28:19.000Z</time>
      </trkpt>
      <trkpt lat="48.8607" lon="2.35533">
        <ele>45.200000762939</ele>
        <time>2015-11-09T19:28:24.000Z</time>
      </trkpt>
      <trkpt lat="48.86064" lon="2.35547">
        <ele>45.400001525879</ele>
        <time>2015-11-09T19:28:26.000Z</time>
      </trkpt>
      <trkpt lat="48.86055" lon="2.35578">
        <ele>44.799999237061</ele>
        <time>2015-11-09T19:28:30.000Z</time>
      </trkpt>
      <trkpt lat="48.86045" lon="2.35605">
        <ele>44.799999237061</ele>
        <time>2015-11-09T19:28:34.000Z</time>
      </trkpt>
      <trkpt lat="48.86038" lon="2.35618">
        <ele>44.599998474121</ele>
        <time>2015-11-09T19:28:36.000Z</time>
      </trkpt>
      <trkpt lat="48.86032" lon="2.35637">
        <ele>44.400001525879</ele>
        <time>2015-11-09T19:28:39.000Z</time>
      </trkpt>
      <trkpt lat="48.86021" lon="2.35657">
        <ele>44</ele>
        <time>2015-11-09T19:28:43.000Z</time>
      </trkpt>
      <trkpt lat="48.8601" lon="2.35685">
        <ele>44</ele>
        <time>2015-11-09T19:28:57.000Z</time>
      </trkpt>
      <trkpt lat="48.86008" lon="2.35688">
        <ele>44</ele>
        <time>2015-11-09T19:28:58.000Z</time>
      </trkpt>
      <trkpt lat="48.85994" lon="2.35706">
        <ele>44.200000762939</ele>
        <time>2015-11-09T19:29:03.000Z</time>
      </trkpt>
      <trkpt lat="48.85978" lon="2.35727">
        <ele>44</ele>
        <time>2015-11-09T19:29:08.000Z</time>
      </trkpt>
      <trkpt lat="48.85963" lon="2.35748">
        <ele>43.799999237061</ele>
        <time>2015-11-09T19:29:13.000Z</time>
      </trkpt>
      <trkpt lat="48.85948" lon="2.35771">
        <ele>43.200000762939</ele>
        <time>2015-11-09T19:29:18.000Z</time>
      </trkpt>
      <trkpt lat="48.85932" lon="2.35785">
        <ele>42.799999237061</ele>
        <time>2015-11-09T19:29:22.000Z</time>
      </trkpt>
      <trkpt lat="48.85914" lon="2.35801">
        <ele>42.400001525879</ele>
        <time>2015-11-09T19:29:27.000Z</time>
      </trkpt>
      <trkpt lat="48.85899" lon="2.35822">
        <ele>42.200000762939</ele>
        <time>2015-11-09T19:29:32.000Z</time>
      </trkpt>
      <trkpt lat="48.85884" lon="2.35839">
        <ele>42.599998474121</ele>
        <time>2015-11-09T19:29:38.000Z</time>
      </trkpt>
      <trkpt lat="48.8587" lon="2.35859">
        <ele>42.799999237061</ele>
        <time>2015-11-09T19:29:45.000Z</time>
      </trkpt>
      <trkpt lat="48.85859" lon="2.35882">
        <ele>42.400001525879</ele>
        <time>2015-11-09T19:29:50.000Z</time>
      </trkpt>
      <trkpt lat="48.85847" lon="2.35902">
        <ele>42.400001525879</ele>
        <time>2015-11-09T19:29:54.000Z</time>
      </trkpt>
      <trkpt lat="48.85833" lon="2.35921">
        <ele>42.200000762939</ele>
        <time>2015-11-09T19:29:58.000Z</time>
      </trkpt>
      <trkpt lat="48.8582" lon="2.35942">
        <ele>42.400001525879</ele>
        <time>2015-11-09T19:30:02.000Z</time>
      </trkpt>
      <trkpt lat="48.85806" lon="2.35965">
        <ele>42.400001525879</ele>
        <time>2015-11-09T19:30:06.000Z</time>
      </trkpt>
      <trkpt lat="48.85793" lon="2.35988">
        <ele>42.200000762939</ele>
        <time>2015-11-09T19:30:10.000Z</time>
      </trkpt>
      <trkpt lat="48.8578" lon="2.36015">
        <ele>41.799999237061</ele>
        <time>2015-11-09T19:30:15.000Z</time>
      </trkpt>
      <trkpt lat="48.85768" lon="2.36043">
        <ele>41.599998474121</ele>
        <time>2015-11-09T19:30:20.000Z</time>
      </trkpt>
      <trkpt lat="48.85763" lon="2.36054">
        <ele>41.599998474121</ele>
        <time>2015-11-09T19:30:22.000Z</time>
      </trkpt>
      <trkpt lat="48.85756" lon="2.36072">
        <ele>41.599998474121</ele>
        <time>2015-11-09T19:30:25.000Z</time>
      </trkpt>
      <trkpt lat="48.85747" lon="2.36098">
        <ele>42</ele>
        <time>2015-11-09T19:30:29.000Z</time>
      </trkpt>
      <trkpt lat="48.85737" lon="2.36124">
        <ele>42.200000762939</ele>
        <time>2015-11-09T19:30:33.000Z</time>
      </trkpt>
      <trkpt lat="48.85729" lon="2.3615">
        <ele>41.799999237061</ele>
        <time>2015-11-09T19:30:37.000Z</time>
      </trkpt>
      <trkpt lat="48.85726" lon="2.36164">
        <ele>41.599998474121</ele>
        <time>2015-11-09T19:30:39.000Z</time>
      </trkpt>
      <trkpt lat="48.85716" lon="2.36191">
        <ele>41</ele>
        <time>2015-11-09T19:30:44.000Z</time>
      </trkpt>
      <trkpt lat="48.85714" lon="2.36203">
        <ele>41.200000762939</ele>
        <time>2015-11-09T19:30:46.000Z</time>
      </trkpt>
      <trkpt lat="48.85705" lon="2.3623">
        <ele>42</ele>
        <time>2015-11-09T19:30:51.000Z</time>
      </trkpt>
      <trkpt lat="48.85702" lon="2.36244">
        <ele>42.400001525879</ele>
        <time>2015-11-09T19:30:54.000Z</time>
      </trkpt>
      <trkpt lat="48.85697" lon="2.36258">
        <ele>42.799999237061</ele>
        <time>2015-11-09T19:30:58.000Z</time>
      </trkpt>
      <trkpt lat="48.85691" lon="2.36273">
        <ele>42.599998474121</ele>
        <time>2015-11-09T19:31:02.000Z</time>
      </trkpt>
      <trkpt lat="48.8568" lon="2.363">
        <ele>42.200000762939</ele>
        <time>2015-11-09T19:31:07.000Z</time>
      </trkpt>
      <trkpt lat="48.85675" lon="2.36313">
        <ele>42</ele>
        <time>2015-11-09T19:31:09.000Z</time>
      </trkpt>
      <trkpt lat="48.8567" lon="2.36338">
        <ele>41.799999237061</ele>
        <time>2015-11-09T19:31:13.000Z</time>
      </trkpt>
      <trkpt lat="48.85665" lon="2.36364">
        <ele>41.799999237061</ele>
        <time>2015-11-09T19:31:17.000Z</time>
      </trkpt>
      <trkpt lat="48.85658" lon="2.36393">
        <ele>42</ele>
        <time>2015-11-09T19:31:22.000Z</time>
      </trkpt>
      <trkpt lat="48.85654" lon="2.36415">
        <ele>42.799999237061</ele>
        <time>2015-11-09T19:31:27.000Z</time>
      </trkpt>
      <trkpt lat="48.85651" lon="2.36436">
        <ele>43.200000762939</ele>
        <time>2015-11-09T19:31:31.000Z</time>
      </trkpt>
      <trkpt lat="48.85642" lon="2.36469">
        <ele>42.400001525879</ele>
        <time>2015-11-09T19:31:36.000Z</time>
      </trkpt>
      <trkpt lat="48.8563" lon="2.36497">
        <ele>40.200000762939</ele>
        <time>2015-11-09T19:31:40.000Z</time>
      </trkpt>
      <trkpt lat="48.85626" lon="2.36524">
        <ele>40.599998474121</ele>
        <time>2015-11-09T19:31:44.000Z</time>
      </trkpt>
      <trkpt lat="48.85622" lon="2.36556">
        <ele>40.599998474121</ele>
        <time>2015-11-09T19:31:48.000Z</time>
      </trkpt>
      <trkpt lat="48.85617" lon="2.36585">
        <ele>40.599998474121</ele>
        <time>2015-11-09T19:31:52.000Z</time>
      </trkpt>
      <trkpt lat="48.85617" lon="2.36599">
        <ele>40.599998474121</ele>
        <time>2015-11-09T19:31:54.000Z</time>
      </trkpt>
      <trkpt lat="48.85613" lon="2.36624">
        <ele>40.400001525879</ele>
        <time>2015-11-09T19:31:58.000Z</time>
      </trkpt>
      <trkpt lat="48.85612" lon="2.36648">
        <ele>40.400001525879</ele>
        <time>2015-11-09T19:32:03.000Z</time>
      </trkpt>
      <trkpt lat="48.85605" lon="2.36647">
        <ele>40</ele>
        <time>2015-11-09T19:32:07.000Z</time>
      </trkpt>
      <trkpt lat="48.85585" lon="2.3664">
        <ele>40</ele>
        <time>2015-11-09T19:32:12.000Z</time>
      </trkpt>
      <trkpt lat="48.85579" lon="2.36639">
        <ele>40</ele>
        <time>2015-11-09T19:32:13.000Z</time>
      </trkpt>
      <trkpt lat="48.8556" lon="2.36632">
        <ele>40.599998474121</ele>
        <time>2015-11-09T19:32:17.000Z</time>
      </trkpt>
      <trkpt lat="48.85541" lon="2.36624">
        <ele>41.200000762939</ele>
        <time>2015-11-09T19:32:20.000Z</time>
      </trkpt>
      <trkpt lat="48.85532" lon="2.3662">
        <ele>41.400001525879</ele>
        <time>2015-11-09T19:32:22.000Z</time>
      </trkpt>
      <trkpt lat="48.8552" lon="2.36614">
        <ele>41.599998474121</ele>
        <time>2015-11-09T19:32:25.000Z</time>
      </trkpt>
      <trkpt lat="48.85514" lon="2.36589">
        <ele>40.599998474121</ele>
        <time>2015-11-09T19:32:30.000Z</time>
      </trkpt>
      <trkpt lat="48.85515" lon="2.36583">
        <ele>40.200000762939</ele>
        <time>2015-11-09T19:32:31.000Z</time>
      </trkpt>
      <trkpt lat="48.85516" lon="2.3656">
        <ele>40.400001525879</ele>
        <time>2015-11-09T19:32:35.000Z</time>
      </trkpt>
      <trkpt lat="48.85517" lon="2.36545">
        <ele>40.599998474121</ele>
        <time>2015-11-09T19:32:38.000Z</time>
      </trkpt>
      <trkpt lat="48.85506" lon="2.36528">
        <ele>41.200000762939</ele>
        <time>2015-11-09T19:32:45.000Z</time>
      </trkpt>
      <trkpt lat="48.85503" lon="2.36527">
        <ele>41.400001525879</ele>
        <time>2015-11-09T19:32:46.000Z</time>
      </trkpt>
      <trkpt lat="48.85486" lon="2.3652">
        <ele>42</ele>
        <time>2015-11-09T19:32:50.000Z</time>
      </trkpt>
      <trkpt lat="48.85467" lon="2.36514">
        <ele>42.799999237061</ele>
        <time>2015-11-09T19:32:53.000Z</time>
      </trkpt>
      <trkpt lat="48.85446" lon="2.36506">
        <ele>43.599998474121</ele>
        <time>2015-11-09T19:32:57.000Z</time>
      </trkpt>
      <trkpt lat="48.85427" lon="2.36499">
        <ele>44</ele>
        <time>2015-11-09T19:33:01.000Z</time>
      </trkpt>
      <trkpt lat="48.85423" lon="2.36498">
        <ele>44</ele>
        <time>2015-11-09T19:33:02.000Z</time>
      </trkpt>
      <trkpt lat="48.85403" lon="2.36498">
        <ele>44</ele>
        <time>2015-11-09T19:33:04.000Z</time>
      </trkpt>
      <trkpt lat="48.85386" lon="2.36494">
        <ele>44.200000762939</ele>
        <time>2015-11-09T19:33:08.000Z</time>
      </trkpt>
      <trkpt lat="48.85384" lon="2.36486">
        <ele>44.400001525879</ele>
        <time>2015-11-09T19:33:11.000Z</time>
      </trkpt>
      <trkpt lat="48.85376" lon="2.36469">
        <ele>45</ele>
        <time>2015-11-09T19:33:16.000Z</time>
      </trkpt>
      <trkpt lat="48.85371" lon="2.36462">
        <ele>45.200000762939</ele>
        <time>2015-11-09T19:33:19.000Z</time>
      </trkpt>
      <trkpt lat="48.85357" lon="2.3645">
        <ele>45.799999237061</ele>
        <time>2015-11-09T19:33:26.000Z</time>
      </trkpt>
      <trkpt lat="48.85343" lon="2.36426">
        <ele>46.200000762939</ele>
        <time>2015-11-09T19:33:32.000Z</time>
      </trkpt>
      <trkpt lat="48.8533" lon="2.36407">
        <ele>45.599998474121</ele>
        <time>2015-11-09T19:33:37.000Z</time>
      </trkpt>
      <trkpt lat="48.85315" lon="2.36387">
        <ele>44.200000762939</ele>
        <time>2015-11-09T19:33:42.000Z</time>
      </trkpt>
      <trkpt lat="48.85301" lon="2.36368">
        <ele>42.799999237061</ele>
        <time>2015-11-09T19:33:47.000Z</time>
      </trkpt>
      <trkpt lat="48.85285" lon="2.36352">
        <ele>41.400001525879</ele>
        <time>2015-11-09T19:33:52.000Z</time>
      </trkpt>
      <trkpt lat="48.85269" lon="2.36334">
        <ele>40.400001525879</ele>
        <time>2015-11-09T19:33:57.000Z</time>
      </trkpt>
      <trkpt lat="48.85255" lon="2.36314">
        <ele>40.200000762939</ele>
        <time>2015-11-09T19:34:02.000Z</time>
      </trkpt>
      <trkpt lat="48.85238" lon="2.36293">
        <ele>40.599998474121</ele>
        <time>2015-11-09T19:34:07.000Z</time>
      </trkpt>
      <trkpt lat="48.85219" lon="2.36279">
        <ele>40.799999237061</ele>
        <time>2015-11-09T19:34:12.000Z</time>
      </trkpt>
      <trkpt lat="48.85208" lon="2.3628">
        <ele>41.200000762939</ele>
        <time>2015-11-09T19:34:15.000Z</time>
      </trkpt>
      <trkpt lat="48.85193" lon="2.363">
        <ele>42.799999237061</ele>
        <time>2015-11-09T19:34:21.000Z</time>
      </trkpt>
      <trkpt lat="48.8519" lon="2.36301">
        <ele>42.799999237061</ele>
        <time>2015-11-09T19:34:22.000Z</time>
      </trkpt>
      <trkpt lat="48.85174" lon="2.36283">
        <ele>41.799999237061</ele>
        <time>2015-11-09T19:34:28.000Z</time>
      </trkpt>
      <trkpt lat="48.85159" lon="2.36264">
        <ele>40.599998474121</ele>
        <time>2015-11-09T19:34:33.000Z</time>
      </trkpt>
      <trkpt lat="48.85145" lon="2.36242">
        <ele>39.200000762939</ele>
        <time>2015-11-09T19:34:40.000Z</time>
      </trkpt>
      <trkpt lat="48.85141" lon="2.36239">
        <ele>39</ele>
        <time>2015-11-09T19:34:42.000Z</time>
      </trkpt>
      <trkpt lat="48.8513" lon="2.36253">
        <ele>39</ele>
        <time>2015-11-09T19:34:49.000Z</time>
      </trkpt>
      <trkpt lat="48.85129" lon="2.36256">
        <ele>39.200000762939</ele>
        <time>2015-11-09T19:34:52.000Z</time>
      </trkpt>
      <trkpt lat="48.85114" lon="2.36255">
        <ele>38.599998474121</ele>
        <time>2015-11-09T19:35:36.000Z</time>
      </trkpt>
      <trkpt lat="48.85109" lon="2.36252">
        <ele>38.200000762939</ele>
        <time>2015-11-09T19:35:39.000Z</time>
      </trkpt>
      <trkpt lat="48.85094" lon="2.36234">
        <ele>38</ele>
        <time>2015-11-09T19:35:47.000Z</time>
      </trkpt>
      <trkpt lat="48.85079" lon="2.3625">
        <ele>37.400001525879</ele>
        <time>2015-11-09T19:35:53.000Z</time>
      </trkpt>
      <trkpt lat="48.85076" lon="2.36254">
        <ele>37.400001525879</ele>
        <time>2015-11-09T19:35:54.000Z</time>
      </trkpt>
      <trkpt lat="48.85059" lon="2.36276">
        <ele>37.200000762939</ele>
        <time>2015-11-09T19:35:59.000Z</time>
      </trkpt>
      <trkpt lat="48.85045" lon="2.36294">
        <ele>36.599998474121</ele>
        <time>2015-11-09T19:36:03.000Z</time>
      </trkpt>
      <trkpt lat="48.85031" lon="2.36311">
        <ele>35.599998474121</ele>
        <time>2015-11-09T19:36:07.000Z</time>
      </trkpt>
      <trkpt lat="48.85016" lon="2.36328">
        <ele>35.400001525879</ele>
        <time>2015-11-09T19:36:11.000Z</time>
      </trkpt>
      <trkpt lat="48.84999" lon="2.36348">
        <ele>37.200000762939</ele>
        <time>2015-11-09T19:36:16.000Z</time>
      </trkpt>
      <trkpt lat="48.84983" lon="2.36363">
        <ele>38.799999237061</ele>
        <time>2015-11-09T19:36:20.000Z</time>
      </trkpt>
      <trkpt lat="48.84967" lon="2.36378">
        <ele>39.599998474121</ele>
        <time>2015-11-09T19:36:24.000Z</time>
      </trkpt>
      <trkpt lat="48.84949" lon="2.36397">
        <ele>39.799999237061</ele>
        <time>2015-11-09T19:36:29.000Z</time>
      </trkpt>
      <trkpt lat="48.84935" lon="2.3641">
        <ele>39.799999237061</ele>
        <time>2015-11-09T19:36:33.000Z</time>
      </trkpt>
      <trkpt lat="48.84916" lon="2.36422">
        <ele>40.200000762939</ele>
        <time>2015-11-09T19:36:38.000Z</time>
      </trkpt>
      <trkpt lat="48.849" lon="2.36435">
        <ele>40.799999237061</ele>
        <time>2015-11-09T19:36:43.000Z</time>
      </trkpt>
      <trkpt lat="48.84884" lon="2.36451">
        <ele>41.400001525879</ele>
        <time>2015-11-09T19:36:49.000Z</time>
      </trkpt>
      <trkpt lat="48.84863" lon="2.36462">
        <ele>41.599998474121</ele>
        <time>2015-11-09T19:36:57.000Z</time>
      </trkpt>
      <trkpt lat="48.84844" lon="2.36471">
        <ele>41.400001525879</ele>
        <time>2015-11-09T19:37:01.000Z</time>
      </trkpt>
      <trkpt lat="48.84839" lon="2.36476">
        <ele>41.400001525879</ele>
        <time>2015-11-09T19:37:03.000Z</time>
      </trkpt>
      <trkpt lat="48.84818" lon="2.3648">
        <ele>41</ele>
        <time>2015-11-09T19:37:13.000Z</time>
      </trkpt>
      <trkpt lat="48.848" lon="2.36488">
        <ele>41</ele>
        <time>2015-11-09T19:37:16.000Z</time>
      </trkpt>
      <trkpt lat="48.84783" lon="2.36501">
        <ele>41.200000762939</ele>
        <time>2015-11-09T19:37:20.000Z</time>
      </trkpt>
      <trkpt lat="48.84771" lon="2.36522">
        <ele>37.599998474121</ele>
        <time>2015-11-09T19:37:24.000Z</time>
      </trkpt>
      <trkpt lat="48.84758" lon="2.36545">
        <ele>33.599998474121</ele>
        <time>2015-11-09T19:37:29.000Z</time>
      </trkpt>
      <trkpt lat="48.84745" lon="2.36566">
        <ele>31.200000762939</ele>
        <time>2015-11-09T19:37:34.000Z</time>
      </trkpt>
      <trkpt lat="48.8473" lon="2.36585">
        <ele>31.39999961853</ele>
        <time>2015-11-09T19:37:39.000Z</time>
      </trkpt>
      <trkpt lat="48.84716" lon="2.36607">
        <ele>30.799999237061</ele>
        <time>2015-11-09T19:37:44.000Z</time>
      </trkpt>
      <trkpt lat="48.847" lon="2.36628">
        <ele>34.200000762939</ele>
        <time>2015-11-09T19:37:49.000Z</time>
      </trkpt>
      <trkpt lat="48.84685" lon="2.36646">
        <ele>36.799999237061</ele>
        <time>2015-11-09T19:37:54.000Z</time>
      </trkpt>
      <trkpt lat="48.84671" lon="2.36662">
        <ele>37.400001525879</ele>
        <time>2015-11-09T19:37:59.000Z</time>
      </trkpt>
      <trkpt lat="48.84653" lon="2.36682">
        <ele>38.200000762939</ele>
        <time>2015-11-09T19:38:04.000Z</time>
      </trkpt>
      <trkpt lat="48.84636" lon="2.36703">
        <ele>39.400001525879</ele>
        <time>2015-11-09T19:38:09.000Z</time>
      </trkpt>
      <trkpt lat="48.84621" lon="2.36723">
        <ele>42</ele>
        <time>2015-11-09T19:38:13.000Z</time>
      </trkpt>
      <trkpt lat="48.84606" lon="2.3674">
        <ele>44.200000762939</ele>
        <time>2015-11-09T19:38:17.000Z</time>
      </trkpt>
      <trkpt lat="48.84595" lon="2.36757">
        <ele>44.400001525879</ele>
        <time>2015-11-09T19:38:21.000Z</time>
      </trkpt>
      <trkpt lat="48.84592" lon="2.36767">
        <ele>44.200000762939</ele>
        <time>2015-11-09T19:38:23.000Z</time>
      </trkpt>
      <trkpt lat="48.84577" lon="2.3679">
        <ele>43.400001525879</ele>
        <time>2015-11-09T19:38:29.000Z</time>
      </trkpt>
      <trkpt lat="48.84571" lon="2.36798">
        <ele>43.200000762939</ele>
        <time>2015-11-09T19:38:31.000Z</time>
      </trkpt>
      <trkpt lat="48.8456" lon="2.36811">
        <ele>43.599998474121</ele>
        <time>2015-11-09T19:38:34.000Z</time>
      </trkpt>
      <trkpt lat="48.84545" lon="2.36832">
        <ele>44.599998474121</ele>
        <time>2015-11-09T19:38:39.000Z</time>
      </trkpt>
      <trkpt lat="48.84538" lon="2.36839">
        <ele>44</ele>
        <time>2015-11-09T19:38:43.000Z</time>
      </trkpt>
      <trkpt lat="48.84525" lon="2.36856">
        <ele>42.799999237061</ele>
        <time>2015-11-09T19:39:05.000Z</time>
      </trkpt>
      <trkpt lat="48.84509" lon="2.36871">
        <ele>40</ele>
        <time>2015-11-09T19:39:11.000Z</time>
      </trkpt>
      <trkpt lat="48.84494" lon="2.36892">
        <ele>37.200000762939</ele>
        <time>2015-11-09T19:39:16.000Z</time>
      </trkpt>
      <trkpt lat="48.84476" lon="2.3691">
        <ele>36.400001525879</ele>
        <time>2015-11-09T19:39:21.000Z</time>
      </trkpt>
      <trkpt lat="48.84461" lon="2.36926">
        <ele>35.200000762939</ele>
        <time>2015-11-09T19:39:27.000Z</time>
      </trkpt>
      <trkpt lat="48.8445" lon="2.36948">
        <ele>34.799999237061</ele>
        <time>2015-11-09T19:39:33.000Z</time>
      </trkpt>
      <trkpt lat="48.84434" lon="2.3697">
        <ele>34.599998474121</ele>
        <time>2015-11-09T19:39:38.000Z</time>
      </trkpt>
      <trkpt lat="48.84418" lon="2.36991">
        <ele>35.200000762939</ele>
        <time>2015-11-09T19:39:43.000Z</time>
      </trkpt>
      <trkpt lat="48.84401" lon="2.3701">
        <ele>36</ele>
        <time>2015-11-09T19:39:48.000Z</time>
      </trkpt>
      <trkpt lat="48.84385" lon="2.37028">
        <ele>36.799999237061</ele>
        <time>2015-11-09T19:39:52.000Z</time>
      </trkpt>
      <trkpt lat="48.84372" lon="2.37049">
        <ele>38</ele>
        <time>2015-11-09T19:39:58.000Z</time>
      </trkpt>
      <trkpt lat="48.84377" lon="2.37075">
        <ele>38.799999237061</ele>
        <time>2015-11-09T19:40:05.000Z</time>
      </trkpt>
      <trkpt lat="48.84378" lon="2.3708">
        <ele>38.799999237061</ele>
        <time>2015-11-09T19:40:07.000Z</time>
      </trkpt>
      <trkpt lat="48.84364" lon="2.37096">
        <ele>40.200000762939</ele>
        <time>2015-11-09T19:40:17.000Z</time>
      </trkpt>
      <trkpt lat="48.84362" lon="2.37098">
        <ele>40.400001525879</ele>
        <time>2015-11-09T19:40:20.000Z</time>
      </trkpt>
      <trkpt lat="48.84344" lon="2.37109">
        <ele>39.599998474121</ele>
        <time>2015-11-09T19:40:34.000Z</time>
      </trkpt>
      <trkpt lat="48.84328" lon="2.37124">
        <ele>38.200000762939</ele>
        <time>2015-11-09T19:40:40.000Z</time>
      </trkpt>
      <trkpt lat="48.84311" lon="2.3714">
        <ele>38.400001525879</ele>
        <time>2015-11-09T19:40:46.000Z</time>
      </trkpt>
      <trkpt lat="48.84299" lon="2.3715">
        <ele>39.200000762939</ele>
        <time>2015-11-09T19:40:51.000Z</time>
      </trkpt>
      <trkpt lat="48.84284" lon="2.37167">
        <ele>40.400001525879</ele>
        <time>2015-11-09T19:41:00.000Z</time>
      </trkpt>
      <trkpt lat="48.84266" lon="2.37185">
        <ele>40</ele>
        <time>2015-11-09T19:41:09.000Z</time>
      </trkpt>
      <trkpt lat="48.84252" lon="2.37206">
        <ele>39.200000762939</ele>
        <time>2015-11-09T19:41:15.000Z</time>
      </trkpt>
      <trkpt lat="48.8424" lon="2.37233">
        <ele>39</ele>
        <time>2015-11-09T19:41:20.000Z</time>
      </trkpt>
      <trkpt lat="48.84229" lon="2.3726">
        <ele>38.400001525879</ele>
        <time>2015-11-09T19:41:24.000Z</time>
      </trkpt>
      <trkpt lat="48.84212" lon="2.37275">
        <ele>36.599998474121</ele>
        <time>2015-11-09T19:41:28.000Z</time>
      </trkpt>
      <trkpt lat="48.84189" lon="2.37281">
        <ele>35.599998474121</ele>
        <time>2015-11-09T19:41:32.000Z</time>
      </trkpt>
      <trkpt lat="48.84171" lon="2.37292">
        <ele>35</ele>
        <time>2015-11-09T19:41:36.000Z</time>
      </trkpt>
      <trkpt lat="48.84158" lon="2.37312">
        <ele>35.400001525879</ele>
        <time>2015-11-09T19:41:41.000Z</time>
      </trkpt>
      <trkpt lat="48.84148" lon="2.37331">
        <ele>36</ele>
        <time>2015-11-09T19:41:46.000Z</time>
      </trkpt>
      <trkpt lat="48.84132" lon="2.37345">
        <ele>35.400001525879</ele>
        <time>2015-11-09T19:41:51.000Z</time>
      </trkpt>
      <trkpt lat="48.84125" lon="2.37352">
        <ele>35.200000762939</ele>
        <time>2015-11-09T19:41:53.000Z</time>
      </trkpt>
      <trkpt lat="48.84109" lon="2.37372">
        <ele>36</ele>
        <time>2015-11-09T19:41:59.000Z</time>
      </trkpt>
      <trkpt lat="48.84092" lon="2.37381">
        <ele>35.799999237061</ele>
        <time>2015-11-09T19:42:20.000Z</time>
      </trkpt>
      <trkpt lat="48.84077" lon="2.37398">
        <ele>36</ele>
        <time>2015-11-09T19:42:30.000Z</time>
      </trkpt>
      <trkpt lat="48.84061" lon="2.37416">
        <ele>36</ele>
        <time>2015-11-09T19:42:37.000Z</time>
      </trkpt>
      <trkpt lat="48.84045" lon="2.37434">
        <ele>36.400001525879</ele>
        <time>2015-11-09T19:42:43.000Z</time>
      </trkpt>
      <trkpt lat="48.8403" lon="2.37451">
        <ele>36.200000762939</ele>
        <time>2015-11-09T19:42:48.000Z</time>
      </trkpt>
      <trkpt lat="48.84012" lon="2.37462">
        <ele>35.599998474121</ele>
        <time>2015-11-09T19:42:53.000Z</time>
      </trkpt>
      <trkpt lat="48.83995" lon="2.37475">
        <ele>35.200000762939</ele>
        <time>2015-11-09T19:42:59.000Z</time>
      </trkpt>
      <trkpt lat="48.8398" lon="2.37493">
        <ele>34.400001525879</ele>
        <time>2015-11-09T19:43:04.000Z</time>
      </trkpt>
      <trkpt lat="48.83965" lon="2.37511">
        <ele>33.400001525879</ele>
        <time>2015-11-09T19:43:09.000Z</time>
      </trkpt>
      <trkpt lat="48.83949" lon="2.37531">
        <ele>34.599998474121</ele>
        <time>2015-11-09T19:43:14.000Z</time>
      </trkpt>
      <trkpt lat="48.83935" lon="2.37549">
        <ele>37.400001525879</ele>
        <time>2015-11-09T19:43:19.000Z</time>
      </trkpt>
      <trkpt lat="48.83919" lon="2.37567">
        <ele>40</ele>
        <time>2015-11-09T19:43:24.000Z</time>
      </trkpt>
      <trkpt lat="48.83906" lon="2.37591">
        <ele>39.200000762939</ele>
        <time>2015-11-09T19:43:30.000Z</time>
      </trkpt>
      <trkpt lat="48.83899" lon="2.37609">
        <ele>39.200000762939</ele>
        <time>2015-11-09T19:43:36.000Z</time>
      </trkpt>
      <trkpt lat="48.83885" lon="2.37602">
        <ele>38.200000762939</ele>
        <time>2015-11-09T19:43:58.000Z</time>
      </trkpt>
      <trkpt lat="48.83872" lon="2.37582">
        <ele>37</ele>
        <time>2015-11-09T19:44:05.000Z</time>
      </trkpt>
      <trkpt lat="48.83862" lon="2.37568">
        <ele>36.599998474121</ele>
        <time>2015-11-09T19:44:13.000Z</time>
      </trkpt>
      <trkpt lat="48.8385" lon="2.37588">
        <ele>36</ele>
        <time>2015-11-09T19:44:21.000Z</time>
      </trkpt>
      <trkpt lat="48.83837" lon="2.37596">
        <ele>36</ele>
        <time>2015-11-09T19:44:29.000Z</time>
      </trkpt>
      <trkpt lat="48.83834" lon="2.37596">
        <ele>36</ele>
        <time>2015-11-09T19:44:31.000Z</time>
      </trkpt>
      <trkpt lat="48.83823" lon="2.37605">
        <ele>36</ele>
        <time>2015-11-09T19:45:09.000Z</time>
      </trkpt>
      <trkpt lat="48.83808" lon="2.37627">
        <ele>36.200000762939</ele>
        <time>2015-11-09T19:45:14.000Z</time>
      </trkpt>
      <trkpt lat="48.83791" lon="2.37647">
        <ele>35.599998474121</ele>
        <time>2015-11-09T19:45:19.000Z</time>
      </trkpt>
      <trkpt lat="48.83777" lon="2.37664">
        <ele>35.200000762939</ele>
        <time>2015-11-09T19:45:23.000Z</time>
      </trkpt>
      <trkpt lat="48.83761" lon="2.37681">
        <ele>36.599998474121</ele>
        <time>2015-11-09T19:45:27.000Z</time>
      </trkpt>
      <trkpt lat="48.83746" lon="2.37696">
        <ele>38.200000762939</ele>
        <time>2015-11-09T19:45:31.000Z</time>
      </trkpt>
      <trkpt lat="48.83728" lon="2.37712">
        <ele>39.200000762939</ele>
        <time>2015-11-09T19:45:36.000Z</time>
      </trkpt>
      <trkpt lat="48.83713" lon="2.37727">
        <ele>37.400001525879</ele>
        <time>2015-11-09T19:45:41.000Z</time>
      </trkpt>
      <trkpt lat="48.8371" lon="2.3773">
        <ele>37.200000762939</ele>
        <time>2015-11-09T19:45:42.000Z</time>
      </trkpt>
      <trkpt lat="48.83694" lon="2.37748">
        <ele>35.400001525879</ele>
        <time>2015-11-09T19:45:47.000Z</time>
      </trkpt>
      <trkpt lat="48.83691" lon="2.37753">
        <ele>35.200000762939</ele>
        <time>2015-11-09T19:45:48.000Z</time>
      </trkpt>
      <trkpt lat="48.83685" lon="2.37763">
        <ele>35.599998474121</ele>
        <time>2015-11-09T19:45:50.000Z</time>
      </trkpt>
      <trkpt lat="48.83672" lon="2.3778">
        <ele>36.200000762939</ele>
        <time>2015-11-09T19:45:54.000Z</time>
      </trkpt>
      <trkpt lat="48.83653" lon="2.378">
        <ele>36.400001525879</ele>
        <time>2015-11-09T19:45:59.000Z</time>
      </trkpt>
      <trkpt lat="48.83638" lon="2.37819">
        <ele>35.799999237061</ele>
        <time>2015-11-09T19:46:03.000Z</time>
      </trkpt>
      <trkpt lat="48.83631" lon="2.3783">
        <ele>35.400001525879</ele>
        <time>2015-11-09T19:46:05.000Z</time>
      </trkpt>
      <trkpt lat="48.83618" lon="2.37844">
        <ele>35.599998474121</ele>
        <time>2015-11-09T19:46:08.000Z</time>
      </trkpt>
      <trkpt lat="48.83604" lon="2.37863">
        <ele>38.200000762939</ele>
        <time>2015-11-09T19:46:12.000Z</time>
      </trkpt>
      <trkpt lat="48.83601" lon="2.37867">
        <ele>39</ele>
        <time>2015-11-09T19:46:13.000Z</time>
      </trkpt>
      <trkpt lat="48.83591" lon="2.37877">
        <ele>41</ele>
        <time>2015-11-09T19:46:17.000Z</time>
      </trkpt>
      <trkpt lat="48.83587" lon="2.37879">
        <ele>41.599998474121</ele>
        <time>2015-11-09T19:46:19.000Z</time>
      </trkpt>
      <trkpt lat="48.83573" lon="2.37881">
        <ele>43</ele>
        <time>2015-11-09T19:46:41.000Z</time>
      </trkpt>
      <trkpt lat="48.83557" lon="2.3786">
        <ele>41.400001525879</ele>
        <time>2015-11-09T19:46:47.000Z</time>
      </trkpt>
      <trkpt lat="48.83556" lon="2.37856">
        <ele>40.799999237061</ele>
        <time>2015-11-09T19:46:48.000Z</time>
      </trkpt>
      <trkpt lat="48.83544" lon="2.37833">
        <ele>38.599998474121</ele>
        <time>2015-11-09T19:46:53.000Z</time>
      </trkpt>
      <trkpt lat="48.83531" lon="2.37809">
        <ele>38</ele>
        <time>2015-11-09T19:46:57.000Z</time>
      </trkpt>
      <trkpt lat="48.83516" lon="2.37783">
        <ele>37.400001525879</ele>
        <time>2015-11-09T19:47:01.000Z</time>
      </trkpt>
      <trkpt lat="48.83508" lon="2.37771">
        <ele>37</ele>
        <time>2015-11-09T19:47:03.000Z</time>
      </trkpt>
      <trkpt lat="48.83497" lon="2.37749">
        <ele>36.400001525879</ele>
        <time>2015-11-09T19:47:07.000Z</time>
      </trkpt>
      <trkpt lat="48.83486" lon="2.37732">
        <ele>36.599998474121</ele>
        <time>2015-11-09T19:47:14.000Z</time>
      </trkpt>
      <trkpt lat="48.83486" lon="2.37727">
        <ele>36.400001525879</ele>
        <time>2015-11-09T19:47:38.000Z</time>
      </trkpt>
      <trkpt lat="48.83473" lon="2.37709">
        <ele>36.799999237061</ele>
        <time>2015-11-09T19:47:44.000Z</time>
      </trkpt>
      <trkpt lat="48.83458" lon="2.37699">
        <ele>37.599998474121</ele>
        <time>2015-11-09T19:47:56.000Z</time>
      </trkpt>
      <trkpt lat="48.83448" lon="2.37698">
        <ele>38</ele>
        <time>2015-11-09T19:48:02.000Z</time>
      </trkpt>
      <trkpt lat="48.8345" lon="2.37694">
        <ele>37.799999237061</ele>
        <time>2015-11-09T19:48:39.000Z</time>
      </trkpt>
      <trkpt lat="48.83459" lon="2.37679">
        <ele>37.200000762939</ele>
        <time>2015-11-09T19:48:49.000Z</time>
      </trkpt>
      <trkpt lat="48.83472" lon="2.3766">
        <ele>35.799999237061</ele>
        <time>2015-11-09T19:49:00.000Z</time>
      </trkpt>
      <trkpt lat="48.83473" lon="2.37659">
        <ele>35.799999237061</ele>
        <time>2015-11-09T19:49:02.000Z</time>
      </trkpt>
      <trkpt lat="48.83483" lon="2.37638">
        <ele>34</ele>
        <time>2015-11-09T19:49:14.000Z</time>
      </trkpt>
      <trkpt lat="48.83501" lon="2.37616">
        <ele>34.599998474121</ele>
        <time>2015-11-09T19:49:19.000Z</time>
      </trkpt>
      <trkpt lat="48.83516" lon="2.37595">
        <ele>36.200000762939</ele>
        <time>2015-11-09T19:49:23.000Z</time>
      </trkpt>
      <trkpt lat="48.83531" lon="2.37574">
        <ele>37</ele>
        <time>2015-11-09T19:49:27.000Z</time>
      </trkpt>
      <trkpt lat="48.83545" lon="2.37553">
        <ele>37</ele>
        <time>2015-11-09T19:49:31.000Z</time>
      </trkpt>
      <trkpt lat="48.8356" lon="2.37533">
        <ele>37.200000762939</ele>
        <time>2015-11-09T19:49:36.000Z</time>
      </trkpt>
      <trkpt lat="48.83573" lon="2.37508">
        <ele>40.200000762939</ele>
        <time>2015-11-09T19:49:41.000Z</time>
      </trkpt>
      <trkpt lat="48.8359" lon="2.37491">
        <ele>42.599998474121</ele>
        <time>2015-11-09T19:49:45.000Z</time>
      </trkpt>
      <trkpt lat="48.83609" lon="2.37475">
        <ele>42.599998474121</ele>
        <time>2015-11-09T19:49:49.000Z</time>
      </trkpt>
      <trkpt lat="48.83627" lon="2.37458">
        <ele>42</ele>
        <time>2015-11-09T19:49:53.000Z</time>
      </trkpt>
      <trkpt lat="48.83643" lon="2.37441">
        <ele>41.799999237061</ele>
        <time>2015-11-09T19:49:57.000Z</time>
      </trkpt>
      <trkpt lat="48.83651" lon="2.37434">
        <ele>42</ele>
        <time>2015-11-09T19:49:59.000Z</time>
      </trkpt>
      <trkpt lat="48.83667" lon="2.3742">
        <ele>42.599998474121</ele>
        <time>2015-11-09T19:50:03.000Z</time>
      </trkpt>
      <trkpt lat="48.83684" lon="2.37406">
        <ele>42.599998474121</ele>
        <time>2015-11-09T19:50:07.000Z</time>
      </trkpt>
      <trkpt lat="48.83688" lon="2.37403">
        <ele>42.799999237061</ele>
        <time>2015-11-09T19:50:08.000Z</time>
      </trkpt>
      <trkpt lat="48.83707" lon="2.37388">
        <ele>41.799999237061</ele>
        <time>2015-11-09T19:50:13.000Z</time>
      </trkpt>
      <trkpt lat="48.83713" lon="2.37384">
        <ele>41.400001525879</ele>
        <time>2015-11-09T19:50:15.000Z</time>
      </trkpt>
      <trkpt lat="48.83727" lon="2.37373">
        <ele>40.599998474121</ele>
        <time>2015-11-09T19:50:21.000Z</time>
      </trkpt>
      <trkpt lat="48.83744" lon="2.37355">
        <ele>39.599998474121</ele>
        <time>2015-11-09T19:50:28.000Z</time>
      </trkpt>
      <trkpt lat="48.83763" lon="2.37339">
        <ele>38.599998474121</ele>
        <time>2015-11-09T19:50:33.000Z</time>
      </trkpt>
      <trkpt lat="48.83779" lon="2.3732">
        <ele>37.400001525879</ele>
        <time>2015-11-09T19:50:37.000Z</time>
      </trkpt>
      <trkpt lat="48.83798" lon="2.37299">
        <ele>35.799999237061</ele>
        <time>2015-11-09T19:50:41.000Z</time>
      </trkpt>
      <trkpt lat="48.83813" lon="2.37283">
        <ele>34.599998474121</ele>
        <time>2015-11-09T19:50:44.000Z</time>
      </trkpt>
      <trkpt lat="48.83827" lon="2.37266">
        <ele>34.200000762939</ele>
        <time>2015-11-09T19:50:47.000Z</time>
      </trkpt>
      <trkpt lat="48.83844" lon="2.37243">
        <ele>33.400001525879</ele>
        <time>2015-11-09T19:50:51.000Z</time>
      </trkpt>
      <trkpt lat="48.8386" lon="2.37219">
        <ele>32.400001525879</ele>
        <time>2015-11-09T19:50:55.000Z</time>
      </trkpt>
      <trkpt lat="48.83873" lon="2.372">
        <ele>32</ele>
        <time>2015-11-09T19:50:58.000Z</time>
      </trkpt>
      <trkpt lat="48.83888" lon="2.37177">
        <ele>32.200000762939</ele>
        <time>2015-11-09T19:51:01.000Z</time>
      </trkpt>
      <trkpt lat="48.83903" lon="2.37153">
        <ele>32.799999237061</ele>
        <time>2015-11-09T19:51:04.000Z</time>
      </trkpt>
      <trkpt lat="48.83919" lon="2.37128">
        <ele>33.200000762939</ele>
        <time>2015-11-09T19:51:07.000Z</time>
      </trkpt>
      <trkpt lat="48.83936" lon="2.37105">
        <ele>33.799999237061</ele>
        <time>2015-11-09T19:51:10.000Z</time>
      </trkpt>
      <trkpt lat="48.83953" lon="2.37082">
        <ele>33.799999237061</ele>
        <time>2015-11-09T19:51:13.000Z</time>
      </trkpt>
      <trkpt lat="48.8397" lon="2.37058">
        <ele>33.400001525879</ele>
        <time>2015-11-09T19:51:16.000Z</time>
      </trkpt>
      <trkpt lat="48.83988" lon="2.37034">
        <ele>33</ele>
        <time>2015-11-09T19:51:19.000Z</time>
      </trkpt>
      <trkpt lat="48.84007" lon="2.37009">
        <ele>33</ele>
        <time>2015-11-09T19:51:22.000Z</time>
      </trkpt>
      <trkpt lat="48.84025" lon="2.36984">
        <ele>33.200000762939</ele>
        <time>2015-11-09T19:51:25.000Z</time>
      </trkpt>
      <trkpt lat="48.84032" lon="2.36975">
        <ele>33</ele>
        <time>2015-11-09T19:51:26.000Z</time>
      </trkpt>
      <trkpt lat="48.84052" lon="2.36949">
        <ele>32.799999237061</ele>
        <time>2015-11-09T19:51:29.000Z</time>
      </trkpt>
      <trkpt lat="48.84072" lon="2.36923">
        <ele>33.599998474121</ele>
        <time>2015-11-09T19:51:32.000Z</time>
      </trkpt>
      <trkpt lat="48.84091" lon="2.36897">
        <ele>34.400001525879</ele>
        <time>2015-11-09T19:51:35.000Z</time>
      </trkpt>
      <trkpt lat="48.84109" lon="2.36871">
        <ele>35.799999237061</ele>
        <time>2015-11-09T19:51:38.000Z</time>
      </trkpt>
      <trkpt lat="48.84127" lon="2.36845">
        <ele>35.799999237061</ele>
        <time>2015-11-09T19:51:41.000Z</time>
      </trkpt>
      <trkpt lat="48.84143" lon="2.36823">
        <ele>36.599998474121</ele>
        <time>2015-11-09T19:51:44.000Z</time>
      </trkpt>
      <trkpt lat="48.84157" lon="2.36804">
        <ele>35.799999237061</ele>
        <time>2015-11-09T19:51:47.000Z</time>
      </trkpt>
      <trkpt lat="48.84171" lon="2.36788">
        <ele>35.200000762939</ele>
        <time>2015-11-09T19:51:51.000Z</time>
      </trkpt>
      <trkpt lat="48.84184" lon="2.36804">
        <ele>34.799999237061</ele>
        <time>2015-11-09T19:51:58.000Z</time>
      </trkpt>
      <trkpt lat="48.8419" lon="2.36816">
        <ele>34.799999237061</ele>
        <time>2015-11-09T19:53:27.000Z</time>
      </trkpt>
      <trkpt lat="48.84191" lon="2.36821">
        <ele>34.799999237061</ele>
        <time>2015-11-09T19:54:51.000Z</time>
      </trkpt>
      <trkpt lat="48.84192" lon="2.36823">
        <ele>34.799999237061</ele>
        <time>2015-11-09T19:54:52.000Z</time>
      </trkpt>
      <trkpt lat="48.84194" lon="2.36826">
        <ele>34.599998474121</ele>
        <time>2015-11-09T19:54:53.000Z</time>
      </trkpt>
      <trkpt lat="48.84206" lon="2.36848">
        <ele>33.799999237061</ele>
        <time>2015-11-09T19:55:00.000Z</time>
      </trkpt>
      <trkpt lat="48.84219" lon="2.3687">
        <ele>32</ele>
        <time>2015-11-09T19:55:06.000Z</time>
      </trkpt>
      <trkpt lat="48.84232" lon="2.36895">
        <ele>29.799999237061</ele>
        <time>2015-11-09T19:55:12.000Z</time>
      </trkpt>
      <trkpt lat="48.84244" lon="2.36918">
        <ele>28.39999961853</ele>
        <time>2015-11-09T19:55:17.000Z</time>
      </trkpt>
      <trkpt lat="48.84257" lon="2.3694">
        <ele>29.200000762939</ele>
        <time>2015-11-09T19:55:22.000Z</time>
      </trkpt>
      <trkpt lat="48.84269" lon="2.36963">
        <ele>30</ele>
        <time>2015-11-09T19:55:27.000Z</time>
      </trkpt>
      <trkpt lat="48.84282" lon="2.36988">
        <ele>31.39999961853</ele>
        <time>2015-11-09T19:55:33.000Z</time>
      </trkpt>
      <trkpt lat="48.84294" lon="2.37011">
        <ele>33</ele>
        <time>2015-11-09T19:55:39.000Z</time>
      </trkpt>
      <trkpt lat="48.84306" lon="2.37029">
        <ele>34.599998474121</ele>
        <time>2015-11-09T19:55:47.000Z</time>
      </trkpt>
      <trkpt lat="48.84313" lon="2.37023">
        <ele>34.799999237061</ele>
        <time>2015-11-09T19:55:51.000Z</time>
      </trkpt>
      <trkpt lat="48.84321" lon="2.37012">
        <ele>35</ele>
        <time>2015-11-09T19:55:59.000Z</time>
      </trkpt>
      <trkpt lat="48.8433" lon="2.36998">
        <ele>35.200000762939</ele>
        <time>2015-11-09T19:56:45.000Z</time>
      </trkpt>
      <trkpt lat="48.84344" lon="2.36977">
        <ele>35.400001525879</ele>
        <time>2015-11-09T19:56:53.000Z</time>
      </trkpt>
      <trkpt lat="48.84361" lon="2.3696">
        <ele>35</ele>
        <time>2015-11-09T19:57:01.000Z</time>
      </trkpt>
      <trkpt lat="48.84375" lon="2.36942">
        <ele>33.799999237061</ele>
        <time>2015-11-09T19:57:10.000Z</time>
      </trkpt>
      <trkpt lat="48.84389" lon="2.3692">
        <ele>33.400001525879</ele>
        <time>2015-11-09T19:57:20.000Z</time>
      </trkpt>
      <trkpt lat="48.84399" lon="2.36897">
        <ele>33.799999237061</ele>
        <time>2015-11-09T19:57:29.000Z</time>
      </trkpt>
      <trkpt lat="48.84409" lon="2.3687">
        <ele>33.599998474121</ele>
        <time>2015-11-09T19:57:37.000Z</time>
      </trkpt>
      <trkpt lat="48.84421" lon="2.36843">
        <ele>32</ele>
        <time>2015-11-09T19:57:43.000Z</time>
      </trkpt>
      <trkpt lat="48.84424" lon="2.36838">
        <ele>31.799999237061</ele>
        <time>2015-11-09T19:57:44.000Z</time>
      </trkpt>
      <trkpt lat="48.84437" lon="2.36813">
        <ele>30.799999237061</ele>
        <time>2015-11-09T19:57:49.000Z</time>
      </trkpt>
      <trkpt lat="48.84452" lon="2.36788">
        <ele>32.400001525879</ele>
        <time>2015-11-09T19:57:54.000Z</time>
      </trkpt>
      <trkpt lat="48.84469" lon="2.36766">
        <ele>34.200000762939</ele>
        <time>2015-11-09T19:57:59.000Z</time>
      </trkpt>
      <trkpt lat="48.84482" lon="2.36745">
        <ele>34.599998474121</ele>
        <time>2015-11-09T19:58:03.000Z</time>
      </trkpt>
      <trkpt lat="48.84496" lon="2.36724">
        <ele>36.400001525879</ele>
        <time>2015-11-09T19:58:07.000Z</time>
      </trkpt>
      <trkpt lat="48.84512" lon="2.36701">
        <ele>36.200000762939</ele>
        <time>2015-11-09T19:58:11.000Z</time>
      </trkpt>
      <trkpt lat="48.8453" lon="2.36679">
        <ele>36.200000762939</ele>
        <time>2015-11-09T19:58:15.000Z</time>
      </trkpt>
      <trkpt lat="48.84543" lon="2.36656">
        <ele>34.599998474121</ele>
        <time>2015-11-09T19:58:19.000Z</time>
      </trkpt>
      <trkpt lat="48.84546" lon="2.36649">
        <ele>34</ele>
        <time>2015-11-09T19:58:20.000Z</time>
      </trkpt>
      <trkpt lat="48.84558" lon="2.36633">
        <ele>32.799999237061</ele>
        <time>2015-11-09T19:58:26.000Z</time>
      </trkpt>
      <trkpt lat="48.84571" lon="2.36618">
        <ele>32</ele>
        <time>2015-11-09T19:58:31.000Z</time>
      </trkpt>
      <trkpt lat="48.84582" lon="2.36608">
        <ele>31.799999237061</ele>
        <time>2015-11-09T19:58:35.000Z</time>
      </trkpt>
      <trkpt lat="48.84597" lon="2.36592">
        <ele>31.39999961853</ele>
        <time>2015-11-09T19:58:41.000Z</time>
      </trkpt>
      <trkpt lat="48.84613" lon="2.36577">
        <ele>30.799999237061</ele>
        <time>2015-11-09T19:58:48.000Z</time>
      </trkpt>
      <trkpt lat="48.84629" lon="2.3656">
        <ele>29.799999237061</ele>
        <time>2015-11-09T19:58:56.000Z</time>
      </trkpt>
      <trkpt lat="48.84646" lon="2.36544">
        <ele>28.799999237061</ele>
        <time>2015-11-09T19:59:03.000Z</time>
      </trkpt>
      <trkpt lat="48.84662" lon="2.36529">
        <ele>30.39999961853</ele>
        <time>2015-11-09T19:59:09.000Z</time>
      </trkpt>
      <trkpt lat="48.84678" lon="2.36514">
        <ele>32.599998474121</ele>
        <time>2015-11-09T19:59:15.000Z</time>
      </trkpt>
      <trkpt lat="48.8469" lon="2.36503">
        <ele>33.799999237061</ele>
        <time>2015-11-09T19:59:21.000Z</time>
      </trkpt>
      <trkpt lat="48.84706" lon="2.36493">
        <ele>35.200000762939</ele>
        <time>2015-11-09T19:59:44.000Z</time>
      </trkpt>
      <trkpt lat="48.84723" lon="2.36482">
        <ele>36.400001525879</ele>
        <time>2015-11-09T20:00:01.000Z</time>
      </trkpt>
      <trkpt lat="48.84737" lon="2.36465">
        <ele>37.200000762939</ele>
        <time>2015-11-09T20:00:08.000Z</time>
      </trkpt>
      <trkpt lat="48.84753" lon="2.3645">
        <ele>37.200000762939</ele>
        <time>2015-11-09T20:00:14.000Z</time>
      </trkpt>
      <trkpt lat="48.84767" lon="2.36432">
        <ele>36.799999237061</ele>
        <time>2015-11-09T20:00:19.000Z</time>
      </trkpt>
      <trkpt lat="48.8478" lon="2.36412">
        <ele>36.200000762939</ele>
        <time>2015-11-09T20:00:25.000Z</time>
      </trkpt>
      <trkpt lat="48.84786" lon="2.36385">
        <ele>33.799999237061</ele>
        <time>2015-11-09T20:00:32.000Z</time>
      </trkpt>
      <trkpt lat="48.848" lon="2.36364">
        <ele>32.400001525879</ele>
        <time>2015-11-09T20:00:38.000Z</time>
      </trkpt>
      <trkpt lat="48.84813" lon="2.36345">
        <ele>32.599998474121</ele>
        <time>2015-11-09T20:00:43.000Z</time>
      </trkpt>
      <trkpt lat="48.84827" lon="2.36323">
        <ele>33.400001525879</ele>
        <time>2015-11-09T20:00:48.000Z</time>
      </trkpt>
      <trkpt lat="48.84841" lon="2.36305">
        <ele>34.599998474121</ele>
        <time>2015-11-09T20:00:53.000Z</time>
      </trkpt>
      <trkpt lat="48.84856" lon="2.36285">
        <ele>34.799999237061</ele>
        <time>2015-11-09T20:00:58.000Z</time>
      </trkpt>
      <trkpt lat="48.84871" lon="2.36265">
        <ele>35.200000762939</ele>
        <time>2015-11-09T20:01:03.000Z</time>
      </trkpt>
      <trkpt lat="48.84887" lon="2.36246">
        <ele>36.200000762939</ele>
        <time>2015-11-09T20:01:09.000Z</time>
      </trkpt>
      <trkpt lat="48.84901" lon="2.36225">
        <ele>36.400001525879</ele>
        <time>2015-11-09T20:01:15.000Z</time>
      </trkpt>
      <trkpt lat="48.84915" lon="2.36204">
        <ele>37.799999237061</ele>
        <time>2015-11-09T20:01:21.000Z</time>
      </trkpt>
      <trkpt lat="48.84927" lon="2.36183">
        <ele>40</ele>
        <time>2015-11-09T20:01:26.000Z</time>
      </trkpt>
      <trkpt lat="48.84942" lon="2.36166">
        <ele>41.799999237061</ele>
        <time>2015-11-09T20:01:31.000Z</time>
      </trkpt>
      <trkpt lat="48.84959" lon="2.36145">
        <ele>39.400001525879</ele>
        <time>2015-11-09T20:01:37.000Z</time>
      </trkpt>
      <trkpt lat="48.84978" lon="2.36133">
        <ele>37.400001525879</ele>
        <time>2015-11-09T20:01:43.000Z</time>
      </trkpt>
      <trkpt lat="48.84999" lon="2.36133">
        <ele>37</ele>
        <time>2015-11-09T20:01:49.000Z</time>
      </trkpt>
      <trkpt lat="48.85018" lon="2.36134">
        <ele>37.599998474121</ele>
        <time>2015-11-09T20:01:54.000Z</time>
      </trkpt>
      <trkpt lat="48.85038" lon="2.36136">
        <ele>37</ele>
        <time>2015-11-09T20:02:00.000Z</time>
      </trkpt>
      <trkpt lat="48.85056" lon="2.36136">
        <ele>36.400001525879</ele>
        <time>2015-11-09T20:02:06.000Z</time>
      </trkpt>
      <trkpt lat="48.85063" lon="2.36131">
        <ele>36.200000762939</ele>
        <time>2015-11-09T20:02:10.000Z</time>
      </trkpt>
      <trkpt lat="48.85063" lon="2.36124">
        <ele>36</ele>
        <time>2015-11-09T20:02:14.000Z</time>
      </trkpt>
      <trkpt lat="48.85062" lon="2.36118">
        <ele>36.200000762939</ele>
        <time>2015-11-09T20:02:16.000Z</time>
      </trkpt>
      <trkpt lat="48.85056" lon="2.361">
        <ele>36.599998474121</ele>
        <time>2015-11-09T20:02:21.000Z</time>
      </trkpt>
      <trkpt lat="48.8505" lon="2.36073">
        <ele>36.599998474121</ele>
        <time>2015-11-09T20:02:27.000Z</time>
      </trkpt>
      <trkpt lat="48.85045" lon="2.36043">
        <ele>35.200000762939</ele>
        <time>2015-11-09T20:02:34.000Z</time>
      </trkpt>
      <trkpt lat="48.85042" lon="2.36014">
        <ele>34</ele>
        <time>2015-11-09T20:02:39.000Z</time>
      </trkpt>
      <trkpt lat="48.85036" lon="2.35983">
        <ele>35.200000762939</ele>
        <time>2015-11-09T20:02:44.000Z</time>
      </trkpt>
      <trkpt lat="48.85026" lon="2.35952">
        <ele>37.599998474121</ele>
        <time>2015-11-09T20:02:49.000Z</time>
      </trkpt>
      <trkpt lat="48.85018" lon="2.35925">
        <ele>39.400001525879</ele>
        <time>2015-11-09T20:02:53.000Z</time>
      </trkpt>
      <trkpt lat="48.8501" lon="2.359">
        <ele>39.400001525879</ele>
        <time>2015-11-09T20:02:57.000Z</time>
      </trkpt>
      <trkpt lat="48.85003" lon="2.35874">
        <ele>38.599998474121</ele>
        <time>2015-11-09T20:03:01.000Z</time>
      </trkpt>
      <trkpt lat="48.84995" lon="2.35847">
        <ele>37.599998474121</ele>
        <time>2015-11-09T20:03:05.000Z</time>
      </trkpt>
      <trkpt lat="48.84985" lon="2.3582">
        <ele>36.400001525879</ele>
        <time>2015-11-09T20:03:09.000Z</time>
      </trkpt>
      <trkpt lat="48.84977" lon="2.35794">
        <ele>35</ele>
        <time>2015-11-09T20:03:13.000Z</time>
      </trkpt>
      <trkpt lat="48.84969" lon="2.3577">
        <ele>33.599998474121</ele>
        <time>2015-11-09T20:03:17.000Z</time>
      </trkpt>
      <trkpt lat="48.8496" lon="2.35745">
        <ele>31.799999237061</ele>
        <time>2015-11-09T20:03:21.000Z</time>
      </trkpt>
      <trkpt lat="48.84952" lon="2.35719">
        <ele>31.799999237061</ele>
        <time>2015-11-09T20:03:25.000Z</time>
      </trkpt>
      <trkpt lat="48.84944" lon="2.35693">
        <ele>31.799999237061</ele>
        <time>2015-11-09T20:03:29.000Z</time>
      </trkpt>
      <trkpt lat="48.84941" lon="2.35676">
        <ele>32</ele>
        <time>2015-11-09T20:03:32.000Z</time>
      </trkpt>
      <trkpt lat="48.84945" lon="2.35657">
        <ele>32.200000762939</ele>
        <time>2015-11-09T20:03:36.000Z</time>
      </trkpt>
      <trkpt lat="48.84952" lon="2.35631">
        <ele>33</ele>
        <time>2015-11-09T20:03:41.000Z</time>
      </trkpt>
      <trkpt lat="48.84959" lon="2.35606">
        <ele>33.799999237061</ele>
        <time>2015-11-09T20:03:45.000Z</time>
      </trkpt>
      <trkpt lat="48.84968" lon="2.35577">
        <ele>34</ele>
        <time>2015-11-09T20:03:49.000Z</time>
      </trkpt>
      <trkpt lat="48.84978" lon="2.35546">
        <ele>36.799999237061</ele>
        <time>2015-11-09T20:03:53.000Z</time>
      </trkpt>
      <trkpt lat="48.84986" lon="2.35519">
        <ele>37.599998474121</ele>
        <time>2015-11-09T20:03:57.000Z</time>
      </trkpt>
      <trkpt lat="48.84991" lon="2.35507">
        <ele>37.400001525879</ele>
        <time>2015-11-09T20:03:59.000Z</time>
      </trkpt>
      <trkpt lat="48.85005" lon="2.35498">
        <ele>36</ele>
        <time>2015-11-09T20:04:03.000Z</time>
      </trkpt>
      <trkpt lat="48.85009" lon="2.35501">
        <ele>35.400001525879</ele>
        <time>2015-11-09T20:04:04.000Z</time>
      </trkpt>
      <trkpt lat="48.85025" lon="2.35515">
        <ele>33.599998474121</ele>
        <time>2015-11-09T20:04:07.000Z</time>
      </trkpt>
      <trkpt lat="48.85044" lon="2.35533">
        <ele>34.599998474121</ele>
        <time>2015-11-09T20:04:11.000Z</time>
      </trkpt>
      <trkpt lat="48.85056" lon="2.35544">
        <ele>35.200000762939</ele>
        <time>2015-11-09T20:04:14.000Z</time>
      </trkpt>
      <trkpt lat="48.85073" lon="2.3556">
        <ele>36</ele>
        <time>2015-11-09T20:04:19.000Z</time>
      </trkpt>
      <trkpt lat="48.85092" lon="2.35578">
        <ele>37</ele>
        <time>2015-11-09T20:04:24.000Z</time>
      </trkpt>
      <trkpt lat="48.85106" lon="2.35592">
        <ele>38.799999237061</ele>
        <time>2015-11-09T20:04:28.000Z</time>
      </trkpt>
      <trkpt lat="48.85113" lon="2.35596">
        <ele>39.200000762939</ele>
        <time>2015-11-09T20:04:30.000Z</time>
      </trkpt>
      <trkpt lat="48.85131" lon="2.35608">
        <ele>40.599998474121</ele>
        <time>2015-11-09T20:04:35.000Z</time>
      </trkpt>
      <trkpt lat="48.85147" lon="2.35622">
        <ele>42</ele>
        <time>2015-11-09T20:04:39.000Z</time>
      </trkpt>
      <trkpt lat="48.85165" lon="2.35634">
        <ele>43.400001525879</ele>
        <time>2015-11-09T20:04:43.000Z</time>
      </trkpt>
      <trkpt lat="48.85181" lon="2.35649">
        <ele>45</ele>
        <time>2015-11-09T20:04:47.000Z</time>
      </trkpt>
      <trkpt lat="48.85196" lon="2.35663">
        <ele>45.799999237061</ele>
        <time>2015-11-09T20:04:51.000Z</time>
      </trkpt>
      <trkpt lat="48.85215" lon="2.35682">
        <ele>44.200000762939</ele>
        <time>2015-11-09T20:04:56.000Z</time>
      </trkpt>
      <trkpt lat="48.85231" lon="2.35698">
        <ele>42.599998474121</ele>
        <time>2015-11-09T20:05:01.000Z</time>
      </trkpt>
      <trkpt lat="48.85234" lon="2.357">
        <ele>42.400001525879</ele>
        <time>2015-11-09T20:05:02.000Z</time>
      </trkpt>
      <trkpt lat="48.85246" lon="2.35716">
        <ele>41</ele>
        <time>2015-11-09T20:05:09.000Z</time>
      </trkpt>
      <trkpt lat="48.85249" lon="2.3572">
        <ele>40.599998474121</ele>
        <time>2015-11-09T20:05:11.000Z</time>
      </trkpt>
      <trkpt lat="48.85254" lon="2.35725">
        <ele>40</ele>
        <time>2015-11-09T20:05:13.000Z</time>
      </trkpt>
      <trkpt lat="48.8527" lon="2.3574">
        <ele>38.599998474121</ele>
        <time>2015-11-09T20:05:19.000Z</time>
      </trkpt>
      <trkpt lat="48.85287" lon="2.35756">
        <ele>38</ele>
        <time>2015-11-09T20:05:28.000Z</time>
      </trkpt>
      <trkpt lat="48.85304" lon="2.3577">
        <ele>37.799999237061</ele>
        <time>2015-11-09T20:05:35.000Z</time>
      </trkpt>
      <trkpt lat="48.85321" lon="2.35781">
        <ele>37.599998474121</ele>
        <time>2015-11-09T20:05:47.000Z</time>
      </trkpt>
      <trkpt lat="48.85327" lon="2.35785">
        <ele>37.599998474121</ele>
        <time>2015-11-09T20:05:52.000Z</time>
      </trkpt>
      <trkpt lat="48.85341" lon="2.35766">
        <ele>37.799999237061</ele>
        <time>2015-11-09T20:06:03.000Z</time>
      </trkpt>
      <trkpt lat="48.85343" lon="2.35761">
        <ele>37.799999237061</ele>
        <time>2015-11-09T20:06:04.000Z</time>
      </trkpt>
      <trkpt lat="48.85354" lon="2.35732">
        <ele>38.400001525879</ele>
        <time>2015-11-09T20:06:09.000Z</time>
      </trkpt>
      <trkpt lat="48.85364" lon="2.35706">
        <ele>38.599998474121</ele>
        <time>2015-11-09T20:06:13.000Z</time>
      </trkpt>
      <trkpt lat="48.85375" lon="2.35677">
        <ele>39.200000762939</ele>
        <time>2015-11-09T20:06:17.000Z</time>
      </trkpt>
      <trkpt lat="48.85387" lon="2.35646">
        <ele>39</ele>
        <time>2015-11-09T20:06:21.000Z</time>
      </trkpt>
      <trkpt lat="48.85389" lon="2.35637">
        <ele>38.799999237061</ele>
        <time>2015-11-09T20:06:22.000Z</time>
      </trkpt>
      <trkpt lat="48.85401" lon="2.35605">
        <ele>38.200000762939</ele>
        <time>2015-11-09T20:06:26.000Z</time>
      </trkpt>
      <trkpt lat="48.85412" lon="2.35574">
        <ele>38.200000762939</ele>
        <time>2015-11-09T20:06:30.000Z</time>
      </trkpt>
      <trkpt lat="48.85421" lon="2.35545">
        <ele>38.400001525879</ele>
        <time>2015-11-09T20:06:34.000Z</time>
      </trkpt>
      <trkpt lat="48.8543" lon="2.35519">
        <ele>36.599998474121</ele>
        <time>2015-11-09T20:06:38.000Z</time>
      </trkpt>
      <trkpt lat="48.85437" lon="2.35492">
        <ele>35</ele>
        <time>2015-11-09T20:06:43.000Z</time>
      </trkpt>
      <trkpt lat="48.85431" lon="2.35478">
        <ele>35</ele>
        <time>2015-11-09T20:06:47.000Z</time>
      </trkpt>
      <trkpt lat="48.85429" lon="2.35476">
        <ele>35.200000762939</ele>
        <time>2015-11-09T20:06:48.000Z</time>
      </trkpt>
      <trkpt lat="48.85413" lon="2.3546">
        <ele>36</ele>
        <time>2015-11-09T20:06:55.000Z</time>
      </trkpt>
      <trkpt lat="48.85397" lon="2.35442">
        <ele>37</ele>
        <time>2015-11-09T20:07:01.000Z</time>
      </trkpt>
      <trkpt lat="48.8538" lon="2.35426">
        <ele>38</ele>
        <time>2015-11-09T20:07:07.000Z</time>
      </trkpt>
      <trkpt lat="48.85364" lon="2.35411">
        <ele>38.799999237061</ele>
        <time>2015-11-09T20:07:13.000Z</time>
      </trkpt>
      <trkpt lat="48.85348" lon="2.35394">
        <ele>39.200000762939</ele>
        <time>2015-11-09T20:07:21.000Z</time>
      </trkpt>
      <trkpt lat="48.85343" lon="2.35384">
        <ele>39</ele>
        <time>2015-11-09T20:07:27.000Z</time>
      </trkpt>
      <trkpt lat="48.85327" lon="2.35372">
        <ele>39.799999237061</ele>
        <time>2015-11-09T20:07:37.000Z</time>
      </trkpt>
      <trkpt lat="48.85308" lon="2.35355">
        <ele>40.400001525879</ele>
        <time>2015-11-09T20:07:43.000Z</time>
      </trkpt>
      <trkpt lat="48.85293" lon="2.3534">
        <ele>40.599998474121</ele>
        <time>2015-11-09T20:07:49.000Z</time>
      </trkpt>
      <trkpt lat="48.85286" lon="2.35312">
        <ele>39.599998474121</ele>
        <time>2015-11-09T20:07:57.000Z</time>
      </trkpt>
      <trkpt lat="48.85277" lon="2.35287">
        <ele>38.799999237061</ele>
        <time>2015-11-09T20:08:03.000Z</time>
      </trkpt>
      <trkpt lat="48.85271" lon="2.35257">
        <ele>37.599998474121</ele>
        <time>2015-11-09T20:08:09.000Z</time>
      </trkpt>
      <trkpt lat="48.85267" lon="2.35229">
        <ele>37</ele>
        <time>2015-11-09T20:08:16.000Z</time>
      </trkpt>
      <trkpt lat="48.85266" lon="2.35224">
        <ele>37.200000762939</ele>
        <time>2015-11-09T20:08:19.000Z</time>
      </trkpt>
      <trkpt lat="48.85254" lon="2.35219">
        <ele>35.799999237061</ele>
        <time>2015-11-09T20:08:23.000Z</time>
      </trkpt>
      <trkpt lat="48.85237" lon="2.35208">
        <ele>33.799999237061</ele>
        <time>2015-11-09T20:08:27.000Z</time>
      </trkpt>
      <trkpt lat="48.85232" lon="2.35205">
        <ele>33.200000762939</ele>
        <time>2015-11-09T20:08:28.000Z</time>
      </trkpt>
      <trkpt lat="48.8521" lon="2.35192">
        <ele>31.39999961853</ele>
        <time>2015-11-09T20:08:32.000Z</time>
      </trkpt>
      <trkpt lat="48.85192" lon="2.35181">
        <ele>30</ele>
        <time>2015-11-09T20:08:35.000Z</time>
      </trkpt>
      <trkpt lat="48.85173" lon="2.35168">
        <ele>30.200000762939</ele>
        <time>2015-11-09T20:08:39.000Z</time>
      </trkpt>
      <trkpt lat="48.85161" lon="2.3516">
        <ele>31</ele>
        <time>2015-11-09T20:08:42.000Z</time>
      </trkpt>
      <trkpt lat="48.85144" lon="2.35149">
        <ele>32.599998474121</ele>
        <time>2015-11-09T20:08:47.000Z</time>
      </trkpt>
      <trkpt lat="48.85125" lon="2.35136">
        <ele>34.599998474121</ele>
        <time>2015-11-09T20:08:53.000Z</time>
      </trkpt>
      <trkpt lat="48.85123" lon="2.35134">
        <ele>34.799999237061</ele>
        <time>2015-11-09T20:08:54.000Z</time>
      </trkpt>
      <trkpt lat="48.85119" lon="2.35122">
        <ele>35.799999237061</ele>
        <time>2015-11-09T20:08:58.000Z</time>
      </trkpt>
      <trkpt lat="48.85124" lon="2.35099">
        <ele>36.799999237061</ele>
        <time>2015-11-09T20:09:35.000Z</time>
      </trkpt>
      <trkpt lat="48.85133" lon="2.35072">
        <ele>38</ele>
        <time>2015-11-09T20:09:41.000Z</time>
      </trkpt>
      <trkpt lat="48.85142" lon="2.35048">
        <ele>38.400001525879</ele>
        <time>2015-11-09T20:09:46.000Z</time>
      </trkpt>
      <trkpt lat="48.85152" lon="2.3502">
        <ele>38.799999237061</ele>
        <time>2015-11-09T20:09:51.000Z</time>
      </trkpt>
      <trkpt lat="48.85163" lon="2.34992">
        <ele>38.599998474121</ele>
        <time>2015-11-09T20:09:56.000Z</time>
      </trkpt>
      <trkpt lat="48.85173" lon="2.34965">
        <ele>38.200000762939</ele>
        <time>2015-11-09T20:10:00.000Z</time>
      </trkpt>
      <trkpt lat="48.85186" lon="2.34938">
        <ele>38.599998474121</ele>
        <time>2015-11-09T20:10:04.000Z</time>
      </trkpt>
      <trkpt lat="48.85198" lon="2.34911">
        <ele>39.200000762939</ele>
        <time>2015-11-09T20:10:08.000Z</time>
      </trkpt>
      <trkpt lat="48.85206" lon="2.34891">
        <ele>40.400001525879</ele>
        <time>2015-11-09T20:10:11.000Z</time>
      </trkpt>
      <trkpt lat="48.85217" lon="2.3487">
        <ele>41.400001525879</ele>
        <time>2015-11-09T20:10:15.000Z</time>
      </trkpt>
      <trkpt lat="48.8522" lon="2.34864">
        <ele>41.799999237061</ele>
        <time>2015-11-09T20:10:16.000Z</time>
      </trkpt>
      <trkpt lat="48.85231" lon="2.3484">
        <ele>39.200000762939</ele>
        <time>2015-11-09T20:10:21.000Z</time>
      </trkpt>
      <trkpt lat="48.85234" lon="2.34834">
        <ele>38.400001525879</ele>
        <time>2015-11-09T20:10:23.000Z</time>
      </trkpt>
      <trkpt lat="48.85245" lon="2.34838">
        <ele>37.599998474121</ele>
        <time>2015-11-09T20:10:27.000Z</time>
      </trkpt>
      <trkpt lat="48.85251" lon="2.34843">
        <ele>37.200000762939</ele>
        <time>2015-11-09T20:10:29.000Z</time>
      </trkpt>
      <trkpt lat="48.85258" lon="2.34849">
        <ele>37</ele>
        <time>2015-11-09T20:10:31.000Z</time>
      </trkpt>
      <trkpt lat="48.85264" lon="2.34855">
        <ele>36.799999237061</ele>
        <time>2015-11-09T20:10:33.000Z</time>
      </trkpt>
      <trkpt lat="48.85275" lon="2.34867">
        <ele>36.599998474121</ele>
        <time>2015-11-09T20:10:37.000Z</time>
      </trkpt>
      <trkpt lat="48.85293" lon="2.34879">
        <ele>38</ele>
        <time>2015-11-09T20:10:42.000Z</time>
      </trkpt>
      <trkpt lat="48.8531" lon="2.34888">
        <ele>39</ele>
        <time>2015-11-09T20:10:47.000Z</time>
      </trkpt>
      <trkpt lat="48.85329" lon="2.34897">
        <ele>40.200000762939</ele>
        <time>2015-11-09T20:10:53.000Z</time>
      </trkpt>
      <trkpt lat="48.85347" lon="2.34907">
        <ele>41.200000762939</ele>
        <time>2015-11-09T20:10:59.000Z</time>
      </trkpt>
      <trkpt lat="48.85365" lon="2.34915">
        <ele>42.400001525879</ele>
        <time>2015-11-09T20:11:05.000Z</time>
      </trkpt>
      <trkpt lat="48.85383" lon="2.34927">
        <ele>42.799999237061</ele>
        <time>2015-11-09T20:11:09.000Z</time>
      </trkpt>
      <trkpt lat="48.854" lon="2.34939">
        <ele>43.200000762939</ele>
        <time>2015-11-09T20:11:13.000Z</time>
      </trkpt>
      <trkpt lat="48.85419" lon="2.34954">
        <ele>43.799999237061</ele>
        <time>2015-11-09T20:11:17.000Z</time>
      </trkpt>
      <trkpt lat="48.8544" lon="2.3497">
        <ele>44.400001525879</ele>
        <time>2015-11-09T20:11:21.000Z</time>
      </trkpt>
      <trkpt lat="48.85456" lon="2.34983">
        <ele>43.599998474121</ele>
        <time>2015-11-09T20:11:24.000Z</time>
      </trkpt>
      <trkpt lat="48.85475" lon="2.34993">
        <ele>42.799999237061</ele>
        <time>2015-11-09T20:11:28.000Z</time>
      </trkpt>
      <trkpt lat="48.85493" lon="2.35007">
        <ele>41.200000762939</ele>
        <time>2015-11-09T20:11:32.000Z</time>
      </trkpt>
      <trkpt lat="48.85502" lon="2.35016">
        <ele>40.200000762939</ele>
        <time>2015-11-09T20:11:34.000Z</time>
      </trkpt>
      <trkpt lat="48.85519" lon="2.35028">
        <ele>38.599998474121</ele>
        <time>2015-11-09T20:11:38.000Z</time>
      </trkpt>
      <trkpt lat="48.85536" lon="2.35038">
        <ele>37</ele>
        <time>2015-11-09T20:11:42.000Z</time>
      </trkpt>
      <trkpt lat="48.85554" lon="2.35048">
        <ele>35.400001525879</ele>
        <time>2015-11-09T20:11:46.000Z</time>
      </trkpt>
      <trkpt lat="48.85561" lon="2.35052">
        <ele>34.599998474121</ele>
        <time>2015-11-09T20:11:48.000Z</time>
      </trkpt>
      <trkpt lat="48.8558" lon="2.35062">
        <ele>32.799999237061</ele>
        <time>2015-11-09T20:11:53.000Z</time>
      </trkpt>
      <trkpt lat="48.85589" lon="2.35063">
        <ele>32.400001525879</ele>
        <time>2015-11-09T20:11:56.000Z</time>
      </trkpt>
      <trkpt lat="48.85591" lon="2.35062">
        <ele>32.200000762939</ele>
        <time>2015-11-09T20:11:57.000Z</time>
      </trkpt>
      <trkpt lat="48.85602" lon="2.35047">
        <ele>32.200000762939</ele>
        <time>2015-11-09T20:12:02.000Z</time>
      </trkpt>
      <trkpt lat="48.8561" lon="2.35029">
        <ele>33.400001525879</ele>
        <time>2015-11-09T20:12:06.000Z</time>
      </trkpt>
      <trkpt lat="48.85621" lon="2.35003">
        <ele>35.799999237061</ele>
        <time>2015-11-09T20:12:11.000Z</time>
      </trkpt>
      <trkpt lat="48.85627" lon="2.34986">
        <ele>37.799999237061</ele>
        <time>2015-11-09T20:12:14.000Z</time>
      </trkpt>
      <trkpt lat="48.85638" lon="2.34958">
        <ele>42</ele>
        <time>2015-11-09T20:12:19.000Z</time>
      </trkpt>
      <trkpt lat="48.85639" lon="2.34953">
        <ele>42.799999237061</ele>
        <time>2015-11-09T20:12:20.000Z</time>
      </trkpt>
      <trkpt lat="48.85647" lon="2.34931">
        <ele>44.400001525879</ele>
        <time>2015-11-09T20:12:24.000Z</time>
      </trkpt>
      <trkpt lat="48.85656" lon="2.34909">
        <ele>45</ele>
        <time>2015-11-09T20:12:29.000Z</time>
      </trkpt>
      <trkpt lat="48.85649" lon="2.34894">
        <ele>43.200000762939</ele>
        <time>2015-11-09T20:12:41.000Z</time>
      </trkpt>
      <trkpt lat="48.85637" lon="2.34878">
        <ele>41</ele>
        <time>2015-11-09T20:13:19.000Z</time>
      </trkpt>
      <trkpt lat="48.85621" lon="2.34865">
        <ele>39.400001525879</ele>
        <time>2015-11-09T20:13:25.000Z</time>
      </trkpt>
      <trkpt lat="48.85603" lon="2.34853">
        <ele>37.799999237061</ele>
        <time>2015-11-09T20:13:30.000Z</time>
      </trkpt>
      <trkpt lat="48.85584" lon="2.34842">
        <ele>37.400001525879</ele>
        <time>2015-11-09T20:13:35.000Z</time>
      </trkpt>
      <trkpt lat="48.85567" lon="2.3483">
        <ele>36.799999237061</ele>
        <time>2015-11-09T20:13:39.000Z</time>
      </trkpt>
      <trkpt lat="48.85551" lon="2.34818">
        <ele>37</ele>
        <time>2015-11-09T20:13:43.000Z</time>
      </trkpt>
      <trkpt lat="48.85531" lon="2.34807">
        <ele>37.200000762939</ele>
        <time>2015-11-09T20:13:47.000Z</time>
      </trkpt>
      <trkpt lat="48.8551" lon="2.34797">
        <ele>38.599998474121</ele>
        <time>2015-11-09T20:13:51.000Z</time>
      </trkpt>
      <trkpt lat="48.85488" lon="2.34787">
        <ele>40.400001525879</ele>
        <time>2015-11-09T20:13:55.000Z</time>
      </trkpt>
      <trkpt lat="48.85465" lon="2.34775">
        <ele>42.400001525879</ele>
        <time>2015-11-09T20:13:59.000Z</time>
      </trkpt>
      <trkpt lat="48.85443" lon="2.34764">
        <ele>44.200000762939</ele>
        <time>2015-11-09T20:14:03.000Z</time>
      </trkpt>
      <trkpt lat="48.85423" lon="2.34754">
        <ele>42.799999237061</ele>
        <time>2015-11-09T20:14:07.000Z</time>
      </trkpt>
      <trkpt lat="48.85405" lon="2.34742">
        <ele>41.400001525879</ele>
        <time>2015-11-09T20:14:11.000Z</time>
      </trkpt>
      <trkpt lat="48.85386" lon="2.34731">
        <ele>40</ele>
        <time>2015-11-09T20:14:15.000Z</time>
      </trkpt>
      <trkpt lat="48.85367" lon="2.34724">
        <ele>38.799999237061</ele>
        <time>2015-11-09T20:14:19.000Z</time>
      </trkpt>
      <trkpt lat="48.8535" lon="2.34713">
        <ele>38.599998474121</ele>
        <time>2015-11-09T20:14:23.000Z</time>
      </trkpt>
      <trkpt lat="48.85335" lon="2.34701">
        <ele>40.200000762939</ele>
        <time>2015-11-09T20:14:27.000Z</time>
      </trkpt>
      <trkpt lat="48.85329" lon="2.34696">
        <ele>40.799999237061</ele>
        <time>2015-11-09T20:14:29.000Z</time>
      </trkpt>
      <trkpt lat="48.85318" lon="2.34686">
        <ele>42</ele>
        <time>2015-11-09T20:14:33.000Z</time>
      </trkpt>
      <trkpt lat="48.85314" lon="2.34659">
        <ele>43</ele>
        <time>2015-11-09T20:14:38.000Z</time>
      </trkpt>
      <trkpt lat="48.85315" lon="2.34653">
        <ele>43</ele>
        <time>2015-11-09T20:14:39.000Z</time>
      </trkpt>
      <trkpt lat="48.85318" lon="2.34635">
        <ele>42.599998474121</ele>
        <time>2015-11-09T20:14:42.000Z</time>
      </trkpt>
      <trkpt lat="48.85326" lon="2.34606">
        <ele>42.799999237061</ele>
        <time>2015-11-09T20:14:46.000Z</time>
      </trkpt>
      <trkpt lat="48.85328" lon="2.34599">
        <ele>42.799999237061</ele>
        <time>2015-11-09T20:14:47.000Z</time>
      </trkpt>
      <trkpt lat="48.85336" lon="2.34569">
        <ele>43.200000762939</ele>
        <time>2015-11-09T20:14:51.000Z</time>
      </trkpt>
      <trkpt lat="48.85343" lon="2.34543">
        <ele>43.599998474121</ele>
        <time>2015-11-09T20:14:54.000Z</time>
      </trkpt>
      <trkpt lat="48.8535" lon="2.34517">
        <ele>43.799999237061</ele>
        <time>2015-11-09T20:14:57.000Z</time>
      </trkpt>
      <trkpt lat="48.85358" lon="2.34486">
        <ele>44</ele>
        <time>2015-11-09T20:15:01.000Z</time>
      </trkpt>
      <trkpt lat="48.85365" lon="2.34466">
        <ele>43.599998474121</ele>
        <time>2015-11-09T20:15:04.000Z</time>
      </trkpt>
      <trkpt lat="48.85372" lon="2.34445">
        <ele>43.400001525879</ele>
        <time>2015-11-09T20:15:08.000Z</time>
      </trkpt>
      <trkpt lat="48.85387" lon="2.3445">
        <ele>42.799999237061</ele>
        <time>2015-11-09T20:15:12.000Z</time>
      </trkpt>
      <trkpt lat="48.85399" lon="2.3446">
        <ele>42.400001525879</ele>
        <time>2015-11-09T20:15:15.000Z</time>
      </trkpt>
      <trkpt lat="48.85415" lon="2.34475">
        <ele>41.799999237061</ele>
        <time>2015-11-09T20:15:19.000Z</time>
      </trkpt>
      <trkpt lat="48.85432" lon="2.34492">
        <ele>41.200000762939</ele>
        <time>2015-11-09T20:15:23.000Z</time>
      </trkpt>
      <trkpt lat="48.8545" lon="2.34507">
        <ele>41.799999237061</ele>
        <time>2015-11-09T20:15:27.000Z</time>
      </trkpt>
      <trkpt lat="48.85467" lon="2.34522">
        <ele>42.799999237061</ele>
        <time>2015-11-09T20:15:31.000Z</time>
      </trkpt>
      <trkpt lat="48.85483" lon="2.34536">
        <ele>44</ele>
        <time>2015-11-09T20:15:35.000Z</time>
      </trkpt>
      <trkpt lat="48.85496" lon="2.34549">
        <ele>44.799999237061</ele>
        <time>2015-11-09T20:15:38.000Z</time>
      </trkpt>
      <trkpt lat="48.85509" lon="2.34559">
        <ele>45.799999237061</ele>
        <time>2015-11-09T20:15:41.000Z</time>
      </trkpt>
      <trkpt lat="48.8553" lon="2.34579">
        <ele>47</ele>
        <time>2015-11-09T20:15:45.000Z</time>
      </trkpt>
      <trkpt lat="48.85545" lon="2.34587">
        <ele>47.200000762939</ele>
        <time>2015-11-09T20:15:48.000Z</time>
      </trkpt>
      <trkpt lat="48.85564" lon="2.34597">
        <ele>47.400001525879</ele>
        <time>2015-11-09T20:15:52.000Z</time>
      </trkpt>
      <trkpt lat="48.85586" lon="2.34612">
        <ele>47.799999237061</ele>
        <time>2015-11-09T20:15:56.000Z</time>
      </trkpt>
      <trkpt lat="48.85599" lon="2.3462">
        <ele>48</ele>
        <time>2015-11-09T20:15:59.000Z</time>
      </trkpt>
      <trkpt lat="48.85612" lon="2.34627">
        <ele>47.599998474121</ele>
        <time>2015-11-09T20:16:02.000Z</time>
      </trkpt>
      <trkpt lat="48.8563" lon="2.34627">
        <ele>46</ele>
        <time>2015-11-09T20:16:05.000Z</time>
      </trkpt>
      <trkpt lat="48.85646" lon="2.34636">
        <ele>44.599998474121</ele>
        <time>2015-11-09T20:16:09.000Z</time>
      </trkpt>
      <trkpt lat="48.85653" lon="2.3464">
        <ele>44</ele>
        <time>2015-11-09T20:16:11.000Z</time>
      </trkpt>
      <trkpt lat="48.85671" lon="2.34653">
        <ele>42.599998474121</ele>
        <time>2015-11-09T20:16:17.000Z</time>
      </trkpt>
      <trkpt lat="48.85689" lon="2.34664">
        <ele>41</ele>
        <time>2015-11-09T20:16:23.000Z</time>
      </trkpt>
      <trkpt lat="48.85705" lon="2.34675">
        <ele>40.599998474121</ele>
        <time>2015-11-09T20:16:29.000Z</time>
      </trkpt>
      <trkpt lat="48.85715" lon="2.3468">
        <ele>40.400001525879</ele>
        <time>2015-11-09T20:16:33.000Z</time>
      </trkpt>
      <trkpt lat="48.85724" lon="2.34668">
        <ele>39.400001525879</ele>
        <time>2015-11-09T20:16:39.000Z</time>
      </trkpt>
      <trkpt lat="48.85732" lon="2.34642">
        <ele>41.200000762939</ele>
        <time>2015-11-09T20:16:45.000Z</time>
      </trkpt>
      <trkpt lat="48.8574" lon="2.34617">
        <ele>43.400001525879</ele>
        <time>2015-11-09T20:16:52.000Z</time>
      </trkpt>
      <trkpt lat="48.85746" lon="2.34589">
        <ele>45.799999237061</ele>
        <time>2015-11-09T20:16:59.000Z</time>
      </trkpt>
      <trkpt lat="48.85756" lon="2.34562">
        <ele>45.599998474121</ele>
        <time>2015-11-09T20:17:06.000Z</time>
      </trkpt>
      <trkpt lat="48.85764" lon="2.34536">
        <ele>43.200000762939</ele>
        <time>2015-11-09T20:17:13.000Z</time>
      </trkpt>
      <trkpt lat="48.85773" lon="2.34507">
        <ele>40.599998474121</ele>
        <time>2015-11-09T20:17:19.000Z</time>
      </trkpt>
      <trkpt lat="48.85781" lon="2.3448">
        <ele>41</ele>
        <time>2015-11-09T20:17:25.000Z</time>
      </trkpt>
      <trkpt lat="48.85788" lon="2.34454">
        <ele>42</ele>
        <time>2015-11-09T20:17:30.000Z</time>
      </trkpt>
      <trkpt lat="48.85793" lon="2.34427">
        <ele>42.599998474121</ele>
        <time>2015-11-09T20:17:35.000Z</time>
      </trkpt>
      <trkpt lat="48.85798" lon="2.34399">
        <ele>43.200000762939</ele>
        <time>2015-11-09T20:17:40.000Z</time>
      </trkpt>
      <trkpt lat="48.85805" lon="2.34373">
        <ele>44.400001525879</ele>
        <time>2015-11-09T20:17:46.000Z</time>
      </trkpt>
      <trkpt lat="48.8581" lon="2.34343">
        <ele>47</ele>
        <time>2015-11-09T20:17:52.000Z</time>
      </trkpt>
      <trkpt lat="48.85817" lon="2.34314">
        <ele>49.400001525879</ele>
        <time>2015-11-09T20:17:58.000Z</time>
      </trkpt>
      <trkpt lat="48.85823" lon="2.34288">
        <ele>51.799999237061</ele>
        <time>2015-11-09T20:18:04.000Z</time>
      </trkpt>
      <trkpt lat="48.85832" lon="2.34264">
        <ele>55.799999237061</ele>
        <time>2015-11-09T20:18:11.000Z</time>
      </trkpt>
      <trkpt lat="48.85832" lon="2.3426">
        <ele>56.200000762939</ele>
        <time>2015-11-09T20:18:12.000Z</time>
      </trkpt>
      <trkpt lat="48.85821" lon="2.34238">
        <ele>55</ele>
        <time>2015-11-09T20:18:19.000Z</time>
      </trkpt>
      <trkpt lat="48.85806" lon="2.34223">
        <ele>51.799999237061</ele>
        <time>2015-11-09T20:18:25.000Z</time>
      </trkpt>
      <trkpt lat="48.85788" lon="2.34207">
        <ele>48</ele>
        <time>2015-11-09T20:18:31.000Z</time>
      </trkpt>
      <trkpt lat="48.85773" lon="2.34194">
        <ele>44.799999237061</ele>
        <time>2015-11-09T20:18:37.000Z</time>
      </trkpt>
      <trkpt lat="48.85757" lon="2.34182">
        <ele>45.400001525879</ele>
        <time>2015-11-09T20:18:44.000Z</time>
      </trkpt>
      <trkpt lat="48.8574" lon="2.3417">
        <ele>46</ele>
        <time>2015-11-09T20:18:51.000Z</time>
      </trkpt>
      <trkpt lat="48.85728" lon="2.34163">
        <ele>46.599998474121</ele>
        <time>2015-11-09T20:18:56.000Z</time>
      </trkpt>
      <trkpt lat="48.85727" lon="2.34143">
        <ele>44.200000762939</ele>
        <time>2015-11-09T20:19:20.000Z</time>
      </trkpt>
      <trkpt lat="48.8572" lon="2.34132">
        <ele>43.200000762939</ele>
        <time>2015-11-09T20:19:24.000Z</time>
      </trkpt>
      <trkpt lat="48.85703" lon="2.34117">
        <ele>42.599998474121</ele>
        <time>2015-11-09T20:19:31.000Z</time>
      </trkpt>
      <trkpt lat="48.85687" lon="2.34103">
        <ele>41.799999237061</ele>
        <time>2015-11-09T20:19:37.000Z</time>
      </trkpt>
      <trkpt lat="48.85671" lon="2.34089">
        <ele>40.799999237061</ele>
        <time>2015-11-09T20:19:43.000Z</time>
      </trkpt>
      <trkpt lat="48.85655" lon="2.34074">
        <ele>41</ele>
        <time>2015-11-09T20:19:51.000Z</time>
      </trkpt>
      <trkpt lat="48.85638" lon="2.3406">
        <ele>42.799999237061</ele>
        <time>2015-11-09T20:20:01.000Z</time>
      </trkpt>
      <trkpt lat="48.85631" lon="2.34054">
        <ele>43.400001525879</ele>
        <time>2015-11-09T20:20:06.000Z</time>
      </trkpt>
      <trkpt lat="48.8563" lon="2.34036">
        <ele>44.599998474121</ele>
        <time>2015-11-09T20:20:23.000Z</time>
      </trkpt>
      <trkpt lat="48.85632" lon="2.34035">
        <ele>44.599998474121</ele>
        <time>2015-11-09T20:20:27.000Z</time>
      </trkpt>
      <trkpt lat="48.85634" lon="2.34015">
        <ele>44.200000762939</ele>
        <time>2015-11-09T20:20:57.000Z</time>
      </trkpt>
      <trkpt lat="48.85649" lon="2.33991">
        <ele>40.200000762939</ele>
        <time>2015-11-09T20:21:02.000Z</time>
      </trkpt>
      <trkpt lat="48.85662" lon="2.33966">
        <ele>37.799999237061</ele>
        <time>2015-11-09T20:21:06.000Z</time>
      </trkpt>
      <trkpt lat="48.85675" lon="2.3394">
        <ele>38.400001525879</ele>
        <time>2015-11-09T20:21:10.000Z</time>
      </trkpt>
      <trkpt lat="48.85689" lon="2.33914">
        <ele>39</ele>
        <time>2015-11-09T20:21:14.000Z</time>
      </trkpt>
      <trkpt lat="48.85703" lon="2.33888">
        <ele>37.400001525879</ele>
        <time>2015-11-09T20:21:18.000Z</time>
      </trkpt>
      <trkpt lat="48.85716" lon="2.33861">
        <ele>35.799999237061</ele>
        <time>2015-11-09T20:21:22.000Z</time>
      </trkpt>
      <trkpt lat="48.8573" lon="2.33836">
        <ele>36.599998474121</ele>
        <time>2015-11-09T20:21:26.000Z</time>
      </trkpt>
      <trkpt lat="48.85743" lon="2.33808">
        <ele>36</ele>
        <time>2015-11-09T20:21:30.000Z</time>
      </trkpt>
      <trkpt lat="48.85747" lon="2.33802">
        <ele>35.799999237061</ele>
        <time>2015-11-09T20:21:31.000Z</time>
      </trkpt>
      <trkpt lat="48.85754" lon="2.33773">
        <ele>36</ele>
        <time>2015-11-09T20:21:35.000Z</time>
      </trkpt>
      <trkpt lat="48.85761" lon="2.33746">
        <ele>36.200000762939</ele>
        <time>2015-11-09T20:21:39.000Z</time>
      </trkpt>
      <trkpt lat="48.85767" lon="2.33729">
        <ele>35.599998474121</ele>
        <time>2015-11-09T20:21:42.000Z</time>
      </trkpt>
      <trkpt lat="48.85771" lon="2.33717">
        <ele>35.200000762939</ele>
        <time>2015-11-09T20:21:45.000Z</time>
      </trkpt>
      <trkpt lat="48.85775" lon="2.33716">
        <ele>34.799999237061</ele>
        <time>2015-11-09T20:21:49.000Z</time>
      </trkpt>
      <trkpt lat="48.85776" lon="2.33717">
        <ele>34.799999237061</ele>
        <time>2015-11-09T20:21:50.000Z</time>
      </trkpt>
      <trkpt lat="48.85779" lon="2.3372">
        <ele>34.599998474121</ele>
        <time>2015-11-09T20:21:54.000Z</time>
      </trkpt>
      <trkpt lat="48.8578" lon="2.33721">
        <ele>34.400001525879</ele>
        <time>2015-11-09T20:21:55.000Z</time>
      </trkpt>
      <trkpt lat="48.85799" lon="2.33732">
        <ele>33</ele>
        <time>2015-11-09T20:22:04.000Z</time>
      </trkpt>
      <trkpt lat="48.85802" lon="2.33733">
        <ele>33</ele>
        <time>2015-11-09T20:22:05.000Z</time>
      </trkpt>
      <trkpt lat="48.8582" lon="2.33743">
        <ele>31.60000038147</ele>
        <time>2015-11-09T20:22:12.000Z</time>
      </trkpt>
      <trkpt lat="48.85838" lon="2.33752">
        <ele>30.39999961853</ele>
        <time>2015-11-09T20:22:18.000Z</time>
      </trkpt>
      <trkpt lat="48.85856" lon="2.33762">
        <ele>29.39999961853</ele>
        <time>2015-11-09T20:22:24.000Z</time>
      </trkpt>
      <trkpt lat="48.85874" lon="2.33772">
        <ele>31.200000762939</ele>
        <time>2015-11-09T20:22:30.000Z</time>
      </trkpt>
      <trkpt lat="48.85892" lon="2.33779">
        <ele>33</ele>
        <time>2015-11-09T20:22:36.000Z</time>
      </trkpt>
      <trkpt lat="48.85909" lon="2.33783">
        <ele>34.599998474121</ele>
        <time>2015-11-09T20:22:45.000Z</time>
      </trkpt>
      <trkpt lat="48.85911" lon="2.33781">
        <ele>34.599998474121</ele>
        <time>2015-11-09T20:22:47.000Z</time>
      </trkpt>
      <trkpt lat="48.85913" lon="2.33766">
        <ele>34</ele>
        <time>2015-11-09T20:23:18.000Z</time>
      </trkpt>
      <trkpt lat="48.85913" lon="2.33736">
        <ele>31.60000038147</ele>
        <time>2015-11-09T20:23:25.000Z</time>
      </trkpt>
      <trkpt lat="48.85915" lon="2.33704">
        <ele>30</ele>
        <time>2015-11-09T20:23:30.000Z</time>
      </trkpt>
      <trkpt lat="48.85915" lon="2.33698">
        <ele>30</ele>
        <time>2015-11-09T20:23:31.000Z</time>
      </trkpt>
      <trkpt lat="48.85918" lon="2.33666">
        <ele>30.60000038147</ele>
        <time>2015-11-09T20:23:36.000Z</time>
      </trkpt>
      <trkpt lat="48.85924" lon="2.3364">
        <ele>31.60000038147</ele>
        <time>2015-11-09T20:23:40.000Z</time>
      </trkpt>
      <trkpt lat="48.85933" lon="2.33612">
        <ele>36.200000762939</ele>
        <time>2015-11-09T20:23:44.000Z</time>
      </trkpt>
      <trkpt lat="48.8594" lon="2.33587">
        <ele>39.799999237061</ele>
        <time>2015-11-09T20:23:48.000Z</time>
      </trkpt>
      <trkpt lat="48.85946" lon="2.33561">
        <ele>42</ele>
        <time>2015-11-09T20:23:52.000Z</time>
      </trkpt>
      <trkpt lat="48.85952" lon="2.33537">
        <ele>44.400001525879</ele>
        <time>2015-11-09T20:23:56.000Z</time>
      </trkpt>
      <trkpt lat="48.85959" lon="2.33508">
        <ele>47</ele>
        <time>2015-11-09T20:24:01.000Z</time>
      </trkpt>
      <trkpt lat="48.85961" lon="2.33502">
        <ele>47.400001525879</ele>
        <time>2015-11-09T20:24:02.000Z</time>
      </trkpt>
      <trkpt lat="48.85967" lon="2.33475">
        <ele>49.400001525879</ele>
        <time>2015-11-09T20:24:06.000Z</time>
      </trkpt>
      <trkpt lat="48.85975" lon="2.33444">
        <ele>51.200000762939</ele>
        <time>2015-11-09T20:24:11.000Z</time>
      </trkpt>
      <trkpt lat="48.85981" lon="2.33419">
        <ele>50.599998474121</ele>
        <time>2015-11-09T20:24:15.000Z</time>
      </trkpt>
      <trkpt lat="48.85988" lon="2.3339">
        <ele>48.400001525879</ele>
        <time>2015-11-09T20:24:20.000Z</time>
      </trkpt>
      <trkpt lat="48.85992" lon="2.33366">
        <ele>47.400001525879</ele>
        <time>2015-11-09T20:24:25.000Z</time>
      </trkpt>
      <trkpt lat="48.85989" lon="2.33351">
        <ele>46.799999237061</ele>
        <time>2015-11-09T20:24:29.000Z</time>
      </trkpt>
      <trkpt lat="48.85988" lon="2.33347">
        <ele>46.799999237061</ele>
        <time>2015-11-09T20:24:30.000Z</time>
      </trkpt>
      <trkpt lat="48.85987" lon="2.33354">
        <ele>46.799999237061</ele>
        <time>2015-11-09T20:24:50.000Z</time>
      </trkpt>
      <trkpt lat="48.85986" lon="2.33341">
        <ele>46.400001525879</ele>
        <time>2015-11-09T20:24:59.000Z</time>
      </trkpt>
      <trkpt lat="48.85974" lon="2.33333">
        <ele>45.799999237061</ele>
        <time>2015-11-09T20:25:03.000Z</time>
      </trkpt>
      <trkpt lat="48.85955" lon="2.33323">
        <ele>43.799999237061</ele>
        <time>2015-11-09T20:25:09.000Z</time>
      </trkpt>
      <trkpt lat="48.85937" lon="2.33314">
        <ele>42.200000762939</ele>
        <time>2015-11-09T20:25:15.000Z</time>
      </trkpt>
      <trkpt lat="48.85917" lon="2.33302">
        <ele>42.599998474121</ele>
        <time>2015-11-09T20:25:22.000Z</time>
      </trkpt>
      <trkpt lat="48.859" lon="2.33291">
        <ele>43</ele>
        <time>2015-11-09T20:25:27.000Z</time>
      </trkpt>
      <trkpt lat="48.85883" lon="2.33279">
        <ele>42.799999237061</ele>
        <time>2015-11-09T20:25:32.000Z</time>
      </trkpt>
      <trkpt lat="48.85868" lon="2.3327">
        <ele>42.400001525879</ele>
        <time>2015-11-09T20:25:39.000Z</time>
      </trkpt>
      <trkpt lat="48.8587" lon="2.33256">
        <ele>41.599998474121</ele>
        <time>2015-11-09T20:25:45.000Z</time>
      </trkpt>
      <trkpt lat="48.85871" lon="2.3325">
        <ele>41</ele>
        <time>2015-11-09T20:25:48.000Z</time>
      </trkpt>
      <trkpt lat="48.85873" lon="2.33223">
        <ele>41</ele>
        <time>2015-11-09T20:26:00.000Z</time>
      </trkpt>
      <trkpt lat="48.8588" lon="2.33197">
        <ele>40.799999237061</ele>
        <time>2015-11-09T20:26:06.000Z</time>
      </trkpt>
      <trkpt lat="48.85889" lon="2.33169">
        <ele>39.599998474121</ele>
        <time>2015-11-09T20:26:11.000Z</time>
      </trkpt>
      <trkpt lat="48.85895" lon="2.33152">
        <ele>39.400001525879</ele>
        <time>2015-11-09T20:26:14.000Z</time>
      </trkpt>
      <trkpt lat="48.85904" lon="2.33122">
        <ele>39.799999237061</ele>
        <time>2015-11-09T20:26:19.000Z</time>
      </trkpt>
      <trkpt lat="48.85912" lon="2.33096">
        <ele>40.400001525879</ele>
        <time>2015-11-09T20:26:23.000Z</time>
      </trkpt>
      <trkpt lat="48.8592" lon="2.33069">
        <ele>40.400001525879</ele>
        <time>2015-11-09T20:26:27.000Z</time>
      </trkpt>
      <trkpt lat="48.8593" lon="2.33039">
        <ele>40</ele>
        <time>2015-11-09T20:26:32.000Z</time>
      </trkpt>
      <trkpt lat="48.85938" lon="2.33009">
        <ele>39.799999237061</ele>
        <time>2015-11-09T20:26:37.000Z</time>
      </trkpt>
      <trkpt lat="48.85944" lon="2.32981">
        <ele>40.799999237061</ele>
        <time>2015-11-09T20:26:42.000Z</time>
      </trkpt>
      <trkpt lat="48.85949" lon="2.32966">
        <ele>41.400001525879</ele>
        <time>2015-11-09T20:26:45.000Z</time>
      </trkpt>
      <trkpt lat="48.85958" lon="2.32956">
        <ele>42</ele>
        <time>2015-11-09T20:26:49.000Z</time>
      </trkpt>
      <trkpt lat="48.85972" lon="2.3295">
        <ele>42.200000762939</ele>
        <time>2015-11-09T20:26:54.000Z</time>
      </trkpt>
      <trkpt lat="48.8598" lon="2.3295">
        <ele>42</ele>
        <time>2015-11-09T20:26:57.000Z</time>
      </trkpt>
      <trkpt lat="48.85997" lon="2.32965">
        <ele>41.200000762939</ele>
        <time>2015-11-09T20:27:05.000Z</time>
      </trkpt>
      <trkpt lat="48.86014" lon="2.3298">
        <ele>40.400001525879</ele>
        <time>2015-11-09T20:27:13.000Z</time>
      </trkpt>
      <trkpt lat="48.86032" lon="2.32995">
        <ele>40.400001525879</ele>
        <time>2015-11-09T20:27:19.000Z</time>
      </trkpt>
      <trkpt lat="48.8605" lon="2.33009">
        <ele>40.599998474121</ele>
        <time>2015-11-09T20:27:24.000Z</time>
      </trkpt>
      <trkpt lat="48.86061" lon="2.33014">
        <ele>40.799999237061</ele>
        <time>2015-11-09T20:27:27.000Z</time>
      </trkpt>
      <trkpt lat="48.86077" lon="2.33001">
        <ele>42.400001525879</ele>
        <time>2015-11-09T20:27:34.000Z</time>
      </trkpt>
      <trkpt lat="48.86079" lon="2.32993">
        <ele>42.599998474121</ele>
        <time>2015-11-09T20:27:39.000Z</time>
      </trkpt>
      <trkpt lat="48.86086" lon="2.32976">
        <ele>42.599998474121</ele>
        <time>2015-11-09T20:28:13.000Z</time>
      </trkpt>
      <trkpt lat="48.86096" lon="2.32951">
        <ele>38.599998474121</ele>
        <time>2015-11-09T20:28:18.000Z</time>
      </trkpt>
      <trkpt lat="48.86106" lon="2.32921">
        <ele>34</ele>
        <time>2015-11-09T20:28:23.000Z</time>
      </trkpt>
      <trkpt lat="48.86115" lon="2.32895">
        <ele>31.799999237061</ele>
        <time>2015-11-09T20:28:27.000Z</time>
      </trkpt>
      <trkpt lat="48.86124" lon="2.32868">
        <ele>30</ele>
        <time>2015-11-09T20:28:31.000Z</time>
      </trkpt>
      <trkpt lat="48.86133" lon="2.3284">
        <ele>29.39999961853</ele>
        <time>2015-11-09T20:28:35.000Z</time>
      </trkpt>
      <trkpt lat="48.86143" lon="2.32813">
        <ele>30.60000038147</ele>
        <time>2015-11-09T20:28:39.000Z</time>
      </trkpt>
      <trkpt lat="48.86153" lon="2.32786">
        <ele>31.60000038147</ele>
        <time>2015-11-09T20:28:43.000Z</time>
      </trkpt>
      <trkpt lat="48.86158" lon="2.32772">
        <ele>31.200000762939</ele>
        <time>2015-11-09T20:28:45.000Z</time>
      </trkpt>
      <trkpt lat="48.86167" lon="2.32744">
        <ele>30.799999237061</ele>
        <time>2015-11-09T20:28:49.000Z</time>
      </trkpt>
      <trkpt lat="48.86176" lon="2.32718">
        <ele>31</ele>
        <time>2015-11-09T20:28:53.000Z</time>
      </trkpt>
      <trkpt lat="48.86185" lon="2.32691">
        <ele>30</ele>
        <time>2015-11-09T20:28:57.000Z</time>
      </trkpt>
      <trkpt lat="48.86193" lon="2.32663">
        <ele>29.200000762939</ele>
        <time>2015-11-09T20:29:01.000Z</time>
      </trkpt>
      <trkpt lat="48.86202" lon="2.32635">
        <ele>30</ele>
        <time>2015-11-09T20:29:05.000Z</time>
      </trkpt>
      <trkpt lat="48.8621" lon="2.32608">
        <ele>30.60000038147</ele>
        <time>2015-11-09T20:29:09.000Z</time>
      </trkpt>
      <trkpt lat="48.86213" lon="2.32601">
        <ele>30.799999237061</ele>
        <time>2015-11-09T20:29:10.000Z</time>
      </trkpt>
      <trkpt lat="48.86218" lon="2.32588">
        <ele>30.60000038147</ele>
        <time>2015-11-09T20:29:12.000Z</time>
      </trkpt>
      <trkpt lat="48.86226" lon="2.32562">
        <ele>30.200000762939</ele>
        <time>2015-11-09T20:29:16.000Z</time>
      </trkpt>
      <trkpt lat="48.8623" lon="2.3255">
        <ele>30.200000762939</ele>
        <time>2015-11-09T20:29:18.000Z</time>
      </trkpt>
      <trkpt lat="48.86238" lon="2.32523">
        <ele>29.60000038147</ele>
        <time>2015-11-09T20:29:23.000Z</time>
      </trkpt>
      <trkpt lat="48.86238" lon="2.32519">
        <ele>29.60000038147</ele>
        <time>2015-11-09T20:29:24.000Z</time>
      </trkpt>
      <trkpt lat="48.86234" lon="2.32509">
        <ele>29.200000762939</ele>
        <time>2015-11-09T20:29:28.000Z</time>
      </trkpt>
      <trkpt lat="48.86232" lon="2.32507">
        <ele>29.200000762939</ele>
        <time>2015-11-09T20:29:29.000Z</time>
      </trkpt>
      <trkpt lat="48.86221" lon="2.32494">
        <ele>29</ele>
        <time>2015-11-09T20:29:34.000Z</time>
      </trkpt>
      <trkpt lat="48.86205" lon="2.3248">
        <ele>28.60000038147</ele>
        <time>2015-11-09T20:29:41.000Z</time>
      </trkpt>
      <trkpt lat="48.86189" lon="2.32468">
        <ele>28.39999961853</ele>
        <time>2015-11-09T20:29:47.000Z</time>
      </trkpt>
      <trkpt lat="48.86171" lon="2.32455">
        <ele>30.39999961853</ele>
        <time>2015-11-09T20:29:53.000Z</time>
      </trkpt>
      <trkpt lat="48.86152" lon="2.32444">
        <ele>32.599998474121</ele>
        <time>2015-11-09T20:29:59.000Z</time>
      </trkpt>
      <trkpt lat="48.86133" lon="2.32432">
        <ele>34.799999237061</ele>
        <time>2015-11-09T20:30:05.000Z</time>
      </trkpt>
      <trkpt lat="48.86118" lon="2.32418">
        <ele>36.400001525879</ele>
        <time>2015-11-09T20:30:12.000Z</time>
      </trkpt>
      <trkpt lat="48.86121" lon="2.32414">
        <ele>36</ele>
        <time>2015-11-09T20:30:17.000Z</time>
      </trkpt>
      <trkpt lat="48.86121" lon="2.32414">
        <ele>36</ele>
        <time>2015-11-09T20:30:18.000Z</time>
      </trkpt>
      <trkpt lat="48.86124" lon="2.32386">
        <ele>37.599998474121</ele>
        <time>2015-11-09T20:31:27.000Z</time>
      </trkpt>
      <trkpt lat="48.86132" lon="2.32354">
        <ele>38.799999237061</ele>
        <time>2015-11-09T20:31:32.000Z</time>
      </trkpt>
      <trkpt lat="48.8614" lon="2.32321">
        <ele>37.799999237061</ele>
        <time>2015-11-09T20:31:36.000Z</time>
      </trkpt>
      <trkpt lat="48.86149" lon="2.32287">
        <ele>35.400001525879</ele>
        <time>2015-11-09T20:31:40.000Z</time>
      </trkpt>
      <trkpt lat="48.86159" lon="2.32255">
        <ele>35.599998474121</ele>
        <time>2015-11-09T20:31:44.000Z</time>
      </trkpt>
      <trkpt lat="48.86168" lon="2.32229">
        <ele>35.599998474121</ele>
        <time>2015-11-09T20:31:48.000Z</time>
      </trkpt>
      <trkpt lat="48.86178" lon="2.32199">
        <ele>37</ele>
        <time>2015-11-09T20:31:53.000Z</time>
      </trkpt>
      <trkpt lat="48.86186" lon="2.32174">
        <ele>38.400001525879</ele>
        <time>2015-11-09T20:31:57.000Z</time>
      </trkpt>
      <trkpt lat="48.86192" lon="2.32148">
        <ele>39.799999237061</ele>
        <time>2015-11-09T20:32:01.000Z</time>
      </trkpt>
      <trkpt lat="48.86196" lon="2.32127">
        <ele>40.799999237061</ele>
        <time>2015-11-09T20:32:04.000Z</time>
      </trkpt>
      <trkpt lat="48.86205" lon="2.32101">
        <ele>41.400001525879</ele>
        <time>2015-11-09T20:32:08.000Z</time>
      </trkpt>
      <trkpt lat="48.86213" lon="2.32073">
        <ele>40.799999237061</ele>
        <time>2015-11-09T20:32:12.000Z</time>
      </trkpt>
      <trkpt lat="48.86218" lon="2.32058">
        <ele>39.599998474121</ele>
        <time>2015-11-09T20:32:14.000Z</time>
      </trkpt>
      <trkpt lat="48.86226" lon="2.32031">
        <ele>37.799999237061</ele>
        <time>2015-11-09T20:32:18.000Z</time>
      </trkpt>
      <trkpt lat="48.86228" lon="2.32026">
        <ele>37.599998474121</ele>
        <time>2015-11-09T20:32:19.000Z</time>
      </trkpt>
      <trkpt lat="48.86232" lon="2.32014">
        <ele>36.799999237061</ele>
        <time>2015-11-09T20:32:22.000Z</time>
      </trkpt>
      <trkpt lat="48.86242" lon="2.31987">
        <ele>34.799999237061</ele>
        <time>2015-11-09T20:32:28.000Z</time>
      </trkpt>
      <trkpt lat="48.86252" lon="2.31958">
        <ele>33.400001525879</ele>
        <time>2015-11-09T20:32:34.000Z</time>
      </trkpt>
      <trkpt lat="48.86253" lon="2.31954">
        <ele>33.400001525879</ele>
        <time>2015-11-09T20:32:35.000Z</time>
      </trkpt>
      <trkpt lat="48.86257" lon="2.3194">
        <ele>33.599998474121</ele>
        <time>2015-11-09T20:32:38.000Z</time>
      </trkpt>
      <trkpt lat="48.86266" lon="2.31919">
        <ele>33.400001525879</ele>
        <time>2015-11-09T20:32:44.000Z</time>
      </trkpt>
      <trkpt lat="48.86271" lon="2.31914">
        <ele>33.200000762939</ele>
        <time>2015-11-09T20:32:47.000Z</time>
      </trkpt>
      <trkpt lat="48.86275" lon="2.31905">
        <ele>32.799999237061</ele>
        <time>2015-11-09T20:32:51.000Z</time>
      </trkpt>
      <trkpt lat="48.86294" lon="2.31907">
        <ele>31.200000762939</ele>
        <time>2015-11-09T20:32:59.000Z</time>
      </trkpt>
      <trkpt lat="48.86297" lon="2.31908">
        <ele>30.799999237061</ele>
        <time>2015-11-09T20:33:00.000Z</time>
      </trkpt>
      <trkpt lat="48.86316" lon="2.31921">
        <ele>29.60000038147</ele>
        <time>2015-11-09T20:33:06.000Z</time>
      </trkpt>
      <trkpt lat="48.86334" lon="2.31933">
        <ele>28.39999961853</ele>
        <time>2015-11-09T20:33:12.000Z</time>
      </trkpt>
      <trkpt lat="48.8635" lon="2.31945">
        <ele>27.200000762939</ele>
        <time>2015-11-09T20:33:17.000Z</time>
      </trkpt>
      <trkpt lat="48.86368" lon="2.31959">
        <ele>27.39999961853</ele>
        <time>2015-11-09T20:33:23.000Z</time>
      </trkpt>
      <trkpt lat="48.86387" lon="2.31972">
        <ele>28.200000762939</ele>
        <time>2015-11-09T20:33:30.000Z</time>
      </trkpt>
      <trkpt lat="48.86404" lon="2.31983">
        <ele>28.799999237061</ele>
        <time>2015-11-09T20:33:37.000Z</time>
      </trkpt>
      <trkpt lat="48.86409" lon="2.31984">
        <ele>29</ele>
        <time>2015-11-09T20:33:40.000Z</time>
      </trkpt>
      <trkpt lat="48.86414" lon="2.31973">
        <ele>28.799999237061</ele>
        <time>2015-11-09T20:33:45.000Z</time>
      </trkpt>
      <trkpt lat="48.86422" lon="2.31949">
        <ele>28</ele>
        <time>2015-11-09T20:33:53.000Z</time>
      </trkpt>
      <trkpt lat="48.86431" lon="2.31925">
        <ele>27.39999961853</ele>
        <time>2015-11-09T20:33:59.000Z</time>
      </trkpt>
      <trkpt lat="48.86441" lon="2.31901">
        <ele>28</ele>
        <time>2015-11-09T20:34:05.000Z</time>
      </trkpt>
      <trkpt lat="48.8645" lon="2.31875">
        <ele>30.200000762939</ele>
        <time>2015-11-09T20:34:11.000Z</time>
      </trkpt>
      <trkpt lat="48.86463" lon="2.31856">
        <ele>32.400001525879</ele>
        <time>2015-11-09T20:34:17.000Z</time>
      </trkpt>
      <trkpt lat="48.86471" lon="2.3184">
        <ele>33</ele>
        <time>2015-11-09T20:34:24.000Z</time>
      </trkpt>
      <trkpt lat="48.86472" lon="2.31822">
        <ele>34.200000762939</ele>
        <time>2015-11-09T20:34:30.000Z</time>
      </trkpt>
      <trkpt lat="48.86472" lon="2.31817">
        <ele>34.799999237061</ele>
        <time>2015-11-09T20:34:34.000Z</time>
      </trkpt>
      <trkpt lat="48.86471" lon="2.31788">
        <ele>37.400001525879</ele>
        <time>2015-11-09T20:34:44.000Z</time>
      </trkpt>
      <trkpt lat="48.86463" lon="2.31762">
        <ele>39</ele>
        <time>2015-11-09T20:34:49.000Z</time>
      </trkpt>
      <trkpt lat="48.86458" lon="2.31737">
        <ele>37.599998474121</ele>
        <time>2015-11-09T20:34:53.000Z</time>
      </trkpt>
      <trkpt lat="48.86456" lon="2.31708">
        <ele>32.599998474121</ele>
        <time>2015-11-09T20:34:57.000Z</time>
      </trkpt>
      <trkpt lat="48.86452" lon="2.31676">
        <ele>27.200000762939</ele>
        <time>2015-11-09T20:35:02.000Z</time>
      </trkpt>
      <trkpt lat="48.86452" lon="2.31645">
        <ele>26.39999961853</ele>
        <time>2015-11-09T20:35:06.000Z</time>
      </trkpt>
      <trkpt lat="48.8645" lon="2.31614">
        <ele>26.39999961853</ele>
        <time>2015-11-09T20:35:10.000Z</time>
      </trkpt>
      <trkpt lat="48.86448" lon="2.31587">
        <ele>26.60000038147</ele>
        <time>2015-11-09T20:35:14.000Z</time>
      </trkpt>
      <trkpt lat="48.86447" lon="2.31565">
        <ele>27.39999961853</ele>
        <time>2015-11-09T20:35:17.000Z</time>
      </trkpt>
      <trkpt lat="48.86446" lon="2.31533">
        <ele>28.39999961853</ele>
        <time>2015-11-09T20:35:21.000Z</time>
      </trkpt>
      <trkpt lat="48.86447" lon="2.31525">
        <ele>28.799999237061</ele>
        <time>2015-11-09T20:35:22.000Z</time>
      </trkpt>
      <trkpt lat="48.86447" lon="2.31493">
        <ele>30.39999961853</ele>
        <time>2015-11-09T20:35:26.000Z</time>
      </trkpt>
      <trkpt lat="48.86447" lon="2.31479">
        <ele>30.60000038147</ele>
        <time>2015-11-09T20:35:28.000Z</time>
      </trkpt>
      <trkpt lat="48.86449" lon="2.31461">
        <ele>31.200000762939</ele>
        <time>2015-11-09T20:35:30.000Z</time>
      </trkpt>
      <trkpt lat="48.86446" lon="2.3143">
        <ele>31</ele>
        <time>2015-11-09T20:35:33.000Z</time>
      </trkpt>
      <trkpt lat="48.86429" lon="2.31408">
        <ele>30.60000038147</ele>
        <time>2015-11-09T20:35:43.000Z</time>
      </trkpt>
      <trkpt lat="48.86431" lon="2.31392">
        <ele>30.60000038147</ele>
        <time>2015-11-09T20:36:06.000Z</time>
      </trkpt>
      <trkpt lat="48.86425" lon="2.31388">
        <ele>30.60000038147</ele>
        <time>2015-11-09T20:36:10.000Z</time>
      </trkpt>
      <trkpt lat="48.86421" lon="2.31385">
        <ele>30.60000038147</ele>
        <time>2015-11-09T20:36:12.000Z</time>
      </trkpt>
      <trkpt lat="48.86402" lon="2.3138">
        <ele>31.200000762939</ele>
        <time>2015-11-09T20:36:19.000Z</time>
      </trkpt>
      <trkpt lat="48.86382" lon="2.31378">
        <ele>33</ele>
        <time>2015-11-09T20:36:25.000Z</time>
      </trkpt>
      <trkpt lat="48.86361" lon="2.31373">
        <ele>34.599998474121</ele>
        <time>2015-11-09T20:36:31.000Z</time>
      </trkpt>
      <trkpt lat="48.86342" lon="2.3137">
        <ele>35</ele>
        <time>2015-11-09T20:36:37.000Z</time>
      </trkpt>
      <trkpt lat="48.86321" lon="2.31367">
        <ele>35</ele>
        <time>2015-11-09T20:36:44.000Z</time>
      </trkpt>
      <trkpt lat="48.86301" lon="2.31364">
        <ele>34.400001525879</ele>
        <time>2015-11-09T20:36:51.000Z</time>
      </trkpt>
      <trkpt lat="48.86296" lon="2.31363">
        <ele>33.799999237061</ele>
        <time>2015-11-09T20:36:56.000Z</time>
      </trkpt>
      <trkpt lat="48.86299" lon="2.31341">
        <ele>33.400001525879</ele>
        <time>2015-11-09T20:37:46.000Z</time>
      </trkpt>
      <trkpt lat="48.86293" lon="2.31313">
        <ele>32.799999237061</ele>
        <time>2015-11-09T20:37:52.000Z</time>
      </trkpt>
      <trkpt lat="48.8629" lon="2.31284">
        <ele>32.799999237061</ele>
        <time>2015-11-09T20:37:57.000Z</time>
      </trkpt>
      <trkpt lat="48.8629" lon="2.31255">
        <ele>32.599998474121</ele>
        <time>2015-11-09T20:38:01.000Z</time>
      </trkpt>
      <trkpt lat="48.86289" lon="2.31226">
        <ele>32.599998474121</ele>
        <time>2015-11-09T20:38:05.000Z</time>
      </trkpt>
      <trkpt lat="48.86289" lon="2.31193">
        <ele>33</ele>
        <time>2015-11-09T20:38:09.000Z</time>
      </trkpt>
      <trkpt lat="48.86287" lon="2.31162">
        <ele>33.200000762939</ele>
        <time>2015-11-09T20:38:13.000Z</time>
      </trkpt>
      <trkpt lat="48.86283" lon="2.31134">
        <ele>35.200000762939</ele>
        <time>2015-11-09T20:38:17.000Z</time>
      </trkpt>
      <trkpt lat="48.86281" lon="2.31121">
        <ele>36</ele>
        <time>2015-11-09T20:38:19.000Z</time>
      </trkpt>
      <trkpt lat="48.86277" lon="2.31096">
        <ele>37.799999237061</ele>
        <time>2015-11-09T20:38:23.000Z</time>
      </trkpt>
      <trkpt lat="48.8628" lon="2.31064">
        <ele>39</ele>
        <time>2015-11-09T20:38:29.000Z</time>
      </trkpt>
      <trkpt lat="48.86291" lon="2.31053">
        <ele>38.599998474121</ele>
        <time>2015-11-09T20:38:34.000Z</time>
      </trkpt>
      <trkpt lat="48.86293" lon="2.31052">
        <ele>38.200000762939</ele>
        <time>2015-11-09T20:38:35.000Z</time>
      </trkpt>
      <trkpt lat="48.86313" lon="2.31048">
        <ele>36.200000762939</ele>
        <time>2015-11-09T20:38:41.000Z</time>
      </trkpt>
      <trkpt lat="48.86331" lon="2.31046">
        <ele>33</ele>
        <time>2015-11-09T20:38:46.000Z</time>
      </trkpt>
      <trkpt lat="48.86351" lon="2.31046">
        <ele>28.39999961853</ele>
        <time>2015-11-09T20:38:51.000Z</time>
      </trkpt>
      <trkpt lat="48.86372" lon="2.31046">
        <ele>27</ele>
        <time>2015-11-09T20:38:56.000Z</time>
      </trkpt>
      <trkpt lat="48.86391" lon="2.31044">
        <ele>26.39999961853</ele>
        <time>2015-11-09T20:39:00.000Z</time>
      </trkpt>
      <trkpt lat="48.86408" lon="2.31036">
        <ele>26.799999237061</ele>
        <time>2015-11-09T20:39:04.000Z</time>
      </trkpt>
      <trkpt lat="48.86423" lon="2.31031">
        <ele>27.799999237061</ele>
        <time>2015-11-09T20:39:10.000Z</time>
      </trkpt>
      <trkpt lat="48.86438" lon="2.31018">
        <ele>29.200000762939</ele>
        <time>2015-11-09T20:39:33.000Z</time>
      </trkpt>
      <trkpt lat="48.86449" lon="2.31009">
        <ele>30.60000038147</ele>
        <time>2015-11-09T20:39:37.000Z</time>
      </trkpt>
      <trkpt lat="48.86454" lon="2.30981">
        <ele>32</ele>
        <time>2015-11-09T20:39:42.000Z</time>
      </trkpt>
      <trkpt lat="48.86454" lon="2.30974">
        <ele>32</ele>
        <time>2015-11-09T20:39:43.000Z</time>
      </trkpt>
      <trkpt lat="48.86454" lon="2.30945">
        <ele>31.799999237061</ele>
        <time>2015-11-09T20:39:47.000Z</time>
      </trkpt>
      <trkpt lat="48.86452" lon="2.30913">
        <ele>31.60000038147</ele>
        <time>2015-11-09T20:39:52.000Z</time>
      </trkpt>
      <trkpt lat="48.86447" lon="2.30878">
        <ele>32</ele>
        <time>2015-11-09T20:39:56.000Z</time>
      </trkpt>
      <trkpt lat="48.86445" lon="2.30849">
        <ele>32.400001525879</ele>
        <time>2015-11-09T20:39:59.000Z</time>
      </trkpt>
      <trkpt lat="48.86443" lon="2.30817">
        <ele>32.400001525879</ele>
        <time>2015-11-09T20:40:03.000Z</time>
      </trkpt>
      <trkpt lat="48.86442" lon="2.3081">
        <ele>32.400001525879</ele>
        <time>2015-11-09T20:40:04.000Z</time>
      </trkpt>
      <trkpt lat="48.86439" lon="2.30778">
        <ele>32</ele>
        <time>2015-11-09T20:40:08.000Z</time>
      </trkpt>
      <trkpt lat="48.86437" lon="2.30749">
        <ele>32.200000762939</ele>
        <time>2015-11-09T20:40:12.000Z</time>
      </trkpt>
      <trkpt lat="48.86434" lon="2.30719">
        <ele>32.400001525879</ele>
        <time>2015-11-09T20:40:16.000Z</time>
      </trkpt>
      <trkpt lat="48.86434" lon="2.30712">
        <ele>32.599998474121</ele>
        <time>2015-11-09T20:40:17.000Z</time>
      </trkpt>
      <trkpt lat="48.86434" lon="2.30681">
        <ele>33.400001525879</ele>
        <time>2015-11-09T20:40:21.000Z</time>
      </trkpt>
      <trkpt lat="48.86436" lon="2.30653">
        <ele>33.400001525879</ele>
        <time>2015-11-09T20:40:25.000Z</time>
      </trkpt>
      <trkpt lat="48.86436" lon="2.30646">
        <ele>33.200000762939</ele>
        <time>2015-11-09T20:40:26.000Z</time>
      </trkpt>
      <trkpt lat="48.86439" lon="2.30618">
        <ele>32.799999237061</ele>
        <time>2015-11-09T20:40:30.000Z</time>
      </trkpt>
      <trkpt lat="48.86439" lon="2.30611">
        <ele>32.599998474121</ele>
        <time>2015-11-09T20:40:31.000Z</time>
      </trkpt>
      <trkpt lat="48.86441" lon="2.30583">
        <ele>32.200000762939</ele>
        <time>2015-11-09T20:40:35.000Z</time>
      </trkpt>
      <trkpt lat="48.86441" lon="2.30578">
        <ele>32.200000762939</ele>
        <time>2015-11-09T20:40:36.000Z</time>
      </trkpt>
      <trkpt lat="48.8644" lon="2.30549">
        <ele>31.799999237061</ele>
        <time>2015-11-09T20:40:40.000Z</time>
      </trkpt>
      <trkpt lat="48.8644" lon="2.30526">
        <ele>31.39999961853</ele>
        <time>2015-11-09T20:40:43.000Z</time>
      </trkpt>
      <trkpt lat="48.8644" lon="2.30498">
        <ele>31</ele>
        <time>2015-11-09T20:40:46.000Z</time>
      </trkpt>
      <trkpt lat="48.86438" lon="2.3048">
        <ele>31.39999961853</ele>
        <time>2015-11-09T20:40:48.000Z</time>
      </trkpt>
      <trkpt lat="48.86434" lon="2.30448">
        <ele>31.799999237061</ele>
        <time>2015-11-09T20:40:52.000Z</time>
      </trkpt>
      <trkpt lat="48.86429" lon="2.30415">
        <ele>32.200000762939</ele>
        <time>2015-11-09T20:40:56.000Z</time>
      </trkpt>
      <trkpt lat="48.86425" lon="2.30389">
        <ele>31.799999237061</ele>
        <time>2015-11-09T20:41:00.000Z</time>
      </trkpt>
      <trkpt lat="48.86424" lon="2.30382">
        <ele>31.799999237061</ele>
        <time>2015-11-09T20:41:01.000Z</time>
      </trkpt>
      <trkpt lat="48.86421" lon="2.30356">
        <ele>31.200000762939</ele>
        <time>2015-11-09T20:41:05.000Z</time>
      </trkpt>
      <trkpt lat="48.86418" lon="2.30324">
        <ele>30.799999237061</ele>
        <time>2015-11-09T20:41:10.000Z</time>
      </trkpt>
      <trkpt lat="48.86418" lon="2.30297">
        <ele>30.799999237061</ele>
        <time>2015-11-09T20:41:14.000Z</time>
      </trkpt>
      <trkpt lat="48.86417" lon="2.30269">
        <ele>29.799999237061</ele>
        <time>2015-11-09T20:41:18.000Z</time>
      </trkpt>
      <trkpt lat="48.86416" lon="2.30239">
        <ele>28.799999237061</ele>
        <time>2015-11-09T20:41:23.000Z</time>
      </trkpt>
      <trkpt lat="48.86413" lon="2.30211">
        <ele>27.799999237061</ele>
        <time>2015-11-09T20:41:29.000Z</time>
      </trkpt>
      <trkpt lat="48.8641" lon="2.302">
        <ele>27.200000762939</ele>
        <time>2015-11-09T20:41:33.000Z</time>
      </trkpt>
      <trkpt lat="48.86404" lon="2.30182">
        <ele>26.39999961853</ele>
        <time>2015-11-09T20:42:04.000Z</time>
      </trkpt>
      <trkpt lat="48.86402" lon="2.30154">
        <ele>25.60000038147</ele>
        <time>2015-11-09T20:42:13.000Z</time>
      </trkpt>
      <trkpt lat="48.86397" lon="2.30148">
        <ele>25.799999237061</ele>
        <time>2015-11-09T20:42:16.000Z</time>
      </trkpt>
      <trkpt lat="48.86383" lon="2.30146">
        <ele>26.39999961853</ele>
        <time>2015-11-09T20:42:45.000Z</time>
      </trkpt>
      <trkpt lat="48.86362" lon="2.30147">
        <ele>27.200000762939</ele>
        <time>2015-11-09T20:42:52.000Z</time>
      </trkpt>
      <trkpt lat="48.86341" lon="2.30149">
        <ele>29.200000762939</ele>
        <time>2015-11-09T20:42:58.000Z</time>
      </trkpt>
      <trkpt lat="48.86323" lon="2.3015">
        <ele>30.60000038147</ele>
        <time>2015-11-09T20:43:03.000Z</time>
      </trkpt>
      <trkpt lat="48.86303" lon="2.30153">
        <ele>32.200000762939</ele>
        <time>2015-11-09T20:43:08.000Z</time>
      </trkpt>
      <trkpt lat="48.86283" lon="2.30152">
        <ele>33.799999237061</ele>
        <time>2015-11-09T20:43:13.000Z</time>
      </trkpt>
      <trkpt lat="48.86266" lon="2.30142">
        <ele>35.200000762939</ele>
        <time>2015-11-09T20:43:19.000Z</time>
      </trkpt>
      <trkpt lat="48.86259" lon="2.30137">
        <ele>35.599998474121</ele>
        <time>2015-11-09T20:43:23.000Z</time>
      </trkpt>
      <trkpt lat="48.86245" lon="2.30119">
        <ele>36.599998474121</ele>
        <time>2015-11-09T20:43:51.000Z</time>
      </trkpt>
      <trkpt lat="48.86243" lon="2.30115">
        <ele>37</ele>
        <time>2015-11-09T20:43:53.000Z</time>
      </trkpt>
      <trkpt lat="48.86242" lon="2.30086">
        <ele>38.599998474121</ele>
        <time>2015-11-09T20:43:59.000Z</time>
      </trkpt>
      <trkpt lat="48.86239" lon="2.30057">
        <ele>38.400001525879</ele>
        <time>2015-11-09T20:44:04.000Z</time>
      </trkpt>
      <trkpt lat="48.86237" lon="2.30026">
        <ele>37.400001525879</ele>
        <time>2015-11-09T20:44:09.000Z</time>
      </trkpt>
      <trkpt lat="48.86236" lon="2.30019">
        <ele>37.200000762939</ele>
        <time>2015-11-09T20:44:10.000Z</time>
      </trkpt>
      <trkpt lat="48.86232" lon="2.2999">
        <ele>36.200000762939</ele>
        <time>2015-11-09T20:44:14.000Z</time>
      </trkpt>
      <trkpt lat="48.86228" lon="2.29961">
        <ele>34.799999237061</ele>
        <time>2015-11-09T20:44:18.000Z</time>
      </trkpt>
      <trkpt lat="48.86222" lon="2.2993">
        <ele>32.200000762939</ele>
        <time>2015-11-09T20:44:22.000Z</time>
      </trkpt>
      <trkpt lat="48.86216" lon="2.29899">
        <ele>30.200000762939</ele>
        <time>2015-11-09T20:44:26.000Z</time>
      </trkpt>
      <trkpt lat="48.86209" lon="2.29868">
        <ele>29.799999237061</ele>
        <time>2015-11-09T20:44:30.000Z</time>
      </trkpt>
      <trkpt lat="48.862" lon="2.29835">
        <ele>29.60000038147</ele>
        <time>2015-11-09T20:44:34.000Z</time>
      </trkpt>
      <trkpt lat="48.86193" lon="2.29809">
        <ele>30.60000038147</ele>
        <time>2015-11-09T20:44:37.000Z</time>
      </trkpt>
      <trkpt lat="48.86183" lon="2.29777">
        <ele>31.799999237061</ele>
        <time>2015-11-09T20:44:41.000Z</time>
      </trkpt>
      <trkpt lat="48.86172" lon="2.29749">
        <ele>33</ele>
        <time>2015-11-09T20:44:45.000Z</time>
      </trkpt>
      <trkpt lat="48.8616" lon="2.29719">
        <ele>33</ele>
        <time>2015-11-09T20:44:49.000Z</time>
      </trkpt>
      <trkpt lat="48.86149" lon="2.29697">
        <ele>32.799999237061</ele>
        <time>2015-11-09T20:44:52.000Z</time>
      </trkpt>
      <trkpt lat="48.86138" lon="2.29672">
        <ele>32.799999237061</ele>
        <time>2015-11-09T20:44:55.000Z</time>
      </trkpt>
      <trkpt lat="48.86125" lon="2.29648">
        <ele>33.200000762939</ele>
        <time>2015-11-09T20:44:58.000Z</time>
      </trkpt>
      <trkpt lat="48.86121" lon="2.29639">
        <ele>33.400001525879</ele>
        <time>2015-11-09T20:44:59.000Z</time>
      </trkpt>
      <trkpt lat="48.86108" lon="2.29613">
        <ele>34.200000762939</ele>
        <time>2015-11-09T20:45:02.000Z</time>
      </trkpt>
      <trkpt lat="48.86096" lon="2.29591">
        <ele>35.400001525879</ele>
        <time>2015-11-09T20:45:05.000Z</time>
      </trkpt>
      <trkpt lat="48.86081" lon="2.29568">
        <ele>36.400001525879</ele>
        <time>2015-11-09T20:45:09.000Z</time>
      </trkpt>
      <trkpt lat="48.86078" lon="2.29564">
        <ele>36.599998474121</ele>
        <time>2015-11-09T20:45:10.000Z</time>
      </trkpt>
      <trkpt lat="48.86063" lon="2.2954">
        <ele>37.200000762939</ele>
        <time>2015-11-09T20:45:15.000Z</time>
      </trkpt>
      <trkpt lat="48.86047" lon="2.29517">
        <ele>37.799999237061</ele>
        <time>2015-11-09T20:45:20.000Z</time>
      </trkpt>
      <trkpt lat="48.8604" lon="2.29509">
        <ele>38</ele>
        <time>2015-11-09T20:45:22.000Z</time>
      </trkpt>
      <trkpt lat="48.86024" lon="2.29493">
        <ele>38.799999237061</ele>
        <time>2015-11-09T20:45:27.000Z</time>
      </trkpt>
      <trkpt lat="48.8602" lon="2.2949">
        <ele>38.799999237061</ele>
        <time>2015-11-09T20:45:28.000Z</time>
      </trkpt>
      <trkpt lat="48.86014" lon="2.29484">
        <ele>39.200000762939</ele>
        <time>2015-11-09T20:45:30.000Z</time>
      </trkpt>
      <trkpt lat="48.86001" lon="2.29467">
        <ele>39.400001525879</ele>
        <time>2015-11-09T20:45:34.000Z</time>
      </trkpt>
      <trkpt lat="48.85985" lon="2.29443">
        <ele>39.400001525879</ele>
        <time>2015-11-09T20:45:39.000Z</time>
      </trkpt>
      <trkpt lat="48.85972" lon="2.29424">
        <ele>39.400001525879</ele>
        <time>2015-11-09T20:45:43.000Z</time>
      </trkpt>
      <trkpt lat="48.85956" lon="2.294">
        <ele>40</ele>
        <time>2015-11-09T20:45:48.000Z</time>
      </trkpt>
      <trkpt lat="48.85942" lon="2.29378">
        <ele>40.599998474121</ele>
        <time>2015-11-09T20:45:53.000Z</time>
      </trkpt>
      <trkpt lat="48.85931" lon="2.29361">
        <ele>40.200000762939</ele>
        <time>2015-11-09T20:45:57.000Z</time>
      </trkpt>
      <trkpt lat="48.85931" lon="2.29338">
        <ele>39.200000762939</ele>
        <time>2015-11-09T20:46:01.000Z</time>
      </trkpt>
      <trkpt lat="48.85934" lon="2.29316">
        <ele>38.200000762939</ele>
        <time>2015-11-09T20:46:05.000Z</time>
      </trkpt>
      <trkpt lat="48.85943" lon="2.29292">
        <ele>35.400001525879</ele>
        <time>2015-11-09T20:46:10.000Z</time>
      </trkpt>
      <trkpt lat="48.85946" lon="2.29287">
        <ele>34.599998474121</ele>
        <time>2015-11-09T20:46:11.000Z</time>
      </trkpt>
      <trkpt lat="48.85959" lon="2.29272">
        <ele>32</ele>
        <time>2015-11-09T20:46:15.000Z</time>
      </trkpt>
      <trkpt lat="48.85972" lon="2.29251">
        <ele>29.60000038147</ele>
        <time>2015-11-09T20:46:20.000Z</time>
      </trkpt>
      <trkpt lat="48.85985" lon="2.29231">
        <ele>27.60000038147</ele>
        <time>2015-11-09T20:46:25.000Z</time>
      </trkpt>
      <trkpt lat="48.85998" lon="2.29208">
        <ele>26.60000038147</ele>
        <time>2015-11-09T20:46:30.000Z</time>
      </trkpt>
      <trkpt lat="48.86012" lon="2.29185">
        <ele>27.39999961853</ele>
        <time>2015-11-09T20:46:35.000Z</time>
      </trkpt>
      <trkpt lat="48.86026" lon="2.29163">
        <ele>28.200000762939</ele>
        <time>2015-11-09T20:46:40.000Z</time>
      </trkpt>
      <trkpt lat="48.86039" lon="2.29141">
        <ele>30.200000762939</ele>
        <time>2015-11-09T20:46:46.000Z</time>
      </trkpt>
      <trkpt lat="48.86043" lon="2.29138">
        <ele>30.39999961853</ele>
        <time>2015-11-09T20:46:48.000Z</time>
      </trkpt>
      <trkpt lat="48.86054" lon="2.29154">
        <ele>30</ele>
        <time>2015-11-09T20:46:53.000Z</time>
      </trkpt>
      <trkpt lat="48.8607" lon="2.29175">
        <ele>30.200000762939</ele>
        <time>2015-11-09T20:46:58.000Z</time>
      </trkpt>
      <trkpt lat="48.86084" lon="2.29195">
        <ele>30.60000038147</ele>
        <time>2015-11-09T20:47:02.000Z</time>
      </trkpt>
      <trkpt lat="48.86098" lon="2.29214">
        <ele>31</ele>
        <time>2015-11-09T20:47:06.000Z</time>
      </trkpt>
      <trkpt lat="48.86112" lon="2.2923">
        <ele>31.60000038147</ele>
        <time>2015-11-09T20:47:10.000Z</time>
      </trkpt>
      <trkpt lat="48.86127" lon="2.29254">
        <ele>31.60000038147</ele>
        <time>2015-11-09T20:47:15.000Z</time>
      </trkpt>
      <trkpt lat="48.86134" lon="2.29263">
        <ele>31.39999961853</ele>
        <time>2015-11-09T20:47:17.000Z</time>
      </trkpt>
      <trkpt lat="48.8615" lon="2.29286">
        <ele>30.799999237061</ele>
        <time>2015-11-09T20:47:22.000Z</time>
      </trkpt>
      <trkpt lat="48.86153" lon="2.2929">
        <ele>30.60000038147</ele>
        <time>2015-11-09T20:47:23.000Z</time>
      </trkpt>
      <trkpt lat="48.86167" lon="2.29309">
        <ele>30.200000762939</ele>
        <time>2015-11-09T20:47:27.000Z</time>
      </trkpt>
      <trkpt lat="48.8617" lon="2.29314">
        <ele>30</ele>
        <time>2015-11-09T20:47:28.000Z</time>
      </trkpt>
      <trkpt lat="48.86185" lon="2.29331">
        <ele>29.799999237061</ele>
        <time>2015-11-09T20:47:32.000Z</time>
      </trkpt>
      <trkpt lat="48.86202" lon="2.29351">
        <ele>31</ele>
        <time>2015-11-09T20:47:36.000Z</time>
      </trkpt>
      <trkpt lat="48.86209" lon="2.2936">
        <ele>31.60000038147</ele>
        <time>2015-11-09T20:47:38.000Z</time>
      </trkpt>
      <trkpt lat="48.86225" lon="2.29378">
        <ele>33</ele>
        <time>2015-11-09T20:47:42.000Z</time>
      </trkpt>
      <trkpt lat="48.86235" lon="2.29397">
        <ele>33.799999237061</ele>
        <time>2015-11-09T20:47:46.000Z</time>
      </trkpt>
      <trkpt lat="48.86237" lon="2.29402">
        <ele>34</ele>
        <time>2015-11-09T20:47:47.000Z</time>
      </trkpt>
      <trkpt lat="48.86251" lon="2.29427">
        <ele>34.400001525879</ele>
        <time>2015-11-09T20:47:52.000Z</time>
      </trkpt>
      <trkpt lat="48.86255" lon="2.29438">
        <ele>34.400001525879</ele>
        <time>2015-11-09T20:47:54.000Z</time>
      </trkpt>
      <trkpt lat="48.86256" lon="2.29443">
        <ele>34.200000762939</ele>
        <time>2015-11-09T20:47:55.000Z</time>
      </trkpt>
      <trkpt lat="48.86262" lon="2.29471">
        <ele>33.200000762939</ele>
        <time>2015-11-09T20:48:00.000Z</time>
      </trkpt>
      <trkpt lat="48.8627" lon="2.29498">
        <ele>32.799999237061</ele>
        <time>2015-11-09T20:48:05.000Z</time>
      </trkpt>
      <trkpt lat="48.86278" lon="2.29526">
        <ele>32.599998474121</ele>
        <time>2015-11-09T20:48:10.000Z</time>
      </trkpt>
      <trkpt lat="48.86287" lon="2.29553">
        <ele>32.400001525879</ele>
        <time>2015-11-09T20:48:15.000Z</time>
      </trkpt>
      <trkpt lat="48.86289" lon="2.29564">
        <ele>32.200000762939</ele>
        <time>2015-11-09T20:48:17.000Z</time>
      </trkpt>
      <trkpt lat="48.86296" lon="2.29591">
        <ele>32</ele>
        <time>2015-11-09T20:48:23.000Z</time>
      </trkpt>
      <trkpt lat="48.86302" lon="2.29607">
        <ele>32</ele>
        <time>2015-11-09T20:48:29.000Z</time>
      </trkpt>
      <trkpt lat="48.86297" lon="2.29578">
        <ele>32.200000762939</ele>
        <time>2015-11-09T20:48:38.000Z</time>
      </trkpt>
      <trkpt lat="48.86289" lon="2.2955">
        <ele>32.599998474121</ele>
        <time>2015-11-09T20:48:45.000Z</time>
      </trkpt>
      <trkpt lat="48.86282" lon="2.29523">
        <ele>32.799999237061</ele>
        <time>2015-11-09T20:48:51.000Z</time>
      </trkpt>
      <trkpt lat="48.86275" lon="2.29495">
        <ele>33.200000762939</ele>
        <time>2015-11-09T20:48:59.000Z</time>
      </trkpt>
      <trkpt lat="48.86267" lon="2.29466">
        <ele>34</ele>
        <time>2015-11-09T20:49:07.000Z</time>
      </trkpt>
      <trkpt lat="48.86258" lon="2.29437">
        <ele>34.599998474121</ele>
        <time>2015-11-09T20:49:13.000Z</time>
      </trkpt>
      <trkpt lat="48.86246" lon="2.29413">
        <ele>34.799999237061</ele>
        <time>2015-11-09T20:49:18.000Z</time>
      </trkpt>
      <trkpt lat="48.86232" lon="2.29388">
        <ele>33.599998474121</ele>
        <time>2015-11-09T20:49:23.000Z</time>
      </trkpt>
      <trkpt lat="48.86217" lon="2.29366">
        <ele>32.400001525879</ele>
        <time>2015-11-09T20:49:28.000Z</time>
      </trkpt>
      <trkpt lat="48.86201" lon="2.29344">
        <ele>31</ele>
        <time>2015-11-09T20:49:33.000Z</time>
      </trkpt>
      <trkpt lat="48.86185" lon="2.29324">
        <ele>30.200000762939</ele>
        <time>2015-11-09T20:49:38.000Z</time>
      </trkpt>
      <trkpt lat="48.8617" lon="2.29307">
        <ele>30.60000038147</ele>
        <time>2015-11-09T20:49:43.000Z</time>
      </trkpt>
      <trkpt lat="48.86153" lon="2.29286">
        <ele>31</ele>
        <time>2015-11-09T20:49:48.000Z</time>
      </trkpt>
      <trkpt lat="48.86139" lon="2.29267">
        <ele>31.60000038147</ele>
        <time>2015-11-09T20:49:53.000Z</time>
      </trkpt>
      <trkpt lat="48.86126" lon="2.29248">
        <ele>32</ele>
        <time>2015-11-09T20:49:58.000Z</time>
      </trkpt>
      <trkpt lat="48.8611" lon="2.29229">
        <ele>31.39999961853</ele>
        <time>2015-11-09T20:50:03.000Z</time>
      </trkpt>
      <trkpt lat="48.86093" lon="2.29211">
        <ele>30.799999237061</ele>
        <time>2015-11-09T20:50:09.000Z</time>
      </trkpt>
      <trkpt lat="48.86078" lon="2.2919">
        <ele>30.39999961853</ele>
        <time>2015-11-09T20:50:15.000Z</time>
      </trkpt>
      <trkpt lat="48.86072" lon="2.29183">
        <ele>30.200000762939</ele>
        <time>2015-11-09T20:50:19.000Z</time>
      </trkpt>
      <trkpt lat="48.86058" lon="2.29165">
        <ele>29.60000038147</ele>
        <time>2015-11-09T20:50:28.000Z</time>
      </trkpt>
      <trkpt lat="48.86044" lon="2.29147">
        <ele>30</ele>
        <time>2015-11-09T20:50:35.000Z</time>
      </trkpt>
      <trkpt lat="48.8604" lon="2.29145">
        <ele>30</ele>
        <time>2015-11-09T20:50:37.000Z</time>
      </trkpt>
      <trkpt lat="48.8603" lon="2.29158">
        <ele>28.60000038147</ele>
        <time>2015-11-09T20:50:42.000Z</time>
      </trkpt>
      <trkpt lat="48.86016" lon="2.29181">
        <ele>27.39999961853</ele>
        <time>2015-11-09T20:50:48.000Z</time>
      </trkpt>
      <trkpt lat="48.86001" lon="2.29206">
        <ele>26.799999237061</ele>
        <time>2015-11-09T20:50:53.000Z</time>
      </trkpt>
      <trkpt lat="48.85987" lon="2.29226">
        <ele>27.200000762939</ele>
        <time>2015-11-09T20:50:57.000Z</time>
      </trkpt>
      <trkpt lat="48.85973" lon="2.29248">
        <ele>29.200000762939</ele>
        <time>2015-11-09T20:51:01.000Z</time>
      </trkpt>
      <trkpt lat="48.8596" lon="2.29269">
        <ele>31.60000038147</ele>
        <time>2015-11-09T20:51:05.000Z</time>
      </trkpt>
      <trkpt lat="48.85947" lon="2.29287">
        <ele>34.599998474121</ele>
        <time>2015-11-09T20:51:09.000Z</time>
      </trkpt>
      <trkpt lat="48.85932" lon="2.29307">
        <ele>37.599998474121</ele>
        <time>2015-11-09T20:51:14.000Z</time>
      </trkpt>
      <trkpt lat="48.85927" lon="2.29313">
        <ele>38.400001525879</ele>
        <time>2015-11-09T20:51:16.000Z</time>
      </trkpt>
      <trkpt lat="48.8591" lon="2.29318">
        <ele>38.799999237061</ele>
        <time>2015-11-09T20:51:22.000Z</time>
      </trkpt>
      <trkpt lat="48.85896" lon="2.29299">
        <ele>38.599998474121</ele>
        <time>2015-11-09T20:51:31.000Z</time>
      </trkpt>
      <trkpt lat="48.85895" lon="2.29297">
        <ele>38.599998474121</ele>
        <time>2015-11-09T20:51:33.000Z</time>
      </trkpt>
      <trkpt lat="48.85881" lon="2.29288">
        <ele>38.400001525879</ele>
        <time>2015-11-09T20:52:41.000Z</time>
      </trkpt>
      <trkpt lat="48.85867" lon="2.29267">
        <ele>38.200000762939</ele>
        <time>2015-11-09T20:52:47.000Z</time>
      </trkpt>
      <trkpt lat="48.85851" lon="2.29245">
        <ele>38.400001525879</ele>
        <time>2015-11-09T20:52:53.000Z</time>
      </trkpt>
      <trkpt lat="48.85838" lon="2.29225">
        <ele>38.599998474121</ele>
        <time>2015-11-09T20:52:58.000Z</time>
      </trkpt>
      <trkpt lat="48.85825" lon="2.29206">
        <ele>38.599998474121</ele>
        <time>2015-11-09T20:53:03.000Z</time>
      </trkpt>
      <trkpt lat="48.85812" lon="2.29186">
        <ele>38.599998474121</ele>
        <time>2015-11-09T20:53:07.000Z</time>
      </trkpt>
      <trkpt lat="48.85798" lon="2.29164">
        <ele>38.400001525879</ele>
        <time>2015-11-09T20:53:11.000Z</time>
      </trkpt>
      <trkpt lat="48.85784" lon="2.29141">
        <ele>38.200000762939</ele>
        <time>2015-11-09T20:53:15.000Z</time>
      </trkpt>
      <trkpt lat="48.8577" lon="2.29117">
        <ele>37.799999237061</ele>
        <time>2015-11-09T20:53:19.000Z</time>
      </trkpt>
      <trkpt lat="48.85753" lon="2.29094">
        <ele>36.200000762939</ele>
        <time>2015-11-09T20:53:23.000Z</time>
      </trkpt>
      <trkpt lat="48.85738" lon="2.29074">
        <ele>35.599998474121</ele>
        <time>2015-11-09T20:53:26.000Z</time>
      </trkpt>
      <trkpt lat="48.85722" lon="2.29053">
        <ele>36.400001525879</ele>
        <time>2015-11-09T20:53:29.000Z</time>
      </trkpt>
      <trkpt lat="48.85707" lon="2.29031">
        <ele>37.200000762939</ele>
        <time>2015-11-09T20:53:32.000Z</time>
      </trkpt>
      <trkpt lat="48.85701" lon="2.29025">
        <ele>37.400001525879</ele>
        <time>2015-11-09T20:53:33.000Z</time>
      </trkpt>
      <trkpt lat="48.85683" lon="2.29007">
        <ele>37.599998474121</ele>
        <time>2015-11-09T20:53:36.000Z</time>
      </trkpt>
      <trkpt lat="48.85664" lon="2.28993">
        <ele>36</ele>
        <time>2015-11-09T20:53:39.000Z</time>
      </trkpt>
      <trkpt lat="48.85645" lon="2.28983">
        <ele>34</ele>
        <time>2015-11-09T20:53:42.000Z</time>
      </trkpt>
      <trkpt lat="48.85625" lon="2.28974">
        <ele>32</ele>
        <time>2015-11-09T20:53:45.000Z</time>
      </trkpt>
      <trkpt lat="48.85608" lon="2.28964">
        <ele>30.200000762939</ele>
        <time>2015-11-09T20:53:48.000Z</time>
      </trkpt>
      <trkpt lat="48.85596" lon="2.28958">
        <ele>31.200000762939</ele>
        <time>2015-11-09T20:53:50.000Z</time>
      </trkpt>
      <trkpt lat="48.85573" lon="2.28947">
        <ele>33.799999237061</ele>
        <time>2015-11-09T20:53:54.000Z</time>
      </trkpt>
      <trkpt lat="48.85551" lon="2.28937">
        <ele>36.200000762939</ele>
        <time>2015-11-09T20:53:58.000Z</time>
      </trkpt>
      <trkpt lat="48.85532" lon="2.28924">
        <ele>38.200000762939</ele>
        <time>2015-11-09T20:54:02.000Z</time>
      </trkpt>
      <trkpt lat="48.85513" lon="2.28915">
        <ele>39.599998474121</ele>
        <time>2015-11-09T20:54:06.000Z</time>
      </trkpt>
      <trkpt lat="48.85493" lon="2.28901">
        <ele>40.400001525879</ele>
        <time>2015-11-09T20:54:11.000Z</time>
      </trkpt>
      <trkpt lat="48.85479" lon="2.28885">
        <ele>40.599998474121</ele>
        <time>2015-11-09T20:54:16.000Z</time>
      </trkpt>
      <trkpt lat="48.85484" lon="2.28862">
        <ele>39.599998474121</ele>
        <time>2015-11-09T20:54:28.000Z</time>
      </trkpt>
      <trkpt lat="48.85485" lon="2.28861">
        <ele>39.400001525879</ele>
        <time>2015-11-09T20:54:29.000Z</time>
      </trkpt>
      <trkpt lat="48.85493" lon="2.28852">
        <ele>38.599998474121</ele>
        <time>2015-11-09T20:54:35.000Z</time>
      </trkpt>
      <trkpt lat="48.85499" lon="2.2883">
        <ele>37.400001525879</ele>
        <time>2015-11-09T20:54:43.000Z</time>
      </trkpt>
      <trkpt lat="48.85514" lon="2.28812">
        <ele>35.200000762939</ele>
        <time>2015-11-09T20:54:51.000Z</time>
      </trkpt>
      <trkpt lat="48.85529" lon="2.28794">
        <ele>34.400001525879</ele>
        <time>2015-11-09T20:54:58.000Z</time>
      </trkpt>
      <trkpt lat="48.85547" lon="2.28776">
        <ele>33.200000762939</ele>
        <time>2015-11-09T20:55:07.000Z</time>
      </trkpt>
      <trkpt lat="48.85564" lon="2.28764">
        <ele>33</ele>
        <time>2015-11-09T20:55:12.000Z</time>
      </trkpt>
      <trkpt lat="48.85581" lon="2.28749">
        <ele>33</ele>
        <time>2015-11-09T20:55:17.000Z</time>
      </trkpt>
      <trkpt lat="48.856" lon="2.28732">
        <ele>32.799999237061</ele>
        <time>2015-11-09T20:55:22.000Z</time>
      </trkpt>
      <trkpt lat="48.85617" lon="2.28712">
        <ele>32.400001525879</ele>
        <time>2015-11-09T20:55:27.000Z</time>
      </trkpt>
      <trkpt lat="48.85635" lon="2.28695">
        <ele>31.60000038147</ele>
        <time>2015-11-09T20:55:32.000Z</time>
      </trkpt>
      <trkpt lat="48.85649" lon="2.28683">
        <ele>34.400001525879</ele>
        <time>2015-11-09T20:55:38.000Z</time>
      </trkpt>
      <trkpt lat="48.85651" lon="2.28674">
        <ele>36</ele>
        <time>2015-11-09T20:55:42.000Z</time>
      </trkpt>
      <trkpt lat="48.85648" lon="2.28658">
        <ele>37.599998474121</ele>
        <time>2015-11-09T20:55:46.000Z</time>
      </trkpt>
      <trkpt lat="48.85648" lon="2.28652">
        <ele>38</ele>
        <time>2015-11-09T20:55:48.000Z</time>
      </trkpt>
      <trkpt lat="48.8565" lon="2.28648">
        <ele>38.599998474121</ele>
        <time>2015-11-09T20:55:52.000Z</time>
      </trkpt>
      <trkpt lat="48.85652" lon="2.28647">
        <ele>38.799999237061</ele>
        <time>2015-11-09T20:55:54.000Z</time>
      </trkpt>
      <trkpt lat="48.85643" lon="2.28627">
        <ele>39.599998474121</ele>
        <time>2015-11-09T20:56:10.000Z</time>
      </trkpt>
      <trkpt lat="48.85628" lon="2.28609">
        <ele>39.200000762939</ele>
        <time>2015-11-09T20:56:15.000Z</time>
      </trkpt>
      <trkpt lat="48.85612" lon="2.28587">
        <ele>39.200000762939</ele>
        <time>2015-11-09T20:56:21.000Z</time>
      </trkpt>
      <trkpt lat="48.856" lon="2.28567">
        <ele>39.200000762939</ele>
        <time>2015-11-09T20:56:26.000Z</time>
      </trkpt>
      <trkpt lat="48.85587" lon="2.28541">
        <ele>39.599998474121</ele>
        <time>2015-11-09T20:56:32.000Z</time>
      </trkpt>
      <trkpt lat="48.85574" lon="2.28522">
        <ele>40</ele>
        <time>2015-11-09T20:56:40.000Z</time>
      </trkpt>
      <trkpt lat="48.85564" lon="2.285">
        <ele>40.400001525879</ele>
        <time>2015-11-09T20:57:19.000Z</time>
      </trkpt>
      <trkpt lat="48.85547" lon="2.28478">
        <ele>41.599998474121</ele>
        <time>2015-11-09T20:57:24.000Z</time>
      </trkpt>
      <trkpt lat="48.85531" lon="2.28461">
        <ele>42.599998474121</ele>
        <time>2015-11-09T20:57:27.000Z</time>
      </trkpt>
      <trkpt lat="48.85526" lon="2.28454">
        <ele>43</ele>
        <time>2015-11-09T20:57:28.000Z</time>
      </trkpt>
      <trkpt lat="48.8551" lon="2.28435">
        <ele>42.799999237061</ele>
        <time>2015-11-09T20:57:31.000Z</time>
      </trkpt>
      <trkpt lat="48.85493" lon="2.28416">
        <ele>42</ele>
        <time>2015-11-09T20:57:34.000Z</time>
      </trkpt>
      <trkpt lat="48.85478" lon="2.28396">
        <ele>40.599998474121</ele>
        <time>2015-11-09T20:57:37.000Z</time>
      </trkpt>
      <trkpt lat="48.85463" lon="2.28377">
        <ele>39.400001525879</ele>
        <time>2015-11-09T20:57:40.000Z</time>
      </trkpt>
      <trkpt lat="48.85449" lon="2.28357">
        <ele>38.200000762939</ele>
        <time>2015-11-09T20:57:43.000Z</time>
      </trkpt>
      <trkpt lat="48.85435" lon="2.28338">
        <ele>37</ele>
        <time>2015-11-09T20:57:46.000Z</time>
      </trkpt>
      <trkpt lat="48.85421" lon="2.28316">
        <ele>36.200000762939</ele>
        <time>2015-11-09T20:57:49.000Z</time>
      </trkpt>
      <trkpt lat="48.85408" lon="2.28292">
        <ele>35.200000762939</ele>
        <time>2015-11-09T20:57:52.000Z</time>
      </trkpt>
      <trkpt lat="48.85392" lon="2.28267">
        <ele>33.799999237061</ele>
        <time>2015-11-09T20:57:55.000Z</time>
      </trkpt>
      <trkpt lat="48.85376" lon="2.28242">
        <ele>33</ele>
        <time>2015-11-09T20:57:58.000Z</time>
      </trkpt>
      <trkpt lat="48.8536" lon="2.28216">
        <ele>34.599998474121</ele>
        <time>2015-11-09T20:58:01.000Z</time>
      </trkpt>
      <trkpt lat="48.85345" lon="2.2819">
        <ele>36</ele>
        <time>2015-11-09T20:58:04.000Z</time>
      </trkpt>
      <trkpt lat="48.8534" lon="2.28182">
        <ele>36.200000762939</ele>
        <time>2015-11-09T20:58:05.000Z</time>
      </trkpt>
      <trkpt lat="48.85325" lon="2.28159">
        <ele>36.799999237061</ele>
        <time>2015-11-09T20:58:08.000Z</time>
      </trkpt>
      <trkpt lat="48.85311" lon="2.28136">
        <ele>35.400001525879</ele>
        <time>2015-11-09T20:58:11.000Z</time>
      </trkpt>
      <trkpt lat="48.85298" lon="2.28113">
        <ele>34.200000762939</ele>
        <time>2015-11-09T20:58:14.000Z</time>
      </trkpt>
      <trkpt lat="48.8529" lon="2.28097">
        <ele>33.599998474121</ele>
        <time>2015-11-09T20:58:16.000Z</time>
      </trkpt>
      <trkpt lat="48.85277" lon="2.28073">
        <ele>33.400001525879</ele>
        <time>2015-11-09T20:58:19.000Z</time>
      </trkpt>
      <trkpt lat="48.85264" lon="2.2805">
        <ele>33.200000762939</ele>
        <time>2015-11-09T20:58:22.000Z</time>
      </trkpt>
      <trkpt lat="48.8525" lon="2.28027">
        <ele>33.799999237061</ele>
        <time>2015-11-09T20:58:25.000Z</time>
      </trkpt>
      <trkpt lat="48.85236" lon="2.28002">
        <ele>34.400001525879</ele>
        <time>2015-11-09T20:58:28.000Z</time>
      </trkpt>
      <trkpt lat="48.85231" lon="2.27995">
        <ele>34.599998474121</ele>
        <time>2015-11-09T20:58:29.000Z</time>
      </trkpt>
      <trkpt lat="48.85216" lon="2.27973">
        <ele>34.799999237061</ele>
        <time>2015-11-09T20:58:32.000Z</time>
      </trkpt>
      <trkpt lat="48.85211" lon="2.27966">
        <ele>34.799999237061</ele>
        <time>2015-11-09T20:58:33.000Z</time>
      </trkpt>
      <trkpt lat="48.85196" lon="2.27943">
        <ele>35</ele>
        <time>2015-11-09T20:58:36.000Z</time>
      </trkpt>
      <trkpt lat="48.85182" lon="2.27918">
        <ele>35.400001525879</ele>
        <time>2015-11-09T20:58:39.000Z</time>
      </trkpt>
      <trkpt lat="48.85169" lon="2.27893">
        <ele>36.200000762939</ele>
        <time>2015-11-09T20:58:42.000Z</time>
      </trkpt>
      <trkpt lat="48.85157" lon="2.27871">
        <ele>36.400001525879</ele>
        <time>2015-11-09T20:58:45.000Z</time>
      </trkpt>
      <trkpt lat="48.85154" lon="2.27865">
        <ele>36.599998474121</ele>
        <time>2015-11-09T20:58:46.000Z</time>
      </trkpt>
      <trkpt lat="48.85146" lon="2.27853">
        <ele>36.799999237061</ele>
        <time>2015-11-09T20:58:49.000Z</time>
      </trkpt>
      <trkpt lat="48.85145" lon="2.2785">
        <ele>36.799999237061</ele>
        <time>2015-11-09T20:58:52.000Z</time>
      </trkpt>
      <trkpt lat="48.85142" lon="2.27863">
        <ele>36.599998474121</ele>
        <time>2015-11-09T20:58:59.000Z</time>
      </trkpt>
      <trkpt lat="48.85137" lon="2.2787">
        <ele>36</ele>
        <time>2015-11-09T20:59:04.000Z</time>
      </trkpt>
      <trkpt lat="48.8512" lon="2.27881">
        <ele>34.599998474121</ele>
        <time>2015-11-09T20:59:48.000Z</time>
      </trkpt>
      <trkpt lat="48.85103" lon="2.27886">
        <ele>33.400001525879</ele>
        <time>2015-11-09T21:00:15.000Z</time>
      </trkpt>
      <trkpt lat="48.85088" lon="2.27905">
        <ele>32.599998474121</ele>
        <time>2015-11-09T21:00:20.000Z</time>
      </trkpt>
      <trkpt lat="48.85074" lon="2.27919">
        <ele>32.799999237061</ele>
        <time>2015-11-09T21:00:23.000Z</time>
      </trkpt>
      <trkpt lat="48.8506" lon="2.27941">
        <ele>32.400001525879</ele>
        <time>2015-11-09T21:00:26.000Z</time>
      </trkpt>
      <trkpt lat="48.85046" lon="2.27964">
        <ele>31.39999961853</ele>
        <time>2015-11-09T21:00:29.000Z</time>
      </trkpt>
      <trkpt lat="48.85031" lon="2.27988">
        <ele>30.39999961853</ele>
        <time>2015-11-09T21:00:32.000Z</time>
      </trkpt>
      <trkpt lat="48.85015" lon="2.28013">
        <ele>29.200000762939</ele>
        <time>2015-11-09T21:00:35.000Z</time>
      </trkpt>
      <trkpt lat="48.84999" lon="2.28039">
        <ele>28</ele>
        <time>2015-11-09T21:00:38.000Z</time>
      </trkpt>
      <trkpt lat="48.84984" lon="2.28063">
        <ele>28.200000762939</ele>
        <time>2015-11-09T21:00:41.000Z</time>
      </trkpt>
      <trkpt lat="48.84971" lon="2.28083">
        <ele>29.39999961853</ele>
        <time>2015-11-09T21:00:44.000Z</time>
      </trkpt>
      <trkpt lat="48.84958" lon="2.28102">
        <ele>31</ele>
        <time>2015-11-09T21:00:47.000Z</time>
      </trkpt>
      <trkpt lat="48.84944" lon="2.28124">
        <ele>31.39999961853</ele>
        <time>2015-11-09T21:00:51.000Z</time>
      </trkpt>
      <trkpt lat="48.84937" lon="2.28133">
        <ele>31.60000038147</ele>
        <time>2015-11-09T21:00:53.000Z</time>
      </trkpt>
      <trkpt lat="48.84932" lon="2.28139">
        <ele>32</ele>
        <time>2015-11-09T21:00:55.000Z</time>
      </trkpt>
      <trkpt lat="48.84919" lon="2.28136">
        <ele>33.400001525879</ele>
        <time>2015-11-09T21:01:00.000Z</time>
      </trkpt>
      <trkpt lat="48.84913" lon="2.28125">
        <ele>34.200000762939</ele>
        <time>2015-11-09T21:01:04.000Z</time>
      </trkpt>
      <trkpt lat="48.84912" lon="2.28122">
        <ele>34.400001525879</ele>
        <time>2015-11-09T21:01:08.000Z</time>
      </trkpt>
      <trkpt lat="48.84913" lon="2.2812">
        <ele>34.400001525879</ele>
        <time>2015-11-09T21:01:09.000Z</time>
      </trkpt>
      <trkpt lat="48.849" lon="2.28103">
        <ele>36</ele>
        <time>2015-11-09T21:01:48.000Z</time>
      </trkpt>
      <trkpt lat="48.84887" lon="2.28082">
        <ele>37.599998474121</ele>
        <time>2015-11-09T21:01:52.000Z</time>
      </trkpt>
      <trkpt lat="48.84869" lon="2.28057">
        <ele>38.400001525879</ele>
        <time>2015-11-09T21:01:56.000Z</time>
      </trkpt>
      <trkpt lat="48.84855" lon="2.28036">
        <ele>39</ele>
        <time>2015-11-09T21:01:59.000Z</time>
      </trkpt>
      <trkpt lat="48.84835" lon="2.28013">
        <ele>38.799999237061</ele>
        <time>2015-11-09T21:02:02.000Z</time>
      </trkpt>
      <trkpt lat="48.84816" lon="2.27989">
        <ele>38</ele>
        <time>2015-11-09T21:02:05.000Z</time>
      </trkpt>
      <trkpt lat="48.84797" lon="2.27966">
        <ele>35.799999237061</ele>
        <time>2015-11-09T21:02:08.000Z</time>
      </trkpt>
      <trkpt lat="48.84781" lon="2.27943">
        <ele>33.599998474121</ele>
        <time>2015-11-09T21:02:11.000Z</time>
      </trkpt>
      <trkpt lat="48.84766" lon="2.27923">
        <ele>32.200000762939</ele>
        <time>2015-11-09T21:02:14.000Z</time>
      </trkpt>
      <trkpt lat="48.84752" lon="2.27904">
        <ele>31.39999961853</ele>
        <time>2015-11-09T21:02:17.000Z</time>
      </trkpt>
      <trkpt lat="48.84735" lon="2.2788">
        <ele>29.799999237061</ele>
        <time>2015-11-09T21:02:21.000Z</time>
      </trkpt>
      <trkpt lat="48.84717" lon="2.27856">
        <ele>28.60000038147</ele>
        <time>2015-11-09T21:02:25.000Z</time>
      </trkpt>
      <trkpt lat="48.84703" lon="2.27833">
        <ele>27.60000038147</ele>
        <time>2015-11-09T21:02:28.000Z</time>
      </trkpt>
      <trkpt lat="48.84688" lon="2.2781">
        <ele>28.799999237061</ele>
        <time>2015-11-09T21:02:31.000Z</time>
      </trkpt>
      <trkpt lat="48.84672" lon="2.27787">
        <ele>31</ele>
        <time>2015-11-09T21:02:34.000Z</time>
      </trkpt>
      <trkpt lat="48.84657" lon="2.27765">
        <ele>33</ele>
        <time>2015-11-09T21:02:37.000Z</time>
      </trkpt>
      <trkpt lat="48.84643" lon="2.27744">
        <ele>34.799999237061</ele>
        <time>2015-11-09T21:02:40.000Z</time>
      </trkpt>
      <trkpt lat="48.8463" lon="2.27723">
        <ele>34.599998474121</ele>
        <time>2015-11-09T21:02:43.000Z</time>
      </trkpt>
      <trkpt lat="48.84621" lon="2.27711">
        <ele>34.599998474121</ele>
        <time>2015-11-09T21:02:45.000Z</time>
      </trkpt>
      <trkpt lat="48.8461" lon="2.27684">
        <ele>33.799999237061</ele>
        <time>2015-11-09T21:02:49.000Z</time>
      </trkpt>
      <trkpt lat="48.8462" lon="2.27661">
        <ele>32.200000762939</ele>
        <time>2015-11-09T21:02:53.000Z</time>
      </trkpt>
      <trkpt lat="48.84632" lon="2.27637">
        <ele>30.39999961853</ele>
        <time>2015-11-09T21:02:58.000Z</time>
      </trkpt>
      <trkpt lat="48.84642" lon="2.27612">
        <ele>28.799999237061</ele>
        <time>2015-11-09T21:03:03.000Z</time>
      </trkpt>
      <trkpt lat="48.84648" lon="2.27598">
        <ele>27.60000038147</ele>
        <time>2015-11-09T21:03:06.000Z</time>
      </trkpt>
      <trkpt lat="48.84652" lon="2.27589">
        <ele>26.799999237061</ele>
        <time>2015-11-09T21:03:08.000Z</time>
      </trkpt>
      <trkpt lat="48.84662" lon="2.27565">
        <ele>25.799999237061</ele>
        <time>2015-11-09T21:03:13.000Z</time>
      </trkpt>
      <trkpt lat="48.84665" lon="2.2756">
        <ele>25.799999237061</ele>
        <time>2015-11-09T21:03:14.000Z</time>
      </trkpt>
      <trkpt lat="48.84676" lon="2.27534">
        <ele>27.60000038147</ele>
        <time>2015-11-09T21:03:19.000Z</time>
      </trkpt>
      <trkpt lat="48.84688" lon="2.27507">
        <ele>30</ele>
        <time>2015-11-09T21:03:24.000Z</time>
      </trkpt>
      <trkpt lat="48.847" lon="2.2748">
        <ele>34.200000762939</ele>
        <time>2015-11-09T21:03:29.000Z</time>
      </trkpt>
      <trkpt lat="48.84702" lon="2.27475">
        <ele>35</ele>
        <time>2015-11-09T21:03:30.000Z</time>
      </trkpt>
      <trkpt lat="48.84709" lon="2.27461">
        <ele>37.400001525879</ele>
        <time>2015-11-09T21:03:34.000Z</time>
      </trkpt>
      <trkpt lat="48.84711" lon="2.27456">
        <ele>38.200000762939</ele>
        <time>2015-11-09T21:05:10.000Z</time>
      </trkpt>
      <trkpt lat="48.84719" lon="2.27428">
        <ele>40.400001525879</ele>
        <time>2015-11-09T21:05:23.000Z</time>
      </trkpt>
      <trkpt lat="48.8473" lon="2.27402">
        <ele>40.599998474121</ele>
        <time>2015-11-09T21:05:29.000Z</time>
      </trkpt>
      <trkpt lat="48.84734" lon="2.27372">
        <ele>41.200000762939</ele>
        <time>2015-11-09T21:05:35.000Z</time>
      </trkpt>
      <trkpt lat="48.84731" lon="2.27358">
        <ele>41.599998474121</ele>
        <time>2015-11-09T21:05:41.000Z</time>
      </trkpt>
      <trkpt lat="48.84717" lon="2.27334">
        <ele>41.400001525879</ele>
        <time>2015-11-09T21:05:48.000Z</time>
      </trkpt>
      <trkpt lat="48.84696" lon="2.27322">
        <ele>40.799999237061</ele>
        <time>2015-11-09T21:05:53.000Z</time>
      </trkpt>
      <trkpt lat="48.84677" lon="2.2731">
        <ele>40</ele>
        <time>2015-11-09T21:05:57.000Z</time>
      </trkpt>
      <trkpt lat="48.84658" lon="2.27293">
        <ele>38.799999237061</ele>
        <time>2015-11-09T21:06:01.000Z</time>
      </trkpt>
      <trkpt lat="48.84638" lon="2.27275">
        <ele>37.799999237061</ele>
        <time>2015-11-09T21:06:05.000Z</time>
      </trkpt>
      <trkpt lat="48.84627" lon="2.27263">
        <ele>37.200000762939</ele>
        <time>2015-11-09T21:06:07.000Z</time>
      </trkpt>
      <trkpt lat="48.84611" lon="2.27245">
        <ele>36.599998474121</ele>
        <time>2015-11-09T21:06:10.000Z</time>
      </trkpt>
      <trkpt lat="48.84593" lon="2.27229">
        <ele>37.400001525879</ele>
        <time>2015-11-09T21:06:13.000Z</time>
      </trkpt>
      <trkpt lat="48.84576" lon="2.27209">
        <ele>39</ele>
        <time>2015-11-09T21:06:16.000Z</time>
      </trkpt>
      <trkpt lat="48.84559" lon="2.2719">
        <ele>40.400001525879</ele>
        <time>2015-11-09T21:06:19.000Z</time>
      </trkpt>
      <trkpt lat="48.84543" lon="2.27173">
        <ele>41.599998474121</ele>
        <time>2015-11-09T21:06:22.000Z</time>
      </trkpt>
      <trkpt lat="48.84538" lon="2.27167">
        <ele>42</ele>
        <time>2015-11-09T21:06:23.000Z</time>
      </trkpt>
      <trkpt lat="48.84519" lon="2.27147">
        <ele>41.799999237061</ele>
        <time>2015-11-09T21:06:27.000Z</time>
      </trkpt>
      <trkpt lat="48.84502" lon="2.27133">
        <ele>42.799999237061</ele>
        <time>2015-11-09T21:06:30.000Z</time>
      </trkpt>
      <trkpt lat="48.84485" lon="2.27118">
        <ele>43.599998474121</ele>
        <time>2015-11-09T21:06:33.000Z</time>
      </trkpt>
      <trkpt lat="48.84466" lon="2.27105">
        <ele>44.599998474121</ele>
        <time>2015-11-09T21:06:36.000Z</time>
      </trkpt>
      <trkpt lat="48.84447" lon="2.2709">
        <ele>45.599998474121</ele>
        <time>2015-11-09T21:06:39.000Z</time>
      </trkpt>
      <trkpt lat="48.84429" lon="2.27076">
        <ele>46</ele>
        <time>2015-11-09T21:06:42.000Z</time>
      </trkpt>
      <trkpt lat="48.84411" lon="2.27058">
        <ele>46.200000762939</ele>
        <time>2015-11-09T21:06:45.000Z</time>
      </trkpt>
      <trkpt lat="48.84392" lon="2.27041">
        <ele>46.400001525879</ele>
        <time>2015-11-09T21:06:48.000Z</time>
      </trkpt>
      <trkpt lat="48.84373" lon="2.27023">
        <ele>46.599998474121</ele>
        <time>2015-11-09T21:06:51.000Z</time>
      </trkpt>
      <trkpt lat="48.84354" lon="2.27007">
        <ele>46.799999237061</ele>
        <time>2015-11-09T21:06:54.000Z</time>
      </trkpt>
      <trkpt lat="48.84349" lon="2.27002">
        <ele>46.200000762939</ele>
        <time>2015-11-09T21:06:55.000Z</time>
      </trkpt>
      <trkpt lat="48.84332" lon="2.26984">
        <ele>45.400001525879</ele>
        <time>2015-11-09T21:06:58.000Z</time>
      </trkpt>
      <trkpt lat="48.84315" lon="2.26968">
        <ele>44.799999237061</ele>
        <time>2015-11-09T21:07:01.000Z</time>
      </trkpt>
      <trkpt lat="48.84298" lon="2.26949">
        <ele>44.200000762939</ele>
        <time>2015-11-09T21:07:04.000Z</time>
      </trkpt>
      <trkpt lat="48.8428" lon="2.26929">
        <ele>43.799999237061</ele>
        <time>2015-11-09T21:07:07.000Z</time>
      </trkpt>
      <trkpt lat="48.8427" lon="2.26912">
        <ele>43.799999237061</ele>
        <time>2015-11-09T21:07:09.000Z</time>
      </trkpt>
      <trkpt lat="48.84258" lon="2.26883">
        <ele>43.200000762939</ele>
        <time>2015-11-09T21:07:12.000Z</time>
      </trkpt>
      <trkpt lat="48.84244" lon="2.26853">
        <ele>42.400001525879</ele>
        <time>2015-11-09T21:07:15.000Z</time>
      </trkpt>
      <trkpt lat="48.84232" lon="2.26825">
        <ele>42</ele>
        <time>2015-11-09T21:07:18.000Z</time>
      </trkpt>
      <trkpt lat="48.84219" lon="2.26798">
        <ele>42.400001525879</ele>
        <time>2015-11-09T21:07:21.000Z</time>
      </trkpt>
      <trkpt lat="48.84205" lon="2.26769">
        <ele>43</ele>
        <time>2015-11-09T21:07:24.000Z</time>
      </trkpt>
      <trkpt lat="48.84192" lon="2.26743">
        <ele>43</ele>
        <time>2015-11-09T21:07:27.000Z</time>
      </trkpt>
      <trkpt lat="48.84181" lon="2.26717">
        <ele>43.599998474121</ele>
        <time>2015-11-09T21:07:30.000Z</time>
      </trkpt>
      <trkpt lat="48.84169" lon="2.26692">
        <ele>44</ele>
        <time>2015-11-09T21:07:33.000Z</time>
      </trkpt>
      <trkpt lat="48.84158" lon="2.26667">
        <ele>44.599998474121</ele>
        <time>2015-11-09T21:07:36.000Z</time>
      </trkpt>
      <trkpt lat="48.84147" lon="2.26643">
        <ele>44.799999237061</ele>
        <time>2015-11-09T21:07:39.000Z</time>
      </trkpt>
      <trkpt lat="48.84137" lon="2.26618">
        <ele>45</ele>
        <time>2015-11-09T21:07:42.000Z</time>
      </trkpt>
      <trkpt lat="48.84124" lon="2.26592">
        <ele>45</ele>
        <time>2015-11-09T21:07:46.000Z</time>
      </trkpt>
      <trkpt lat="48.84113" lon="2.26566">
        <ele>45</ele>
        <time>2015-11-09T21:07:50.000Z</time>
      </trkpt>
      <trkpt lat="48.8411" lon="2.26561">
        <ele>45</ele>
        <time>2015-11-09T21:07:51.000Z</time>
      </trkpt>
      <trkpt lat="48.841" lon="2.26546">
        <ele>45.200000762939</ele>
        <time>2015-11-09T21:07:55.000Z</time>
      </trkpt>
      <trkpt lat="48.84091" lon="2.26537">
        <ele>45.599998474121</ele>
        <time>2015-11-09T21:08:00.000Z</time>
      </trkpt>
      <trkpt lat="48.84089" lon="2.26535">
        <ele>45.799999237061</ele>
        <time>2015-11-09T21:08:02.000Z</time>
      </trkpt>
      <trkpt lat="48.84097" lon="2.26532">
        <ele>45.400001525879</ele>
        <time>2015-11-09T21:09:10.000Z</time>
      </trkpt>
      <trkpt lat="48.84091" lon="2.26514">
        <ele>45.799999237061</ele>
        <time>2015-11-09T21:09:33.000Z</time>
      </trkpt>
      <trkpt lat="48.84079" lon="2.26498">
        <ele>46.200000762939</ele>
        <time>2015-11-09T21:09:42.000Z</time>
      </trkpt>
      <trkpt lat="48.84064" lon="2.26515">
        <ele>47</ele>
        <time>2015-11-09T21:10:00.000Z</time>
      </trkpt>
      <trkpt lat="48.84054" lon="2.26542">
        <ele>47.400001525879</ele>
        <time>2015-11-09T21:10:05.000Z</time>
      </trkpt>
      <trkpt lat="48.84043" lon="2.26568">
        <ele>47.400001525879</ele>
        <time>2015-11-09T21:10:09.000Z</time>
      </trkpt>
      <trkpt lat="48.84032" lon="2.26591">
        <ele>47.400001525879</ele>
        <time>2015-11-09T21:10:12.000Z</time>
      </trkpt>
      <trkpt lat="48.84022" lon="2.26616">
        <ele>45.799999237061</ele>
        <time>2015-11-09T21:10:15.000Z</time>
      </trkpt>
      <trkpt lat="48.84011" lon="2.26641">
        <ele>43.400001525879</ele>
        <time>2015-11-09T21:10:18.000Z</time>
      </trkpt>
      <trkpt lat="48.84" lon="2.26665">
        <ele>42.599998474121</ele>
        <time>2015-11-09T21:10:21.000Z</time>
      </trkpt>
      <trkpt lat="48.83988" lon="2.26692">
        <ele>41.799999237061</ele>
        <time>2015-11-09T21:10:25.000Z</time>
      </trkpt>
      <trkpt lat="48.83978" lon="2.26716">
        <ele>40.599998474121</ele>
        <time>2015-11-09T21:10:29.000Z</time>
      </trkpt>
      <trkpt lat="48.83969" lon="2.26742">
        <ele>38</ele>
        <time>2015-11-09T21:10:33.000Z</time>
      </trkpt>
      <trkpt lat="48.83961" lon="2.26761">
        <ele>36.200000762939</ele>
        <time>2015-11-09T21:10:36.000Z</time>
      </trkpt>
      <trkpt lat="48.83949" lon="2.26785">
        <ele>33.799999237061</ele>
        <time>2015-11-09T21:10:40.000Z</time>
      </trkpt>
      <trkpt lat="48.83938" lon="2.26808">
        <ele>31.39999961853</ele>
        <time>2015-11-09T21:10:44.000Z</time>
      </trkpt>
      <trkpt lat="48.83928" lon="2.26825">
        <ele>29.799999237061</ele>
        <time>2015-11-09T21:10:47.000Z</time>
      </trkpt>
      <trkpt lat="48.83918" lon="2.26848">
        <ele>28.60000038147</ele>
        <time>2015-11-09T21:10:51.000Z</time>
      </trkpt>
      <trkpt lat="48.83908" lon="2.26871">
        <ele>27.39999961853</ele>
        <time>2015-11-09T21:10:55.000Z</time>
      </trkpt>
      <trkpt lat="48.83897" lon="2.26896">
        <ele>27.60000038147</ele>
        <time>2015-11-09T21:11:00.000Z</time>
      </trkpt>
      <trkpt lat="48.83884" lon="2.26922">
        <ele>29</ele>
        <time>2015-11-09T21:11:06.000Z</time>
      </trkpt>
      <trkpt lat="48.83872" lon="2.26943">
        <ele>31.200000762939</ele>
        <time>2015-11-09T21:11:12.000Z</time>
      </trkpt>
      <trkpt lat="48.83862" lon="2.26965">
        <ele>33.799999237061</ele>
        <time>2015-11-09T21:11:19.000Z</time>
      </trkpt>
      <trkpt lat="48.8386" lon="2.2697">
        <ele>34.400001525879</ele>
        <time>2015-11-09T21:11:22.000Z</time>
      </trkpt>
      <trkpt lat="48.83865" lon="2.26976">
        <ele>34.799999237061</ele>
        <time>2015-11-09T21:12:55.000Z</time>
      </trkpt>
      <trkpt lat="48.83867" lon="2.26985">
        <ele>35.599998474121</ele>
        <time>2015-11-09T21:12:59.000Z</time>
      </trkpt>
      <trkpt lat="48.83873" lon="2.26994">
        <ele>36.200000762939</ele>
        <time>2015-11-09T21:13:03.000Z</time>
      </trkpt>
      <trkpt lat="48.83889" lon="2.27009">
        <ele>37.599998474121</ele>
        <time>2015-11-09T21:13:11.000Z</time>
      </trkpt>
      <trkpt lat="48.83884" lon="2.27011">
        <ele>37.799999237061</ele>
        <time>2015-11-09T21:13:19.000Z</time>
      </trkpt>
      <trkpt lat="48.83895" lon="2.27033">
        <ele>40.400001525879</ele>
        <time>2015-11-09T21:13:29.000Z</time>
      </trkpt>
      <trkpt lat="48.83897" lon="2.27037">
        <ele>40.799999237061</ele>
        <time>2015-11-09T21:13:30.000Z</time>
      </trkpt>
      <trkpt lat="48.83913" lon="2.27059">
        <ele>42.799999237061</ele>
        <time>2015-11-09T21:13:36.000Z</time>
      </trkpt>
      <trkpt lat="48.83929" lon="2.2708">
        <ele>44.400001525879</ele>
        <time>2015-11-09T21:13:42.000Z</time>
      </trkpt>
      <trkpt lat="48.83943" lon="2.27094">
        <ele>44</ele>
        <time>2015-11-09T21:13:49.000Z</time>
      </trkpt>
      <trkpt lat="48.83944" lon="2.27101">
        <ele>43.799999237061</ele>
        <time>2015-11-09T21:13:53.000Z</time>
      </trkpt>
      <trkpt lat="48.83951" lon="2.27115">
        <ele>42.400001525879</ele>
        <time>2015-11-09T21:14:43.000Z</time>
      </trkpt>
      <trkpt lat="48.83959" lon="2.27116">
        <ele>41.599998474121</ele>
        <time>2015-11-09T21:15:22.000Z</time>
      </trkpt>
      <trkpt lat="48.83964" lon="2.27132">
        <ele>40.400001525879</ele>
        <time>2015-11-09T21:16:03.000Z</time>
      </trkpt>
      <trkpt lat="48.8396" lon="2.27135">
        <ele>40.799999237061</ele>
        <time>2015-11-09T21:16:09.000Z</time>
      </trkpt>
      <trkpt lat="48.83962" lon="2.27143">
        <ele>40.200000762939</ele>
        <time>2015-11-09T21:16:15.000Z</time>
      </trkpt>
      <trkpt lat="48.83962" lon="2.27168">
        <ele>39.599998474121</ele>
        <time>2015-11-09T21:16:25.000Z</time>
      </trkpt>
      <trkpt lat="48.83975" lon="2.27168">
        <ele>38.200000762939</ele>
        <time>2015-11-09T21:16:28.000Z</time>
      </trkpt>
      <trkpt lat="48.83979" lon="2.27172">
        <ele>38</ele>
        <time>2015-11-09T21:16:31.000Z</time>
      </trkpt>
      <trkpt lat="48.83982" lon="2.27172">
        <ele>37.599998474121</ele>
        <time>2015-11-09T21:16:34.000Z</time>
      </trkpt>
      <trkpt lat="48.83983" lon="2.27178">
        <ele>37.599998474121</ele>
        <time>2015-11-09T21:17:00.000Z</time>
      </trkpt>
      <trkpt lat="48.83994" lon="2.27167">
        <ele>36.200000762939</ele>
        <time>2015-11-09T21:17:14.000Z</time>
      </trkpt>
      <trkpt lat="48.84007" lon="2.27151">
        <ele>35</ele>
        <time>2015-11-09T21:17:38.000Z</time>
      </trkpt>
      <trkpt lat="48.8402" lon="2.27132">
        <ele>34</ele>
        <time>2015-11-09T21:17:44.000Z</time>
      </trkpt>
      <trkpt lat="48.84026" lon="2.2712">
        <ele>33.799999237061</ele>
        <time>2015-11-09T21:17:50.000Z</time>
      </trkpt>
      <trkpt lat="48.84027" lon="2.27114">
        <ele>34</ele>
        <time>2015-11-09T21:17:55.000Z</time>
      </trkpt>
      <trkpt lat="48.84028" lon="2.27112">
        <ele>34</ele>
        <time>2015-11-09T21:17:57.000Z</time>
      </trkpt>
      <trkpt lat="48.84032" lon="2.27126">
        <ele>33.400001525879</ele>
        <time>2015-11-09T21:18:07.000Z</time>
      </trkpt>
      <trkpt lat="48.84043" lon="2.27121">
        <ele>33</ele>
        <time>2015-11-09T21:18:12.000Z</time>
      </trkpt>
      <trkpt lat="48.8406" lon="2.27122">
        <ele>32.200000762939</ele>
        <time>2015-11-09T21:18:20.000Z</time>
      </trkpt>
      <trkpt lat="48.84078" lon="2.27137">
        <ele>31</ele>
        <time>2015-11-09T21:18:28.000Z</time>
      </trkpt>
      <trkpt lat="48.84094" lon="2.27152">
        <ele>29.799999237061</ele>
        <time>2015-11-09T21:18:34.000Z</time>
      </trkpt>
      <trkpt lat="48.84109" lon="2.27166">
        <ele>29.200000762939</ele>
        <time>2015-11-09T21:18:40.000Z</time>
      </trkpt>
      <trkpt lat="48.84126" lon="2.27178">
        <ele>30</ele>
        <time>2015-11-09T21:18:46.000Z</time>
      </trkpt>
      <trkpt lat="48.84141" lon="2.27192">
        <ele>31</ele>
        <time>2015-11-09T21:18:53.000Z</time>
      </trkpt>
      <trkpt lat="48.8416" lon="2.27195">
        <ele>31.39999961853</ele>
        <time>2015-11-09T21:19:00.000Z</time>
      </trkpt>
      <trkpt lat="48.84179" lon="2.27201">
        <ele>32.200000762939</ele>
        <time>2015-11-09T21:19:07.000Z</time>
      </trkpt>
      <trkpt lat="48.84197" lon="2.27216">
        <ele>32.799999237061</ele>
        <time>2015-11-09T21:19:15.000Z</time>
      </trkpt>
      <trkpt lat="48.84214" lon="2.27229">
        <ele>33.400001525879</ele>
        <time>2015-11-09T21:19:22.000Z</time>
      </trkpt>
      <trkpt lat="48.84231" lon="2.27244">
        <ele>34</ele>
        <time>2015-11-09T21:19:29.000Z</time>
      </trkpt>
      <trkpt lat="48.84247" lon="2.27264">
        <ele>33</ele>
        <time>2015-11-09T21:19:36.000Z</time>
      </trkpt>
      <trkpt lat="48.84257" lon="2.27291">
        <ele>31.39999961853</ele>
        <time>2015-11-09T21:19:43.000Z</time>
      </trkpt>
      <trkpt lat="48.84271" lon="2.27309">
        <ele>30.200000762939</ele>
        <time>2015-11-09T21:19:50.000Z</time>
      </trkpt>
      <trkpt lat="48.84288" lon="2.27325">
        <ele>29</ele>
        <time>2015-11-09T21:19:57.000Z</time>
      </trkpt>
      <trkpt lat="48.84306" lon="2.27341">
        <ele>28.799999237061</ele>
        <time>2015-11-09T21:20:03.000Z</time>
      </trkpt>
      <trkpt lat="48.84321" lon="2.27359">
        <ele>29.200000762939</ele>
        <time>2015-11-09T21:20:08.000Z</time>
      </trkpt>
      <trkpt lat="48.84338" lon="2.27376">
        <ele>29.39999961853</ele>
        <time>2015-11-09T21:20:13.000Z</time>
      </trkpt>
      <trkpt lat="48.84354" lon="2.27393">
        <ele>29.60000038147</ele>
        <time>2015-11-09T21:20:18.000Z</time>
      </trkpt>
      <trkpt lat="48.8437" lon="2.27408">
        <ele>29.60000038147</ele>
        <time>2015-11-09T21:20:27.000Z</time>
      </trkpt>
      <trkpt lat="48.84384" lon="2.27427">
        <ele>30.60000038147</ele>
        <time>2015-11-09T21:20:33.000Z</time>
      </trkpt>
      <trkpt lat="48.844" lon="2.27445">
        <ele>32</ele>
        <time>2015-11-09T21:20:38.000Z</time>
      </trkpt>
      <trkpt lat="48.84415" lon="2.27462">
        <ele>33.200000762939</ele>
        <time>2015-11-09T21:20:42.000Z</time>
      </trkpt>
      <trkpt lat="48.84433" lon="2.27478">
        <ele>34.400001525879</ele>
        <time>2015-11-09T21:20:46.000Z</time>
      </trkpt>
      <trkpt lat="48.8445" lon="2.27494">
        <ele>35</ele>
        <time>2015-11-09T21:20:50.000Z</time>
      </trkpt>
      <trkpt lat="48.84468" lon="2.27508">
        <ele>34.200000762939</ele>
        <time>2015-11-09T21:20:54.000Z</time>
      </trkpt>
      <trkpt lat="48.84487" lon="2.27524">
        <ele>33.200000762939</ele>
        <time>2015-11-09T21:20:59.000Z</time>
      </trkpt>
      <trkpt lat="48.84505" lon="2.27541">
        <ele>32.400001525879</ele>
        <time>2015-11-09T21:21:04.000Z</time>
      </trkpt>
      <trkpt lat="48.84525" lon="2.27558">
        <ele>31.39999961853</ele>
        <time>2015-11-09T21:21:09.000Z</time>
      </trkpt>
      <trkpt lat="48.84544" lon="2.27568">
        <ele>31</ele>
        <time>2015-11-09T21:21:14.000Z</time>
      </trkpt>
      <trkpt lat="48.84552" lon="2.27574">
        <ele>30.799999237061</ele>
        <time>2015-11-09T21:21:17.000Z</time>
      </trkpt>
      <trkpt lat="48.8456" lon="2.27585">
        <ele>31</ele>
        <time>2015-11-09T21:22:32.000Z</time>
      </trkpt>
      <trkpt lat="48.84576" lon="2.27598">
        <ele>31</ele>
        <time>2015-11-09T21:22:50.000Z</time>
      </trkpt>
      <trkpt lat="48.84592" lon="2.27615">
        <ele>31.200000762939</ele>
        <time>2015-11-09T21:22:57.000Z</time>
      </trkpt>
      <trkpt lat="48.84607" lon="2.27633">
        <ele>31.39999961853</ele>
        <time>2015-11-09T21:23:03.000Z</time>
      </trkpt>
      <trkpt lat="48.84624" lon="2.27651">
        <ele>31.60000038147</ele>
        <time>2015-11-09T21:23:09.000Z</time>
      </trkpt>
      <trkpt lat="48.8464" lon="2.27674">
        <ele>31.60000038147</ele>
        <time>2015-11-09T21:23:15.000Z</time>
      </trkpt>
      <trkpt lat="48.84656" lon="2.27695">
        <ele>31.39999961853</ele>
        <time>2015-11-09T21:23:20.000Z</time>
      </trkpt>
      <trkpt lat="48.8467" lon="2.27712">
        <ele>31</ele>
        <time>2015-11-09T21:23:24.000Z</time>
      </trkpt>
      <trkpt lat="48.84687" lon="2.27732">
        <ele>30.799999237061</ele>
        <time>2015-11-09T21:23:29.000Z</time>
      </trkpt>
      <trkpt lat="48.84701" lon="2.27755">
        <ele>30</ele>
        <time>2015-11-09T21:23:34.000Z</time>
      </trkpt>
      <trkpt lat="48.84714" lon="2.27779">
        <ele>29</ele>
        <time>2015-11-09T21:23:39.000Z</time>
      </trkpt>
      <trkpt lat="48.84729" lon="2.27801">
        <ele>27.60000038147</ele>
        <time>2015-11-09T21:23:44.000Z</time>
      </trkpt>
      <trkpt lat="48.84735" lon="2.2781">
        <ele>27</ele>
        <time>2015-11-09T21:23:46.000Z</time>
      </trkpt>
      <trkpt lat="48.84749" lon="2.27833">
        <ele>26</ele>
        <time>2015-11-09T21:23:51.000Z</time>
      </trkpt>
      <trkpt lat="48.84763" lon="2.27854">
        <ele>26.799999237061</ele>
        <time>2015-11-09T21:23:56.000Z</time>
      </trkpt>
      <trkpt lat="48.84777" lon="2.27874">
        <ele>27.60000038147</ele>
        <time>2015-11-09T21:24:01.000Z</time>
      </trkpt>
      <trkpt lat="48.84794" lon="2.27897">
        <ele>28.799999237061</ele>
        <time>2015-11-09T21:24:06.000Z</time>
      </trkpt>
      <trkpt lat="48.84808" lon="2.27916">
        <ele>29.799999237061</ele>
        <time>2015-11-09T21:24:10.000Z</time>
      </trkpt>
      <trkpt lat="48.84823" lon="2.27934">
        <ele>31.39999961853</ele>
        <time>2015-11-09T21:24:14.000Z</time>
      </trkpt>
      <trkpt lat="48.84826" lon="2.27938">
        <ele>31.799999237061</ele>
        <time>2015-11-09T21:24:15.000Z</time>
      </trkpt>
      <trkpt lat="48.84839" lon="2.27958">
        <ele>33.599998474121</ele>
        <time>2015-11-09T21:24:19.000Z</time>
      </trkpt>
      <trkpt lat="48.84853" lon="2.27976">
        <ele>35.200000762939</ele>
        <time>2015-11-09T21:24:23.000Z</time>
      </trkpt>
      <trkpt lat="48.84867" lon="2.27994">
        <ele>36.200000762939</ele>
        <time>2015-11-09T21:24:27.000Z</time>
      </trkpt>
      <trkpt lat="48.84873" lon="2.28003">
        <ele>36</ele>
        <time>2015-11-09T21:24:29.000Z</time>
      </trkpt>
      <trkpt lat="48.8488" lon="2.28012">
        <ele>35.599998474121</ele>
        <time>2015-11-09T21:24:31.000Z</time>
      </trkpt>
      <trkpt lat="48.84893" lon="2.28031">
        <ele>34.799999237061</ele>
        <time>2015-11-09T21:24:35.000Z</time>
      </trkpt>
      <trkpt lat="48.84896" lon="2.28036">
        <ele>34.599998474121</ele>
        <time>2015-11-09T21:24:36.000Z</time>
      </trkpt>
      <trkpt lat="48.84911" lon="2.28054">
        <ele>33.799999237061</ele>
        <time>2015-11-09T21:24:41.000Z</time>
      </trkpt>
      <trkpt lat="48.84917" lon="2.28061">
        <ele>33.400001525879</ele>
        <time>2015-11-09T21:24:45.000Z</time>
      </trkpt>
      <trkpt lat="48.84918" lon="2.28051">
        <ele>33.200000762939</ele>
        <time>2015-11-09T21:24:52.000Z</time>
      </trkpt>
      <trkpt lat="48.84936" lon="2.28067">
        <ele>32.200000762939</ele>
        <time>2015-11-09T21:24:59.000Z</time>
      </trkpt>
      <trkpt lat="48.8495" lon="2.28084">
        <ele>31.200000762939</ele>
        <time>2015-11-09T21:25:03.000Z</time>
      </trkpt>
      <trkpt lat="48.84967" lon="2.28099">
        <ele>30.39999961853</ele>
        <time>2015-11-09T21:25:07.000Z</time>
      </trkpt>
      <trkpt lat="48.84982" lon="2.28118">
        <ele>29.799999237061</ele>
        <time>2015-11-09T21:25:11.000Z</time>
      </trkpt>
      <trkpt lat="48.84993" lon="2.28144">
        <ele>29.200000762939</ele>
        <time>2015-11-09T21:25:15.000Z</time>
      </trkpt>
      <trkpt lat="48.85003" lon="2.28167">
        <ele>28.799999237061</ele>
        <time>2015-11-09T21:25:19.000Z</time>
      </trkpt>
      <trkpt lat="48.85018" lon="2.28189">
        <ele>29.39999961853</ele>
        <time>2015-11-09T21:25:24.000Z</time>
      </trkpt>
      <trkpt lat="48.85034" lon="2.28213">
        <ele>29.60000038147</ele>
        <time>2015-11-09T21:25:29.000Z</time>
      </trkpt>
      <trkpt lat="48.8504" lon="2.2823">
        <ele>30</ele>
        <time>2015-11-09T21:25:32.000Z</time>
      </trkpt>
      <trkpt lat="48.85043" lon="2.28241">
        <ele>30.200000762939</ele>
        <time>2015-11-09T21:25:34.000Z</time>
      </trkpt>
      <trkpt lat="48.85059" lon="2.28265">
        <ele>30.200000762939</ele>
        <time>2015-11-09T21:25:39.000Z</time>
      </trkpt>
      <trkpt lat="48.85066" lon="2.28275">
        <ele>30.200000762939</ele>
        <time>2015-11-09T21:25:41.000Z</time>
      </trkpt>
      <trkpt lat="48.85079" lon="2.28295">
        <ele>30.200000762939</ele>
        <time>2015-11-09T21:25:45.000Z</time>
      </trkpt>
      <trkpt lat="48.85092" lon="2.28315">
        <ele>30.200000762939</ele>
        <time>2015-11-09T21:25:49.000Z</time>
      </trkpt>
      <trkpt lat="48.85107" lon="2.28335">
        <ele>30.200000762939</ele>
        <time>2015-11-09T21:25:53.000Z</time>
      </trkpt>
      <trkpt lat="48.85114" lon="2.28344">
        <ele>30.200000762939</ele>
        <time>2015-11-09T21:25:55.000Z</time>
      </trkpt>
      <trkpt lat="48.85127" lon="2.28363">
        <ele>30.39999961853</ele>
        <time>2015-11-09T21:25:59.000Z</time>
      </trkpt>
      <trkpt lat="48.85142" lon="2.28382">
        <ele>30.39999961853</ele>
        <time>2015-11-09T21:26:03.000Z</time>
      </trkpt>
      <trkpt lat="48.8515" lon="2.28391">
        <ele>30.39999961853</ele>
        <time>2015-11-09T21:26:05.000Z</time>
      </trkpt>
      <trkpt lat="48.85167" lon="2.28405">
        <ele>30</ele>
        <time>2015-11-09T21:26:09.000Z</time>
      </trkpt>
      <trkpt lat="48.85183" lon="2.28426">
        <ele>30</ele>
        <time>2015-11-09T21:26:13.000Z</time>
      </trkpt>
      <trkpt lat="48.85199" lon="2.28448">
        <ele>30.200000762939</ele>
        <time>2015-11-09T21:26:17.000Z</time>
      </trkpt>
      <trkpt lat="48.85212" lon="2.28464">
        <ele>30.39999961853</ele>
        <time>2015-11-09T21:26:20.000Z</time>
      </trkpt>
      <trkpt lat="48.85224" lon="2.28475">
        <ele>30.200000762939</ele>
        <time>2015-11-09T21:26:23.000Z</time>
      </trkpt>
      <trkpt lat="48.85232" lon="2.28485">
        <ele>30.39999961853</ele>
        <time>2015-11-09T21:26:26.000Z</time>
      </trkpt>
      <trkpt lat="48.85245" lon="2.28505">
        <ele>31</ele>
        <time>2015-11-09T21:26:30.000Z</time>
      </trkpt>
      <trkpt lat="48.85253" lon="2.28522">
        <ele>32.200000762939</ele>
        <time>2015-11-09T21:26:33.000Z</time>
      </trkpt>
      <trkpt lat="48.85265" lon="2.28545">
        <ele>33.400001525879</ele>
        <time>2015-11-09T21:26:37.000Z</time>
      </trkpt>
      <trkpt lat="48.85267" lon="2.28551">
        <ele>33.799999237061</ele>
        <time>2015-11-09T21:26:38.000Z</time>
      </trkpt>
      <trkpt lat="48.85282" lon="2.28574">
        <ele>34.799999237061</ele>
        <time>2015-11-09T21:26:43.000Z</time>
      </trkpt>
      <trkpt lat="48.85297" lon="2.28598">
        <ele>35.200000762939</ele>
        <time>2015-11-09T21:26:48.000Z</time>
      </trkpt>
      <trkpt lat="48.85313" lon="2.28619">
        <ele>35.400001525879</ele>
        <time>2015-11-09T21:26:53.000Z</time>
      </trkpt>
      <trkpt lat="48.85326" lon="2.28637">
        <ele>35.400001525879</ele>
        <time>2015-11-09T21:26:57.000Z</time>
      </trkpt>
      <trkpt lat="48.85337" lon="2.28658">
        <ele>35.799999237061</ele>
        <time>2015-11-09T21:27:01.000Z</time>
      </trkpt>
      <trkpt lat="48.85341" lon="2.28663">
        <ele>35.799999237061</ele>
        <time>2015-11-09T21:27:02.000Z</time>
      </trkpt>
      <trkpt lat="48.85358" lon="2.28681">
        <ele>36</ele>
        <time>2015-11-09T21:27:06.000Z</time>
      </trkpt>
      <trkpt lat="48.85373" lon="2.28701">
        <ele>35.599998474121</ele>
        <time>2015-11-09T21:27:10.000Z</time>
      </trkpt>
      <trkpt lat="48.85387" lon="2.28721">
        <ele>35.400001525879</ele>
        <time>2015-11-09T21:27:14.000Z</time>
      </trkpt>
      <trkpt lat="48.85394" lon="2.28729">
        <ele>35.200000762939</ele>
        <time>2015-11-09T21:27:16.000Z</time>
      </trkpt>
      <trkpt lat="48.85406" lon="2.28745">
        <ele>35</ele>
        <time>2015-11-09T21:27:20.000Z</time>
      </trkpt>
      <trkpt lat="48.8542" lon="2.28765">
        <ele>35.799999237061</ele>
        <time>2015-11-09T21:27:25.000Z</time>
      </trkpt>
      <trkpt lat="48.8543" lon="2.28779">
        <ele>36.400001525879</ele>
        <time>2015-11-09T21:27:29.000Z</time>
      </trkpt>
      <trkpt lat="48.85444" lon="2.28801">
        <ele>37.599998474121</ele>
        <time>2015-11-09T21:27:35.000Z</time>
      </trkpt>
      <trkpt lat="48.85447" lon="2.28803">
        <ele>37.599998474121</ele>
        <time>2015-11-09T21:27:36.000Z</time>
      </trkpt>
      <trkpt lat="48.85458" lon="2.28817">
        <ele>38.400001525879</ele>
        <time>2015-11-09T21:27:41.000Z</time>
      </trkpt>
      <trkpt lat="48.85465" lon="2.28826">
        <ele>39</ele>
        <time>2015-11-09T21:27:45.000Z</time>
      </trkpt>
      <trkpt lat="48.85476" lon="2.28843">
        <ele>39.200000762939</ele>
        <time>2015-11-09T21:28:09.000Z</time>
      </trkpt>
      <trkpt lat="48.85481" lon="2.28854">
        <ele>39.400001525879</ele>
        <time>2015-11-09T21:28:16.000Z</time>
      </trkpt>
      <trkpt lat="48.85486" lon="2.28854">
        <ele>39</ele>
        <time>2015-11-09T21:28:21.000Z</time>
      </trkpt>
      <trkpt lat="48.85501" lon="2.28862">
        <ele>38.400001525879</ele>
        <time>2015-11-09T21:28:54.000Z</time>
      </trkpt>
      <trkpt lat="48.85518" lon="2.28876">
        <ele>38</ele>
        <time>2015-11-09T21:29:02.000Z</time>
      </trkpt>
      <trkpt lat="48.85534" lon="2.28887">
        <ele>36.400001525879</ele>
        <time>2015-11-09T21:29:54.000Z</time>
      </trkpt>
      <trkpt lat="48.85552" lon="2.28897">
        <ele>34.200000762939</ele>
        <time>2015-11-09T21:30:00.000Z</time>
      </trkpt>
      <trkpt lat="48.8557" lon="2.28907">
        <ele>32</ele>
        <time>2015-11-09T21:30:05.000Z</time>
      </trkpt>
      <trkpt lat="48.85589" lon="2.28914">
        <ele>29.39999961853</ele>
        <time>2015-11-09T21:30:11.000Z</time>
      </trkpt>
      <trkpt lat="48.85607" lon="2.28921">
        <ele>27.60000038147</ele>
        <time>2015-11-09T21:30:19.000Z</time>
      </trkpt>
      <trkpt lat="48.85621" lon="2.28924">
        <ele>28.799999237061</ele>
        <time>2015-11-09T21:30:49.000Z</time>
      </trkpt>
      <trkpt lat="48.85643" lon="2.28928">
        <ele>31</ele>
        <time>2015-11-09T21:30:55.000Z</time>
      </trkpt>
      <trkpt lat="48.85663" lon="2.28934">
        <ele>33.200000762939</ele>
        <time>2015-11-09T21:31:00.000Z</time>
      </trkpt>
      <trkpt lat="48.85682" lon="2.2894">
        <ele>35.400001525879</ele>
        <time>2015-11-09T21:31:05.000Z</time>
      </trkpt>
      <trkpt lat="48.85701" lon="2.2895">
        <ele>35.400001525879</ele>
        <time>2015-11-09T21:31:10.000Z</time>
      </trkpt>
      <trkpt lat="48.85719" lon="2.28966">
        <ele>34.400001525879</ele>
        <time>2015-11-09T21:31:16.000Z</time>
      </trkpt>
      <trkpt lat="48.85735" lon="2.28982">
        <ele>33.599998474121</ele>
        <time>2015-11-09T21:31:21.000Z</time>
      </trkpt>
      <trkpt lat="48.85752" lon="2.28997">
        <ele>32.799999237061</ele>
        <time>2015-11-09T21:31:26.000Z</time>
      </trkpt>
      <trkpt lat="48.85766" lon="2.29014">
        <ele>32.200000762939</ele>
        <time>2015-11-09T21:31:31.000Z</time>
      </trkpt>
      <trkpt lat="48.85781" lon="2.29031">
        <ele>31.60000038147</ele>
        <time>2015-11-09T21:31:36.000Z</time>
      </trkpt>
      <trkpt lat="48.85797" lon="2.29051">
        <ele>31.200000762939</ele>
        <time>2015-11-09T21:31:42.000Z</time>
      </trkpt>
      <trkpt lat="48.85812" lon="2.2907">
        <ele>30.799999237061</ele>
        <time>2015-11-09T21:31:48.000Z</time>
      </trkpt>
      <trkpt lat="48.85827" lon="2.2909">
        <ele>30.39999961853</ele>
        <time>2015-11-09T21:31:54.000Z</time>
      </trkpt>
      <trkpt lat="48.85841" lon="2.29112">
        <ele>29.799999237061</ele>
        <time>2015-11-09T21:32:00.000Z</time>
      </trkpt>
      <trkpt lat="48.85856" lon="2.29131">
        <ele>29.200000762939</ele>
        <time>2015-11-09T21:32:06.000Z</time>
      </trkpt>
      <trkpt lat="48.85869" lon="2.29149">
        <ele>29.39999961853</ele>
        <time>2015-11-09T21:32:11.000Z</time>
      </trkpt>
      <trkpt lat="48.85884" lon="2.29168">
        <ele>29.799999237061</ele>
        <time>2015-11-09T21:32:17.000Z</time>
      </trkpt>
      <trkpt lat="48.85893" lon="2.2919">
        <ele>30.60000038147</ele>
        <time>2015-11-09T21:32:23.000Z</time>
      </trkpt>
      <trkpt lat="48.859" lon="2.29216">
        <ele>31.799999237061</ele>
        <time>2015-11-09T21:32:30.000Z</time>
      </trkpt>
      <trkpt lat="48.85908" lon="2.29227">
        <ele>32.400001525879</ele>
        <time>2015-11-09T21:32:33.000Z</time>
      </trkpt>
      <trkpt lat="48.85921" lon="2.29249">
        <ele>33.599998474121</ele>
        <time>2015-11-09T21:32:39.000Z</time>
      </trkpt>
      <trkpt lat="48.85936" lon="2.2927">
        <ele>34.200000762939</ele>
        <time>2015-11-09T21:32:45.000Z</time>
      </trkpt>
      <trkpt lat="48.85951" lon="2.2929">
        <ele>34.400001525879</ele>
        <time>2015-11-09T21:32:51.000Z</time>
      </trkpt>
      <trkpt lat="48.85969" lon="2.29308">
        <ele>34</ele>
        <time>2015-11-09T21:32:56.000Z</time>
      </trkpt>
      <trkpt lat="48.85982" lon="2.29329">
        <ele>34.400001525879</ele>
        <time>2015-11-09T21:33:02.000Z</time>
      </trkpt>
      <trkpt lat="48.85995" lon="2.29347">
        <ele>33.799999237061</ele>
        <time>2015-11-09T21:33:11.000Z</time>
      </trkpt>
      <trkpt lat="48.86008" lon="2.29362">
        <ele>33.200000762939</ele>
        <time>2015-11-09T21:33:34.000Z</time>
      </trkpt>
      <trkpt lat="48.86019" lon="2.29376">
        <ele>32.599998474121</ele>
        <time>2015-11-09T21:33:42.000Z</time>
      </trkpt>
      <trkpt lat="48.86023" lon="2.29381">
        <ele>32.400001525879</ele>
        <time>2015-11-09T21:33:46.000Z</time>
      </trkpt>
      <trkpt lat="48.86037" lon="2.29398">
        <ele>32.200000762939</ele>
        <time>2015-11-09T21:33:59.000Z</time>
      </trkpt>
      <trkpt lat="48.86053" lon="2.29418">
        <ele>32.200000762939</ele>
        <time>2015-11-09T21:34:06.000Z</time>
      </trkpt>
      <trkpt lat="48.86068" lon="2.29436">
        <ele>32.200000762939</ele>
        <time>2015-11-09T21:34:12.000Z</time>
      </trkpt>
      <trkpt lat="48.86083" lon="2.29455">
        <ele>32.200000762939</ele>
        <time>2015-11-09T21:34:18.000Z</time>
      </trkpt>
      <trkpt lat="48.86098" lon="2.29472">
        <ele>32.200000762939</ele>
        <time>2015-11-09T21:34:24.000Z</time>
      </trkpt>
      <trkpt lat="48.86111" lon="2.29492">
        <ele>32.599998474121</ele>
        <time>2015-11-09T21:34:30.000Z</time>
      </trkpt>
      <trkpt lat="48.86125" lon="2.29516">
        <ele>32.200000762939</ele>
        <time>2015-11-09T21:34:37.000Z</time>
      </trkpt>
      <trkpt lat="48.86137" lon="2.29538">
        <ele>31.799999237061</ele>
        <time>2015-11-09T21:34:43.000Z</time>
      </trkpt>
      <trkpt lat="48.86148" lon="2.2956">
        <ele>31.60000038147</ele>
        <time>2015-11-09T21:34:49.000Z</time>
      </trkpt>
      <trkpt lat="48.86157" lon="2.29584">
        <ele>31.39999961853</ele>
        <time>2015-11-09T21:34:55.000Z</time>
      </trkpt>
      <trkpt lat="48.86164" lon="2.29595">
        <ele>31.39999961853</ele>
        <time>2015-11-09T21:34:59.000Z</time>
      </trkpt>
      <trkpt lat="48.86174" lon="2.29604">
        <ele>31</ele>
        <time>2015-11-09T21:35:04.000Z</time>
      </trkpt>
      <trkpt lat="48.86182" lon="2.2963">
        <ele>31.39999961853</ele>
        <time>2015-11-09T21:35:11.000Z</time>
      </trkpt>
      <trkpt lat="48.86196" lon="2.29655">
        <ele>31.39999961853</ele>
        <time>2015-11-09T21:35:18.000Z</time>
      </trkpt>
      <trkpt lat="48.86205" lon="2.29679">
        <ele>31</ele>
        <time>2015-11-09T21:35:24.000Z</time>
      </trkpt>
      <trkpt lat="48.86205" lon="2.29707">
        <ele>31.200000762939</ele>
        <time>2015-11-09T21:35:30.000Z</time>
      </trkpt>
      <trkpt lat="48.8621" lon="2.29736">
        <ele>31.200000762939</ele>
        <time>2015-11-09T21:35:39.000Z</time>
      </trkpt>
      <trkpt lat="48.86214" lon="2.29744">
        <ele>31</ele>
        <time>2015-11-09T21:35:42.000Z</time>
      </trkpt>
      <trkpt lat="48.86213" lon="2.29754">
        <ele>31</ele>
        <time>2015-11-09T21:35:47.000Z</time>
      </trkpt>
      <trkpt lat="48.86212" lon="2.29757">
        <ele>31.200000762939</ele>
        <time>2015-11-09T21:35:51.000Z</time>
      </trkpt>
      <trkpt lat="48.86219" lon="2.29784">
        <ele>30.200000762939</ele>
        <time>2015-11-09T21:36:00.000Z</time>
      </trkpt>
      <trkpt lat="48.86228" lon="2.29809">
        <ele>28.799999237061</ele>
        <time>2015-11-09T21:36:06.000Z</time>
      </trkpt>
      <trkpt lat="48.86236" lon="2.29837">
        <ele>27.799999237061</ele>
        <time>2015-11-09T21:36:12.000Z</time>
      </trkpt>
      <trkpt lat="48.86245" lon="2.29864">
        <ele>27.39999961853</ele>
        <time>2015-11-09T21:36:18.000Z</time>
      </trkpt>
      <trkpt lat="48.86252" lon="2.29891">
        <ele>27</ele>
        <time>2015-11-09T21:36:24.000Z</time>
      </trkpt>
      <trkpt lat="48.86256" lon="2.29907">
        <ele>27.200000762939</ele>
        <time>2015-11-09T21:36:29.000Z</time>
      </trkpt>
      <trkpt lat="48.8626" lon="2.2992">
        <ele>27.799999237061</ele>
        <time>2015-11-09T21:36:35.000Z</time>
      </trkpt>
      <trkpt lat="48.86267" lon="2.29945">
        <ele>30.200000762939</ele>
        <time>2015-11-09T21:36:45.000Z</time>
      </trkpt>
      <trkpt lat="48.86278" lon="2.2997">
        <ele>32.799999237061</ele>
        <time>2015-11-09T21:36:52.000Z</time>
      </trkpt>
      <trkpt lat="48.86282" lon="2.29999">
        <ele>35.799999237061</ele>
        <time>2015-11-09T21:36:59.000Z</time>
      </trkpt>
      <trkpt lat="48.86284" lon="2.30027">
        <ele>35.799999237061</ele>
        <time>2015-11-09T21:37:06.000Z</time>
      </trkpt>
      <trkpt lat="48.86285" lon="2.30055">
        <ele>36.599998474121</ele>
        <time>2015-11-09T21:37:14.000Z</time>
      </trkpt>
      <trkpt lat="48.86289" lon="2.30084">
        <ele>37</ele>
        <time>2015-11-09T21:37:22.000Z</time>
      </trkpt>
      <trkpt lat="48.8629" lon="2.30117">
        <ele>35.400001525879</ele>
        <time>2015-11-09T21:37:28.000Z</time>
      </trkpt>
      <trkpt lat="48.86291" lon="2.30148">
        <ele>33.400001525879</ele>
        <time>2015-11-09T21:37:33.000Z</time>
      </trkpt>
      <trkpt lat="48.86293" lon="2.3018">
        <ele>32.599998474121</ele>
        <time>2015-11-09T21:37:38.000Z</time>
      </trkpt>
      <trkpt lat="48.86296" lon="2.30211">
        <ele>34</ele>
        <time>2015-11-09T21:37:43.000Z</time>
      </trkpt>
      <trkpt lat="48.86294" lon="2.30244">
        <ele>36.400001525879</ele>
        <time>2015-11-09T21:37:48.000Z</time>
      </trkpt>
      <trkpt lat="48.86294" lon="2.30274">
        <ele>36.200000762939</ele>
        <time>2015-11-09T21:37:52.000Z</time>
      </trkpt>
      <trkpt lat="48.86293" lon="2.30302">
        <ele>37.599998474121</ele>
        <time>2015-11-09T21:37:56.000Z</time>
      </trkpt>
      <trkpt lat="48.86293" lon="2.30329">
        <ele>39</ele>
        <time>2015-11-09T21:38:00.000Z</time>
      </trkpt>
      <trkpt lat="48.86293" lon="2.30357">
        <ele>39.400001525879</ele>
        <time>2015-11-09T21:38:04.000Z</time>
      </trkpt>
      <trkpt lat="48.86293" lon="2.30386">
        <ele>40.400001525879</ele>
        <time>2015-11-09T21:38:08.000Z</time>
      </trkpt>
      <trkpt lat="48.86294" lon="2.30417">
        <ele>41.200000762939</ele>
        <time>2015-11-09T21:38:12.000Z</time>
      </trkpt>
      <trkpt lat="48.86293" lon="2.3045">
        <ele>39.200000762939</ele>
        <time>2015-11-09T21:38:16.000Z</time>
      </trkpt>
      <trkpt lat="48.86291" lon="2.30482">
        <ele>36.400001525879</ele>
        <time>2015-11-09T21:38:20.000Z</time>
      </trkpt>
      <trkpt lat="48.86292" lon="2.30503">
        <ele>34.799999237061</ele>
        <time>2015-11-09T21:38:23.000Z</time>
      </trkpt>
      <trkpt lat="48.86292" lon="2.30535">
        <ele>34.400001525879</ele>
        <time>2015-11-09T21:38:27.000Z</time>
      </trkpt>
      <trkpt lat="48.86292" lon="2.30543">
        <ele>34.200000762939</ele>
        <time>2015-11-09T21:38:28.000Z</time>
      </trkpt>
      <trkpt lat="48.86291" lon="2.30567">
        <ele>33.599998474121</ele>
        <time>2015-11-09T21:38:31.000Z</time>
      </trkpt>
      <trkpt lat="48.86293" lon="2.30589">
        <ele>34</ele>
        <time>2015-11-09T21:38:35.000Z</time>
      </trkpt>
      <trkpt lat="48.8629" lon="2.30622">
        <ele>35</ele>
        <time>2015-11-09T21:38:41.000Z</time>
      </trkpt>
      <trkpt lat="48.86291" lon="2.3065">
        <ele>34.799999237061</ele>
        <time>2015-11-09T21:38:45.000Z</time>
      </trkpt>
      <trkpt lat="48.86292" lon="2.30665">
        <ele>35</ele>
        <time>2015-11-09T21:38:47.000Z</time>
      </trkpt>
      <trkpt lat="48.86291" lon="2.30696">
        <ele>36.799999237061</ele>
        <time>2015-11-09T21:38:51.000Z</time>
      </trkpt>
      <trkpt lat="48.86292" lon="2.30728">
        <ele>37.200000762939</ele>
        <time>2015-11-09T21:38:55.000Z</time>
      </trkpt>
      <trkpt lat="48.86294" lon="2.30761">
        <ele>36.400001525879</ele>
        <time>2015-11-09T21:38:59.000Z</time>
      </trkpt>
      <trkpt lat="48.86295" lon="2.30794">
        <ele>37.200000762939</ele>
        <time>2015-11-09T21:39:03.000Z</time>
      </trkpt>
      <trkpt lat="48.86296" lon="2.3083">
        <ele>39.200000762939</ele>
        <time>2015-11-09T21:39:07.000Z</time>
      </trkpt>
      <trkpt lat="48.86298" lon="2.30858">
        <ele>39.400001525879</ele>
        <time>2015-11-09T21:39:10.000Z</time>
      </trkpt>
      <trkpt lat="48.86297" lon="2.30886">
        <ele>40.799999237061</ele>
        <time>2015-11-09T21:39:13.000Z</time>
      </trkpt>
      <trkpt lat="48.86298" lon="2.30896">
        <ele>41.200000762939</ele>
        <time>2015-11-09T21:39:14.000Z</time>
      </trkpt>
      <trkpt lat="48.86299" lon="2.30924">
        <ele>40.799999237061</ele>
        <time>2015-11-09T21:39:17.000Z</time>
      </trkpt>
      <trkpt lat="48.86299" lon="2.30953">
        <ele>39</ele>
        <time>2015-11-09T21:39:20.000Z</time>
      </trkpt>
      <trkpt lat="48.86299" lon="2.30963">
        <ele>38.799999237061</ele>
        <time>2015-11-09T21:39:21.000Z</time>
      </trkpt>
      <trkpt lat="48.86302" lon="2.30996">
        <ele>37.400001525879</ele>
        <time>2015-11-09T21:39:24.000Z</time>
      </trkpt>
      <trkpt lat="48.86302" lon="2.31007">
        <ele>38</ele>
        <time>2015-11-09T21:39:25.000Z</time>
      </trkpt>
      <trkpt lat="48.86303" lon="2.31041">
        <ele>37.799999237061</ele>
        <time>2015-11-09T21:39:28.000Z</time>
      </trkpt>
      <trkpt lat="48.86306" lon="2.31076">
        <ele>35.400001525879</ele>
        <time>2015-11-09T21:39:31.000Z</time>
      </trkpt>
      <trkpt lat="48.86308" lon="2.31109">
        <ele>34.799999237061</ele>
        <time>2015-11-09T21:39:34.000Z</time>
      </trkpt>
      <trkpt lat="48.86312" lon="2.31142">
        <ele>33</ele>
        <time>2015-11-09T21:39:37.000Z</time>
      </trkpt>
      <trkpt lat="48.86312" lon="2.31153">
        <ele>32.200000762939</ele>
        <time>2015-11-09T21:39:38.000Z</time>
      </trkpt>
      <trkpt lat="48.86313" lon="2.31186">
        <ele>31.799999237061</ele>
        <time>2015-11-09T21:39:41.000Z</time>
      </trkpt>
      <trkpt lat="48.86313" lon="2.31218">
        <ele>31.799999237061</ele>
        <time>2015-11-09T21:39:44.000Z</time>
      </trkpt>
      <trkpt lat="48.86313" lon="2.3125">
        <ele>31.60000038147</ele>
        <time>2015-11-09T21:39:47.000Z</time>
      </trkpt>
      <trkpt lat="48.86314" lon="2.31282">
        <ele>32.400001525879</ele>
        <time>2015-11-09T21:39:50.000Z</time>
      </trkpt>
      <trkpt lat="48.86316" lon="2.31314">
        <ele>32.400001525879</ele>
        <time>2015-11-09T21:39:53.000Z</time>
      </trkpt>
      <trkpt lat="48.86318" lon="2.31344">
        <ele>33.400001525879</ele>
        <time>2015-11-09T21:39:56.000Z</time>
      </trkpt>
      <trkpt lat="48.86321" lon="2.31378">
        <ele>35.799999237061</ele>
        <time>2015-11-09T21:40:00.000Z</time>
      </trkpt>
      <trkpt lat="48.86323" lon="2.31413">
        <ele>34.400001525879</ele>
        <time>2015-11-09T21:40:03.000Z</time>
      </trkpt>
      <trkpt lat="48.86322" lon="2.31445">
        <ele>32.799999237061</ele>
        <time>2015-11-09T21:40:06.000Z</time>
      </trkpt>
      <trkpt lat="48.86324" lon="2.31476">
        <ele>33</ele>
        <time>2015-11-09T21:40:09.000Z</time>
      </trkpt>
      <trkpt lat="48.86325" lon="2.31507">
        <ele>32.599998474121</ele>
        <time>2015-11-09T21:40:12.000Z</time>
      </trkpt>
      <trkpt lat="48.86327" lon="2.3154">
        <ele>27</ele>
        <time>2015-11-09T21:40:15.000Z</time>
      </trkpt>
      <trkpt lat="48.86326" lon="2.31573">
        <ele>26.799999237061</ele>
        <time>2015-11-09T21:40:18.000Z</time>
      </trkpt>
      <trkpt lat="48.86327" lon="2.31584">
        <ele>26.799999237061</ele>
        <time>2015-11-09T21:40:19.000Z</time>
      </trkpt>
      <trkpt lat="48.86326" lon="2.31617">
        <ele>25</ele>
        <time>2015-11-09T21:40:22.000Z</time>
      </trkpt>
      <trkpt lat="48.86325" lon="2.3165">
        <ele>23.200000762939</ele>
        <time>2015-11-09T21:40:25.000Z</time>
      </trkpt>
      <trkpt lat="48.86325" lon="2.31683">
        <ele>31.39999961853</ele>
        <time>2015-11-09T21:40:28.000Z</time>
      </trkpt>
      <trkpt lat="48.86326" lon="2.31716">
        <ele>46.599998474121</ele>
        <time>2015-11-09T21:40:31.000Z</time>
      </trkpt>
      <trkpt lat="48.86327" lon="2.31748">
        <ele>48.200000762939</ele>
        <time>2015-11-09T21:40:34.000Z</time>
      </trkpt>
      <trkpt lat="48.86329" lon="2.3178">
        <ele>44.799999237061</ele>
        <time>2015-11-09T21:40:37.000Z</time>
      </trkpt>
      <trkpt lat="48.86327" lon="2.3179">
        <ele>43.200000762939</ele>
        <time>2015-11-09T21:40:38.000Z</time>
      </trkpt>
      <trkpt lat="48.86321" lon="2.31822">
        <ele>39.400001525879</ele>
        <time>2015-11-09T21:40:41.000Z</time>
      </trkpt>
      <trkpt lat="48.86313" lon="2.31844">
        <ele>35</ele>
        <time>2015-11-09T21:40:43.000Z</time>
      </trkpt>
      <trkpt lat="48.86304" lon="2.31873">
        <ele>29.799999237061</ele>
        <time>2015-11-09T21:40:46.000Z</time>
      </trkpt>
      <trkpt lat="48.86294" lon="2.31903">
        <ele>31</ele>
        <time>2015-11-09T21:40:49.000Z</time>
      </trkpt>
      <trkpt lat="48.86283" lon="2.31933">
        <ele>32.200000762939</ele>
        <time>2015-11-09T21:40:52.000Z</time>
      </trkpt>
      <trkpt lat="48.86273" lon="2.31964">
        <ele>31.799999237061</ele>
        <time>2015-11-09T21:40:55.000Z</time>
      </trkpt>
      <trkpt lat="48.8627" lon="2.31973">
        <ele>31.799999237061</ele>
        <time>2015-11-09T21:40:56.000Z</time>
      </trkpt>
      <trkpt lat="48.8626" lon="2.32001">
        <ele>32.799999237061</ele>
        <time>2015-11-09T21:40:59.000Z</time>
      </trkpt>
      <trkpt lat="48.86252" lon="2.32027">
        <ele>34</ele>
        <time>2015-11-09T21:41:02.000Z</time>
      </trkpt>
      <trkpt lat="48.86245" lon="2.32055">
        <ele>35</ele>
        <time>2015-11-09T21:41:05.000Z</time>
      </trkpt>
      <trkpt lat="48.86238" lon="2.32083">
        <ele>36.799999237061</ele>
        <time>2015-11-09T21:41:08.000Z</time>
      </trkpt>
      <trkpt lat="48.86232" lon="2.32101">
        <ele>36.799999237061</ele>
        <time>2015-11-09T21:41:10.000Z</time>
      </trkpt>
      <trkpt lat="48.86224" lon="2.32129">
        <ele>36.599998474121</ele>
        <time>2015-11-09T21:41:13.000Z</time>
      </trkpt>
      <trkpt lat="48.86218" lon="2.32147">
        <ele>36</ele>
        <time>2015-11-09T21:41:15.000Z</time>
      </trkpt>
      <trkpt lat="48.8621" lon="2.32176">
        <ele>36.400001525879</ele>
        <time>2015-11-09T21:41:18.000Z</time>
      </trkpt>
      <trkpt lat="48.86206" lon="2.32184">
        <ele>36.799999237061</ele>
        <time>2015-11-09T21:41:19.000Z</time>
      </trkpt>
      <trkpt lat="48.86197" lon="2.32211">
        <ele>35.200000762939</ele>
        <time>2015-11-09T21:41:22.000Z</time>
      </trkpt>
      <trkpt lat="48.86187" lon="2.32239">
        <ele>33.799999237061</ele>
        <time>2015-11-09T21:41:25.000Z</time>
      </trkpt>
      <trkpt lat="48.86178" lon="2.32267">
        <ele>33.400001525879</ele>
        <time>2015-11-09T21:41:28.000Z</time>
      </trkpt>
      <trkpt lat="48.86175" lon="2.32277">
        <ele>33.400001525879</ele>
        <time>2015-11-09T21:41:29.000Z</time>
      </trkpt>
      <trkpt lat="48.86167" lon="2.32306">
        <ele>33</ele>
        <time>2015-11-09T21:41:32.000Z</time>
      </trkpt>
      <trkpt lat="48.86158" lon="2.32336">
        <ele>35</ele>
        <time>2015-11-09T21:41:35.000Z</time>
      </trkpt>
      <trkpt lat="48.8615" lon="2.32367">
        <ele>35.400001525879</ele>
        <time>2015-11-09T21:41:38.000Z</time>
      </trkpt>
      <trkpt lat="48.86141" lon="2.32398">
        <ele>34.599998474121</ele>
        <time>2015-11-09T21:41:41.000Z</time>
      </trkpt>
      <trkpt lat="48.86133" lon="2.32428">
        <ele>34.799999237061</ele>
        <time>2015-11-09T21:41:44.000Z</time>
      </trkpt>
      <trkpt lat="48.86124" lon="2.3246">
        <ele>35</ele>
        <time>2015-11-09T21:41:47.000Z</time>
      </trkpt>
      <trkpt lat="48.86115" lon="2.32493">
        <ele>34.599998474121</ele>
        <time>2015-11-09T21:41:50.000Z</time>
      </trkpt>
      <trkpt lat="48.86106" lon="2.32524">
        <ele>33.799999237061</ele>
        <time>2015-11-09T21:41:53.000Z</time>
      </trkpt>
      <trkpt lat="48.86097" lon="2.32553">
        <ele>32.799999237061</ele>
        <time>2015-11-09T21:41:56.000Z</time>
      </trkpt>
      <trkpt lat="48.86089" lon="2.32582">
        <ele>34.200000762939</ele>
        <time>2015-11-09T21:41:59.000Z</time>
      </trkpt>
      <trkpt lat="48.8608" lon="2.32613">
        <ele>35.200000762939</ele>
        <time>2015-11-09T21:42:02.000Z</time>
      </trkpt>
      <trkpt lat="48.86071" lon="2.32644">
        <ele>36.599998474121</ele>
        <time>2015-11-09T21:42:05.000Z</time>
      </trkpt>
      <trkpt lat="48.86062" lon="2.32674">
        <ele>38.599998474121</ele>
        <time>2015-11-09T21:42:08.000Z</time>
      </trkpt>
      <trkpt lat="48.86052" lon="2.32703">
        <ele>39.799999237061</ele>
        <time>2015-11-09T21:42:11.000Z</time>
      </trkpt>
      <trkpt lat="48.86042" lon="2.32731">
        <ele>39</ele>
        <time>2015-11-09T21:42:14.000Z</time>
      </trkpt>
      <trkpt lat="48.86032" lon="2.32754">
        <ele>39.400001525879</ele>
        <time>2015-11-09T21:42:17.000Z</time>
      </trkpt>
      <trkpt lat="48.86022" lon="2.32779">
        <ele>39.200000762939</ele>
        <time>2015-11-09T21:42:21.000Z</time>
      </trkpt>
      <trkpt lat="48.8602" lon="2.32784">
        <ele>39</ele>
        <time>2015-11-09T21:42:22.000Z</time>
      </trkpt>
      <trkpt lat="48.86012" lon="2.3281">
        <ele>38.200000762939</ele>
        <time>2015-11-09T21:42:28.000Z</time>
      </trkpt>
      <trkpt lat="48.86004" lon="2.32825">
        <ele>38.599998474121</ele>
        <time>2015-11-09T21:42:32.000Z</time>
      </trkpt>
      <trkpt lat="48.85992" lon="2.32853">
        <ele>40.799999237061</ele>
        <time>2015-11-09T21:42:38.000Z</time>
      </trkpt>
      <trkpt lat="48.85983" lon="2.32878">
        <ele>42.599998474121</ele>
        <time>2015-11-09T21:42:43.000Z</time>
      </trkpt>
      <trkpt lat="48.85975" lon="2.32904">
        <ele>42.200000762939</ele>
        <time>2015-11-09T21:42:48.000Z</time>
      </trkpt>
      <trkpt lat="48.85967" lon="2.32932">
        <ele>42.599998474121</ele>
        <time>2015-11-09T21:42:55.000Z</time>
      </trkpt>
      <trkpt lat="48.85967" lon="2.32934">
        <ele>42.599998474121</ele>
        <time>2015-11-09T21:42:56.000Z</time>
      </trkpt>
      <trkpt lat="48.85969" lon="2.3294">
        <ele>42.599998474121</ele>
        <time>2015-11-09T21:43:00.000Z</time>
      </trkpt>
      <trkpt lat="48.85968" lon="2.32948">
        <ele>42.400001525879</ele>
        <time>2015-11-09T21:45:14.000Z</time>
      </trkpt>
      <trkpt lat="48.85971" lon="2.32952">
        <ele>42.200000762939</ele>
        <time>2015-11-09T21:45:16.000Z</time>
      </trkpt>
      <trkpt lat="48.85983" lon="2.32962">
        <ele>41.599998474121</ele>
        <time>2015-11-09T21:45:22.000Z</time>
      </trkpt>
      <trkpt lat="48.86" lon="2.32972">
        <ele>41</ele>
        <time>2015-11-09T21:45:28.000Z</time>
      </trkpt>
      <trkpt lat="48.86019" lon="2.32986">
        <ele>40</ele>
        <time>2015-11-09T21:45:35.000Z</time>
      </trkpt>
      <trkpt lat="48.86037" lon="2.33001">
        <ele>40.400001525879</ele>
        <time>2015-11-09T21:45:41.000Z</time>
      </trkpt>
      <trkpt lat="48.86054" lon="2.33013">
        <ele>40.599998474121</ele>
        <time>2015-11-09T21:45:46.000Z</time>
      </trkpt>
      <trkpt lat="48.86072" lon="2.33014">
        <ele>41.400001525879</ele>
        <time>2015-11-09T21:45:52.000Z</time>
      </trkpt>
      <trkpt lat="48.86082" lon="2.33008">
        <ele>42.200000762939</ele>
        <time>2015-11-09T21:45:56.000Z</time>
      </trkpt>
      <trkpt lat="48.86097" lon="2.33">
        <ele>43.400001525879</ele>
        <time>2015-11-09T21:46:05.000Z</time>
      </trkpt>
      <trkpt lat="48.86105" lon="2.33005">
        <ele>43.400001525879</ele>
        <time>2015-11-09T21:46:29.000Z</time>
      </trkpt>
      <trkpt lat="48.86121" lon="2.33024">
        <ele>41.799999237061</ele>
        <time>2015-11-09T21:46:44.000Z</time>
      </trkpt>
      <trkpt lat="48.86142" lon="2.33043">
        <ele>40</ele>
        <time>2015-11-09T21:46:48.000Z</time>
      </trkpt>
      <trkpt lat="48.86164" lon="2.3306">
        <ele>38.200000762939</ele>
        <time>2015-11-09T21:46:51.000Z</time>
      </trkpt>
      <trkpt lat="48.86187" lon="2.33077">
        <ele>36.200000762939</ele>
        <time>2015-11-09T21:46:54.000Z</time>
      </trkpt>
      <trkpt lat="48.8621" lon="2.33094">
        <ele>36</ele>
        <time>2015-11-09T21:46:57.000Z</time>
      </trkpt>
      <trkpt lat="48.86227" lon="2.33106">
        <ele>36</ele>
        <time>2015-11-09T21:46:59.000Z</time>
      </trkpt>
      <trkpt lat="48.86321" lon="2.33181">
        <ele>39.200000762939</ele>
        <time>2015-11-09T21:47:09.000Z</time>
      </trkpt>
      <trkpt lat="48.86341" lon="2.3319">
        <ele>40.200000762939</ele>
        <time>2015-11-09T21:47:14.000Z</time>
      </trkpt>
      <trkpt lat="48.86351" lon="2.33197">
        <ele>40.799999237061</ele>
        <time>2015-11-09T21:47:17.000Z</time>
      </trkpt>
      <trkpt lat="48.86361" lon="2.33209">
        <ele>41.799999237061</ele>
        <time>2015-11-09T21:47:21.000Z</time>
      </trkpt>
      <trkpt lat="48.86367" lon="2.33214">
        <ele>42.400001525879</ele>
        <time>2015-11-09T21:47:26.000Z</time>
      </trkpt>
      <trkpt lat="48.8638" lon="2.33234">
        <ele>44</ele>
        <time>2015-11-09T21:47:45.000Z</time>
      </trkpt>
      <trkpt lat="48.86382" lon="2.33235">
        <ele>44.200000762939</ele>
        <time>2015-11-09T21:47:46.000Z</time>
      </trkpt>
      <trkpt lat="48.86399" lon="2.33236">
        <ele>44.799999237061</ele>
        <time>2015-11-09T21:47:54.000Z</time>
      </trkpt>
      <trkpt lat="48.86421" lon="2.33239">
        <ele>45.799999237061</ele>
        <time>2015-11-09T21:48:00.000Z</time>
      </trkpt>
      <trkpt lat="48.8644" lon="2.33241">
        <ele>46.799999237061</ele>
        <time>2015-11-09T21:48:06.000Z</time>
      </trkpt>
      <trkpt lat="48.8644" lon="2.33253">
        <ele>47</ele>
        <time>2015-11-09T21:48:08.000Z</time>
      </trkpt>
      <trkpt lat="48.86429" lon="2.33276">
        <ele>47</ele>
        <time>2015-11-09T21:48:13.000Z</time>
      </trkpt>
      <trkpt lat="48.86421" lon="2.33302">
        <ele>47</ele>
        <time>2015-11-09T21:48:18.000Z</time>
      </trkpt>
      <trkpt lat="48.86412" lon="2.33327">
        <ele>47.799999237061</ele>
        <time>2015-11-09T21:48:22.000Z</time>
      </trkpt>
      <trkpt lat="48.86401" lon="2.33357">
        <ele>48.599998474121</ele>
        <time>2015-11-09T21:48:27.000Z</time>
      </trkpt>
      <trkpt lat="48.86391" lon="2.33385">
        <ele>49.599998474121</ele>
        <time>2015-11-09T21:48:32.000Z</time>
      </trkpt>
      <trkpt lat="48.86382" lon="2.33411">
        <ele>50.599998474121</ele>
        <time>2015-11-09T21:48:38.000Z</time>
      </trkpt>
      <trkpt lat="48.86372" lon="2.33439">
        <ele>50.400001525879</ele>
        <time>2015-11-09T21:48:44.000Z</time>
      </trkpt>
      <trkpt lat="48.86363" lon="2.33464">
        <ele>49.400001525879</ele>
        <time>2015-11-09T21:48:48.000Z</time>
      </trkpt>
      <trkpt lat="48.86353" lon="2.33492">
        <ele>47.799999237061</ele>
        <time>2015-11-09T21:48:53.000Z</time>
      </trkpt>
      <trkpt lat="48.86344" lon="2.33518">
        <ele>47.200000762939</ele>
        <time>2015-11-09T21:48:58.000Z</time>
      </trkpt>
      <trkpt lat="48.86335" lon="2.33544">
        <ele>46.400001525879</ele>
        <time>2015-11-09T21:49:03.000Z</time>
      </trkpt>
      <trkpt lat="48.86323" lon="2.33569">
        <ele>46.799999237061</ele>
        <time>2015-11-09T21:49:08.000Z</time>
      </trkpt>
      <trkpt lat="48.86314" lon="2.33596">
        <ele>47</ele>
        <time>2015-11-09T21:49:12.000Z</time>
      </trkpt>
      <trkpt lat="48.86307" lon="2.33627">
        <ele>46.200000762939</ele>
        <time>2015-11-09T21:49:16.000Z</time>
      </trkpt>
      <trkpt lat="48.863" lon="2.33653">
        <ele>46.200000762939</ele>
        <time>2015-11-09T21:49:20.000Z</time>
      </trkpt>
      <trkpt lat="48.86292" lon="2.3368">
        <ele>46.200000762939</ele>
        <time>2015-11-09T21:49:24.000Z</time>
      </trkpt>
      <trkpt lat="48.86284" lon="2.33707">
        <ele>46</ele>
        <time>2015-11-09T21:49:28.000Z</time>
      </trkpt>
      <trkpt lat="48.86278" lon="2.3373">
        <ele>46</ele>
        <time>2015-11-09T21:49:31.000Z</time>
      </trkpt>
      <trkpt lat="48.86268" lon="2.33757">
        <ele>46</ele>
        <time>2015-11-09T21:49:34.000Z</time>
      </trkpt>
      <trkpt lat="48.86258" lon="2.33783">
        <ele>45.799999237061</ele>
        <time>2015-11-09T21:49:37.000Z</time>
      </trkpt>
      <trkpt lat="48.8625" lon="2.33809">
        <ele>45.599998474121</ele>
        <time>2015-11-09T21:49:40.000Z</time>
      </trkpt>
      <trkpt lat="48.86238" lon="2.33835">
        <ele>44.400001525879</ele>
        <time>2015-11-09T21:49:43.000Z</time>
      </trkpt>
      <trkpt lat="48.86228" lon="2.33866">
        <ele>45.200000762939</ele>
        <time>2015-11-09T21:49:47.000Z</time>
      </trkpt>
      <trkpt lat="48.86221" lon="2.33897">
        <ele>45.799999237061</ele>
        <time>2015-11-09T21:49:51.000Z</time>
      </trkpt>
      <trkpt lat="48.86216" lon="2.33912">
        <ele>46</ele>
        <time>2015-11-09T21:49:53.000Z</time>
      </trkpt>
      <trkpt lat="48.86212" lon="2.33944">
        <ele>46.799999237061</ele>
        <time>2015-11-09T21:49:57.000Z</time>
      </trkpt>
      <trkpt lat="48.86203" lon="2.33974">
        <ele>48</ele>
        <time>2015-11-09T21:50:01.000Z</time>
      </trkpt>
      <trkpt lat="48.86193" lon="2.33998">
        <ele>49</ele>
        <time>2015-11-09T21:50:04.000Z</time>
      </trkpt>
      <trkpt lat="48.8618" lon="2.34018">
        <ele>48.799999237061</ele>
        <time>2015-11-09T21:50:07.000Z</time>
      </trkpt>
      <trkpt lat="48.8617" lon="2.34028">
        <ele>48.599998474121</ele>
        <time>2015-11-09T21:50:09.000Z</time>
      </trkpt>
      <trkpt lat="48.86162" lon="2.34055">
        <ele>48.400001525879</ele>
        <time>2015-11-09T21:50:13.000Z</time>
      </trkpt>
      <trkpt lat="48.86168" lon="2.34085">
        <ele>48.200000762939</ele>
        <time>2015-11-09T21:50:17.000Z</time>
      </trkpt>
      <trkpt lat="48.86168" lon="2.3409">
        <ele>48.400001525879</ele>
        <time>2015-11-09T21:50:18.000Z</time>
      </trkpt>
      <trkpt lat="48.86174" lon="2.34112">
        <ele>48.799999237061</ele>
        <time>2015-11-09T21:50:48.000Z</time>
      </trkpt>
      <trkpt lat="48.86156" lon="2.34129">
        <ele>48.400001525879</ele>
        <time>2015-11-09T21:50:57.000Z</time>
      </trkpt>
      <trkpt lat="48.86142" lon="2.3415">
        <ele>48.599998474121</ele>
        <time>2015-11-09T21:51:01.000Z</time>
      </trkpt>
      <trkpt lat="48.86137" lon="2.34164">
        <ele>48.799999237061</ele>
        <time>2015-11-09T21:51:03.000Z</time>
      </trkpt>
      <trkpt lat="48.86131" lon="2.34191">
        <ele>48.599998474121</ele>
        <time>2015-11-09T21:51:06.000Z</time>
      </trkpt>
      <trkpt lat="48.86125" lon="2.34208">
        <ele>48.799999237061</ele>
        <time>2015-11-09T21:51:08.000Z</time>
      </trkpt>
      <trkpt lat="48.86115" lon="2.34232">
        <ele>49</ele>
        <time>2015-11-09T21:51:11.000Z</time>
      </trkpt>
      <trkpt lat="48.86109" lon="2.34258">
        <ele>49.200000762939</ele>
        <time>2015-11-09T21:51:14.000Z</time>
      </trkpt>
      <trkpt lat="48.86111" lon="2.34268">
        <ele>49.400001525879</ele>
        <time>2015-11-09T21:51:15.000Z</time>
      </trkpt>
      <trkpt lat="48.86104" lon="2.343">
        <ele>50.200000762939</ele>
        <time>2015-11-09T21:51:18.000Z</time>
      </trkpt>
      <trkpt lat="48.861" lon="2.34332">
        <ele>51.200000762939</ele>
        <time>2015-11-09T21:51:21.000Z</time>
      </trkpt>
      <trkpt lat="48.86098" lon="2.34362">
        <ele>50.799999237061</ele>
        <time>2015-11-09T21:51:24.000Z</time>
      </trkpt>
      <trkpt lat="48.86089" lon="2.34392">
        <ele>50.599998474121</ele>
        <time>2015-11-09T21:51:27.000Z</time>
      </trkpt>
      <trkpt lat="48.86087" lon="2.34411">
        <ele>51</ele>
        <time>2015-11-09T21:51:29.000Z</time>
      </trkpt>
      <trkpt lat="48.86082" lon="2.34442">
        <ele>51.400001525879</ele>
        <time>2015-11-09T21:51:32.000Z</time>
      </trkpt>
      <trkpt lat="48.86085" lon="2.34462">
        <ele>51.599998474121</ele>
        <time>2015-11-09T21:51:34.000Z</time>
      </trkpt>
      <trkpt lat="48.86083" lon="2.34474">
        <ele>51.799999237061</ele>
        <time>2015-11-09T21:51:36.000Z</time>
      </trkpt>
      <trkpt lat="48.86076" lon="2.34502">
        <ele>51.599998474121</ele>
        <time>2015-11-09T21:51:40.000Z</time>
      </trkpt>
      <trkpt lat="48.86074" lon="2.3451">
        <ele>51.599998474121</ele>
        <time>2015-11-09T21:51:41.000Z</time>
      </trkpt>
      <trkpt lat="48.86068" lon="2.34545">
        <ele>51.200000762939</ele>
        <time>2015-11-09T21:51:45.000Z</time>
      </trkpt>
      <trkpt lat="48.86066" lon="2.34563">
        <ele>50.400001525879</ele>
        <time>2015-11-09T21:51:47.000Z</time>
      </trkpt>
      <trkpt lat="48.86057" lon="2.34589">
        <ele>48.799999237061</ele>
        <time>2015-11-09T21:51:51.000Z</time>
      </trkpt>
      <trkpt lat="48.86041" lon="2.34613">
        <ele>47.200000762939</ele>
        <time>2015-11-09T21:51:56.000Z</time>
      </trkpt>
      <trkpt lat="48.86028" lon="2.34626">
        <ele>47.200000762939</ele>
        <time>2015-11-09T21:51:59.000Z</time>
      </trkpt>
      <trkpt lat="48.86018" lon="2.34639">
        <ele>47</ele>
        <time>2015-11-09T21:52:02.000Z</time>
      </trkpt>
      <trkpt lat="48.86011" lon="2.34646">
        <ele>47</ele>
        <time>2015-11-09T21:52:04.000Z</time>
      </trkpt>
      <trkpt lat="48.85995" lon="2.34661">
        <ele>46.400001525879</ele>
        <time>2015-11-09T21:52:09.000Z</time>
      </trkpt>
      <trkpt lat="48.85986" lon="2.34675">
        <ele>46.400001525879</ele>
        <time>2015-11-09T21:52:13.000Z</time>
      </trkpt>
      <trkpt lat="48.8598" lon="2.34685">
        <ele>46.200000762939</ele>
        <time>2015-11-09T21:52:17.000Z</time>
      </trkpt>
      <trkpt lat="48.85981" lon="2.347">
        <ele>46</ele>
        <time>2015-11-09T21:52:21.000Z</time>
      </trkpt>
      <trkpt lat="48.85979" lon="2.34704">
        <ele>46</ele>
        <time>2015-11-09T21:52:22.000Z</time>
      </trkpt>
      <trkpt lat="48.85968" lon="2.34716">
        <ele>45.400001525879</ele>
        <time>2015-11-09T21:52:26.000Z</time>
      </trkpt>
      <trkpt lat="48.85959" lon="2.34727">
        <ele>45</ele>
        <time>2015-11-09T21:52:35.000Z</time>
      </trkpt>
    </trkseg>
  </trk>
</gpx>